<?xml version="1.0" encoding="UTF-8" standalone="no" ?>
<gpx xmlns="http://www.topografix.com/GPX/1/1" xmlns:xsi="http://www.w3.org/2001/XMLSchema-instance" xsi:schemaLocation="http://www.topografix.com/GPX/1/1 http://www.topografix.com/GPX/1/1/gpx.xsd" version="1.1" creator="VisuGPX - https://www.visugpx.com">
  <metadata>
    <name>Maroc2011 - Parcours complet</name>
    <desc><![CDATA[La totalité du parcours.]]></desc>
  </metadata>
  <trk>
    <name><![CDATA[Tanger Port à Tanger Port]]></name>
    <trkseg>
      <trkpt lat="35.88297" lon="-5.506">
        <ele>19.738</ele>
        <time>2011-04-18T17:41:10Z</time>
      </trkpt>
      <trkpt lat="35.87833" lon="-5.50915">
        <ele>26.533</ele>
        <time>2011-04-18T18:21:04Z</time>
      </trkpt>
      <trkpt lat="35.87287" lon="-5.51539">
        <ele>55.459</ele>
        <time>2011-04-18T18:21:44Z</time>
      </trkpt>
      <trkpt lat="35.86706" lon="-5.52633">
        <ele>31.2</ele>
        <time>2011-04-18T18:22:52Z</time>
      </trkpt>
      <trkpt lat="35.85878" lon="-5.53339">
        <ele>36.558</ele>
        <time>2011-04-18T18:23:43Z</time>
      </trkpt>
      <trkpt lat="35.8533" lon="-5.5393">
        <ele>12.053</ele>
        <time>2011-04-18T18:24:45Z</time>
      </trkpt>
      <trkpt lat="35.85087" lon="-5.54412">
        <ele>24.431</ele>
        <time>2011-04-18T18:25:22Z</time>
      </trkpt>
      <trkpt lat="35.84353" lon="-5.55238">
        <ele>26.841</ele>
        <time>2011-04-18T18:26:25Z</time>
      </trkpt>
      <trkpt lat="35.84079" lon="-5.55762">
        <ele>8.503</ele>
        <time>2011-04-18T18:26:59Z</time>
      </trkpt>
      <trkpt lat="35.83797" lon="-5.56382">
        <ele>5.39</ele>
        <time>2011-04-18T18:28:14Z</time>
      </trkpt>
      <trkpt lat="35.83367" lon="-5.563">
        <ele>5.903</ele>
        <time>2011-04-18T18:29:02Z</time>
      </trkpt>
      <trkpt lat="35.82979" lon="-5.56531">
        <ele>10.119</ele>
        <time>2011-04-18T18:29:44Z</time>
      </trkpt>
      <trkpt lat="35.82383" lon="-5.56367">
        <ele>9.414</ele>
        <time>2011-04-18T18:30:37Z</time>
      </trkpt>
      <trkpt lat="35.81879" lon="-5.56632">
        <ele>7.153</ele>
        <time>2011-04-18T18:31:28Z</time>
      </trkpt>
      <trkpt lat="35.81228" lon="-5.56472">
        <ele>35.673</ele>
        <time>2011-04-18T18:32:30Z</time>
      </trkpt>
      <trkpt lat="35.80688" lon="-5.5672">
        <ele>15.165</ele>
        <time>2011-04-18T18:33:14Z</time>
      </trkpt>
      <trkpt lat="35.8036" lon="-5.56338">
        <ele>26.872</ele>
        <time>2011-04-18T18:34:01Z</time>
      </trkpt>
      <trkpt lat="35.79909" lon="-5.56085">
        <ele>26.107</ele>
        <time>2011-04-18T18:34:34Z</time>
      </trkpt>
      <trkpt lat="35.79377" lon="-5.5626">
        <ele>27.904</ele>
        <time>2011-04-18T18:35:43Z</time>
      </trkpt>
      <trkpt lat="35.7903" lon="-5.5583">
        <ele>37.585</ele>
        <time>2011-04-18T18:36:41Z</time>
      </trkpt>
      <trkpt lat="35.78665" lon="-5.54926">
        <ele>50.124</ele>
        <time>2011-04-18T18:38:06Z</time>
      </trkpt>
      <trkpt lat="35.78637" lon="-5.54165">
        <ele>62.708</ele>
        <time>2011-04-18T18:38:56Z</time>
      </trkpt>
      <trkpt lat="35.78229" lon="-5.53518">
        <ele>62.155</ele>
        <time>2011-04-18T18:40:42Z</time>
      </trkpt>
      <trkpt lat="35.78576" lon="-5.53912">
        <ele>71.187</ele>
        <time>2011-04-18T18:41:47Z</time>
      </trkpt>
      <trkpt lat="35.78585" lon="-5.54715">
        <ele>61.342</ele>
        <time>2011-04-18T18:42:47Z</time>
      </trkpt>
      <trkpt lat="35.78687" lon="-5.55646">
        <ele>42.2</ele>
        <time>2011-04-18T18:44:07Z</time>
      </trkpt>
      <trkpt lat="35.79389" lon="-5.56264">
        <ele>29.356</ele>
        <time>2011-04-18T18:45:22Z</time>
      </trkpt>
      <trkpt lat="35.7986" lon="-5.5606">
        <ele>27.991</ele>
        <time>2011-04-18T18:46:06Z</time>
      </trkpt>
      <trkpt lat="35.80408" lon="-5.56391">
        <ele>21.476</ele>
        <time>2011-04-18T18:47:45Z</time>
      </trkpt>
      <trkpt lat="35.8123" lon="-5.56457">
        <ele>35.788</ele>
        <time>2011-04-18T18:49:08Z</time>
      </trkpt>
      <trkpt lat="35.81933" lon="-5.5662">
        <ele>4.441</ele>
        <time>2011-04-18T18:50:15Z</time>
      </trkpt>
      <trkpt lat="35.82416" lon="-5.56366">
        <ele>3.377</ele>
        <time>2011-04-18T18:51:04Z</time>
      </trkpt>
      <trkpt lat="35.8311" lon="-5.56556">
        <ele>3.19</ele>
        <time>2011-04-18T18:52:11Z</time>
      </trkpt>
      <trkpt lat="35.83551" lon="-5.56412">
        <ele>-1.541</ele>
        <time>2011-04-18T18:53:03Z</time>
      </trkpt>
      <trkpt lat="35.84196" lon="-5.561">
        <ele>-1.582</ele>
        <time>2011-04-18T18:54:32Z</time>
      </trkpt>
      <trkpt lat="35.84621" lon="-5.56234">
        <ele>17.173</ele>
        <time>2011-04-18T18:56:00Z</time>
      </trkpt>
      <trkpt lat="35.84044" lon="-5.56477">
        <ele>32.518</ele>
        <time>2011-04-18T18:56:55Z</time>
      </trkpt>
      <trkpt lat="35.83812" lon="-5.57052">
        <ele>43.907</ele>
        <time>2011-04-18T18:57:32Z</time>
      </trkpt>
      <trkpt lat="35.83652" lon="-5.5755">
        <ele>34.401</ele>
        <time>2011-04-18T18:58:15Z</time>
      </trkpt>
      <trkpt lat="35.83389" lon="-5.58228">
        <ele>29.448</ele>
        <time>2011-04-18T18:59:00Z</time>
      </trkpt>
      <trkpt lat="35.82994" lon="-5.58539">
        <ele>9.068</ele>
        <time>2011-04-18T18:59:32Z</time>
      </trkpt>
      <trkpt lat="35.83146" lon="-5.59218">
        <ele>17.428</ele>
        <time>2011-04-18T19:00:10Z</time>
      </trkpt>
      <trkpt lat="35.82848" lon="-5.59995">
        <ele>34.788</ele>
        <time>2011-04-18T19:00:58Z</time>
      </trkpt>
      <trkpt lat="35.82626" lon="-5.60566">
        <ele>48.719</ele>
        <time>2011-04-18T19:01:42Z</time>
      </trkpt>
      <trkpt lat="35.82903" lon="-5.6095">
        <ele>63.264</ele>
        <time>2011-04-18T19:02:15Z</time>
      </trkpt>
      <trkpt lat="35.82465" lon="-5.61217">
        <ele>57.347</ele>
        <time>2011-04-18T19:02:42Z</time>
      </trkpt>
      <trkpt lat="35.81368" lon="-5.61339">
        <ele>76.111</ele>
        <time>2011-04-18T19:03:45Z</time>
      </trkpt>
      <trkpt lat="35.81126" lon="-5.61554">
        <ele>109.754</ele>
        <time>2011-04-18T19:04:22Z</time>
      </trkpt>
      <trkpt lat="35.81534" lon="-5.62007">
        <ele>168.252</ele>
        <time>2011-04-18T19:04:56Z</time>
      </trkpt>
      <trkpt lat="35.82071" lon="-5.62375">
        <ele>145.268</ele>
        <time>2011-04-18T19:05:31Z</time>
      </trkpt>
      <trkpt lat="35.82359" lon="-5.63324">
        <ele>128.493</ele>
        <time>2011-04-18T19:06:16Z</time>
      </trkpt>
      <trkpt lat="35.81719" lon="-5.63551">
        <ele>77.508</ele>
        <time>2011-04-18T19:07:02Z</time>
      </trkpt>
      <trkpt lat="35.81944" lon="-5.63967">
        <ele>15.083</ele>
        <time>2011-04-18T19:07:39Z</time>
      </trkpt>
      <trkpt lat="35.82" lon="-5.64767">
        <ele>7.625</ele>
        <time>2011-04-18T19:08:18Z</time>
      </trkpt>
      <trkpt lat="35.82321" lon="-5.65385">
        <ele>17.553</ele>
        <time>2011-04-18T19:08:55Z</time>
      </trkpt>
      <trkpt lat="35.82626" lon="-5.65833">
        <ele>49.409</ele>
        <time>2011-04-18T19:09:27Z</time>
      </trkpt>
      <trkpt lat="35.82326" lon="-5.66155">
        <ele>65.18</ele>
        <time>2011-04-18T19:09:59Z</time>
      </trkpt>
      <trkpt lat="35.82617" lon="-5.66762">
        <ele>89.415</ele>
        <time>2011-04-18T19:10:42Z</time>
      </trkpt>
      <trkpt lat="35.82466" lon="-5.67369">
        <ele>101.395</ele>
        <time>2011-04-18T19:11:20Z</time>
      </trkpt>
      <trkpt lat="35.82881" lon="-5.6777">
        <ele>104.122</ele>
        <time>2011-04-18T19:11:48Z</time>
      </trkpt>
      <trkpt lat="35.82743" lon="-5.68255">
        <ele>122.77</ele>
        <time>2011-04-18T19:12:19Z</time>
      </trkpt>
      <trkpt lat="35.8275" lon="-5.69027">
        <ele>58.572</ele>
        <time>2011-04-18T19:13:01Z</time>
      </trkpt>
      <trkpt lat="35.82913" lon="-5.70271">
        <ele>8.121</ele>
        <time>2011-04-18T19:13:59Z</time>
      </trkpt>
      <trkpt lat="35.82601" lon="-5.70828">
        <ele>13.572</ele>
        <time>2011-04-18T19:14:33Z</time>
      </trkpt>
      <trkpt lat="35.8192" lon="-5.7114">
        <ele>63.071</ele>
        <time>2011-04-18T19:15:19Z</time>
      </trkpt>
      <trkpt lat="35.81431" lon="-5.71024">
        <ele>74.209</ele>
        <time>2011-04-18T19:16:04Z</time>
      </trkpt>
      <trkpt lat="35.81546" lon="-5.71608">
        <ele>70.06</ele>
        <time>2011-04-18T19:16:47Z</time>
      </trkpt>
      <trkpt lat="35.81642" lon="-5.72428">
        <ele>98.841</ele>
        <time>2011-04-18T19:17:47Z</time>
      </trkpt>
      <trkpt lat="35.81389" lon="-5.72952">
        <ele>84.446</ele>
        <time>2011-04-18T19:18:30Z</time>
      </trkpt>
      <trkpt lat="35.812" lon="-5.73813">
        <ele>88.825</ele>
        <time>2011-04-18T19:19:27Z</time>
      </trkpt>
      <trkpt lat="35.80649" lon="-5.7425">
        <ele>72.146</ele>
        <time>2011-04-18T19:20:24Z</time>
      </trkpt>
      <trkpt lat="35.80062" lon="-5.74408">
        <ele>77.571</ele>
        <time>2011-04-18T19:21:25Z</time>
      </trkpt>
      <trkpt lat="35.79577" lon="-5.74712">
        <ele>81.189</ele>
        <time>2011-04-18T19:22:21Z</time>
      </trkpt>
      <trkpt lat="35.79125" lon="-5.75274">
        <ele>57.994</ele>
        <time>2011-04-18T19:23:41Z</time>
      </trkpt>
      <trkpt lat="35.78662" lon="-5.75559">
        <ele>15.83</ele>
        <time>2011-04-18T19:25:31Z</time>
      </trkpt>
      <trkpt lat="35.7873" lon="-5.75923">
        <ele>8.023</ele>
        <time>2011-04-18T19:27:04Z</time>
      </trkpt>
      <trkpt lat="35.77498" lon="-5.78137">
        <ele>-0.424</ele>
        <time>2011-04-18T19:31:21Z</time>
      </trkpt>
      <trkpt lat="35.77662" lon="-5.79587">
        <ele>-0.339</ele>
        <time>2011-04-18T19:35:09Z</time>
      </trkpt>
      <trkpt lat="35.76959" lon="-5.80348">
        <ele>2.711</ele>
        <time>2011-04-18T19:52:48Z</time>
      </trkpt>
      <trkpt lat="35.77182" lon="-5.79855">
        <ele>-1.246</ele>
        <time>2011-04-18T19:53:50Z</time>
      </trkpt>
      <trkpt lat="35.77238" lon="-5.78725">
        <ele>1.985</ele>
        <time>2011-04-18T19:55:49Z</time>
      </trkpt>
      <trkpt lat="35.7726" lon="-5.78201">
        <ele>17.001</ele>
        <time>2011-04-19T07:52:23Z</time>
      </trkpt>
      <trkpt lat="35.77244" lon="-5.78623">
        <ele>12.258</ele>
        <time>2011-04-19T09:16:44Z</time>
      </trkpt>
      <trkpt lat="35.77184" lon="-5.79749">
        <ele>11.922</ele>
        <time>2011-04-19T09:18:28Z</time>
      </trkpt>
      <trkpt lat="35.77052" lon="-5.80163">
        <ele>11.181</ele>
        <time>2011-04-19T09:24:31Z</time>
      </trkpt>
      <trkpt lat="35.76638" lon="-5.79939">
        <ele>23.548</ele>
        <time>2011-04-19T09:26:00Z</time>
      </trkpt>
      <trkpt lat="35.76276" lon="-5.79593">
        <ele>13.252</ele>
        <time>2011-04-19T09:26:51Z</time>
      </trkpt>
      <trkpt lat="35.74761" lon="-5.78581">
        <ele>10.746</ele>
        <time>2011-04-19T09:30:05Z</time>
      </trkpt>
      <trkpt lat="35.73756" lon="-5.76791">
        <ele>18.498</ele>
        <time>2011-04-19T09:32:17Z</time>
      </trkpt>
      <trkpt lat="35.73135" lon="-5.76385">
        <ele>19.742</ele>
        <time>2011-04-19T09:33:09Z</time>
      </trkpt>
      <trkpt lat="35.72813" lon="-5.75607">
        <ele>27.119</ele>
        <time>2011-04-19T09:34:01Z</time>
      </trkpt>
      <trkpt lat="35.72675" lon="-5.74346">
        <ele>36.148</ele>
        <time>2011-04-19T09:35:07Z</time>
      </trkpt>
      <trkpt lat="35.72237" lon="-5.73706">
        <ele>43.07</ele>
        <time>2011-04-19T09:35:55Z</time>
      </trkpt>
      <trkpt lat="35.71546" lon="-5.73385">
        <ele>51.78</ele>
        <time>2011-04-19T09:36:35Z</time>
      </trkpt>
      <trkpt lat="35.7085" lon="-5.73293">
        <ele>73.907</ele>
        <time>2011-04-19T09:37:18Z</time>
      </trkpt>
      <trkpt lat="35.70207" lon="-5.72922">
        <ele>87.195</ele>
        <time>2011-04-19T09:37:53Z</time>
      </trkpt>
      <trkpt lat="35.69476" lon="-5.72648">
        <ele>105.972</ele>
        <time>2011-04-19T09:38:26Z</time>
      </trkpt>
      <trkpt lat="35.68718" lon="-5.72358">
        <ele>79.783</ele>
        <time>2011-04-19T09:39:03Z</time>
      </trkpt>
      <trkpt lat="35.6821" lon="-5.71741">
        <ele>73.273</ele>
        <time>2011-04-19T09:39:37Z</time>
      </trkpt>
      <trkpt lat="35.6772" lon="-5.70469">
        <ele>59.295</ele>
        <time>2011-04-19T09:40:39Z</time>
      </trkpt>
      <trkpt lat="35.67401" lon="-5.70036">
        <ele>67.792</ele>
        <time>2011-04-19T09:41:08Z</time>
      </trkpt>
      <trkpt lat="35.66674" lon="-5.69687">
        <ele>88.364</ele>
        <time>2011-04-19T09:41:43Z</time>
      </trkpt>
      <trkpt lat="35.66177" lon="-5.69707">
        <ele>112.308</ele>
        <time>2011-04-19T09:42:05Z</time>
      </trkpt>
      <trkpt lat="35.65426" lon="-5.68846">
        <ele>70.432</ele>
        <time>2011-04-19T09:43:10Z</time>
      </trkpt>
      <trkpt lat="35.64401" lon="-5.68738">
        <ele>62.079</ele>
        <time>2011-04-19T09:43:55Z</time>
      </trkpt>
      <trkpt lat="35.63999" lon="-5.68452">
        <ele>83.81</ele>
        <time>2011-04-19T09:44:17Z</time>
      </trkpt>
      <trkpt lat="35.63284" lon="-5.67984">
        <ele>74.172</ele>
        <time>2011-04-19T09:45:01Z</time>
      </trkpt>
      <trkpt lat="35.63044" lon="-5.67499">
        <ele>67.968</ele>
        <time>2011-04-19T09:45:21Z</time>
      </trkpt>
      <trkpt lat="35.6103" lon="-5.6623">
        <ele>69.086</ele>
        <time>2011-04-19T09:46:57Z</time>
      </trkpt>
      <trkpt lat="35.59907" lon="-5.65149">
        <ele>79.599</ele>
        <time>2011-04-19T09:48:08Z</time>
      </trkpt>
      <trkpt lat="35.58908" lon="-5.64373">
        <ele>87.826</ele>
        <time>2011-04-19T09:48:59Z</time>
      </trkpt>
      <trkpt lat="35.58423" lon="-5.64022">
        <ele>81</ele>
        <time>2011-04-19T09:49:43Z</time>
      </trkpt>
      <trkpt lat="35.5755" lon="-5.62892">
        <ele>98.573</ele>
        <time>2011-04-19T09:50:44Z</time>
      </trkpt>
      <trkpt lat="35.57026" lon="-5.62445">
        <ele>110.419</ele>
        <time>2011-04-19T09:51:13Z</time>
      </trkpt>
      <trkpt lat="35.5683" lon="-5.61706">
        <ele>103.281</ele>
        <time>2011-04-19T09:51:48Z</time>
      </trkpt>
      <trkpt lat="35.56773" lon="-5.60915">
        <ele>126.274</ele>
        <time>2011-04-19T09:52:22Z</time>
      </trkpt>
      <trkpt lat="35.56426" lon="-5.6051">
        <ele>146.893</ele>
        <time>2011-04-19T09:52:44Z</time>
      </trkpt>
      <trkpt lat="35.56629" lon="-5.59045">
        <ele>217.197</ele>
        <time>2011-04-19T09:53:52Z</time>
      </trkpt>
      <trkpt lat="35.56481" lon="-5.58467">
        <ele>239.262</ele>
        <time>2011-04-19T09:54:24Z</time>
      </trkpt>
      <trkpt lat="35.55957" lon="-5.58329">
        <ele>268.056</ele>
        <time>2011-04-19T09:54:59Z</time>
      </trkpt>
      <trkpt lat="35.56033" lon="-5.57776">
        <ele>312.606</ele>
        <time>2011-04-19T09:55:39Z</time>
      </trkpt>
      <trkpt lat="35.56039" lon="-5.57025">
        <ele>315.529</ele>
        <time>2011-04-19T09:56:22Z</time>
      </trkpt>
      <trkpt lat="35.55442" lon="-5.56885">
        <ele>279.749</ele>
        <time>2011-04-19T09:56:59Z</time>
      </trkpt>
      <trkpt lat="35.54718" lon="-5.56488">
        <ele>247.684</ele>
        <time>2011-04-19T09:57:47Z</time>
      </trkpt>
      <trkpt lat="35.54588" lon="-5.55911">
        <ele>219.603</ele>
        <time>2011-04-19T09:58:11Z</time>
      </trkpt>
      <trkpt lat="35.5488" lon="-5.55354">
        <ele>183.919</ele>
        <time>2011-04-19T09:58:51Z</time>
      </trkpt>
      <trkpt lat="35.55042" lon="-5.54456">
        <ele>140.32</ele>
        <time>2011-04-19T09:59:30Z</time>
      </trkpt>
      <trkpt lat="35.54909" lon="-5.53665">
        <ele>104.299</ele>
        <time>2011-04-19T10:00:12Z</time>
      </trkpt>
      <trkpt lat="35.54817" lon="-5.5312">
        <ele>93.667</ele>
        <time>2011-04-19T10:00:39Z</time>
      </trkpt>
      <trkpt lat="35.54971" lon="-5.52439">
        <ele>82.195</ele>
        <time>2011-04-19T10:01:08Z</time>
      </trkpt>
      <trkpt lat="35.55327" lon="-5.51099">
        <ele>67.015</ele>
        <time>2011-04-19T10:02:10Z</time>
      </trkpt>
      <trkpt lat="35.55502" lon="-5.50553">
        <ele>57.66</ele>
        <time>2011-04-19T10:02:32Z</time>
      </trkpt>
      <trkpt lat="35.56099" lon="-5.49798">
        <ele>47.437</ele>
        <time>2011-04-19T10:03:13Z</time>
      </trkpt>
      <trkpt lat="35.56318" lon="-5.48953">
        <ele>59.125</ele>
        <time>2011-04-19T10:03:45Z</time>
      </trkpt>
      <trkpt lat="35.56218" lon="-5.48352">
        <ele>60.122</ele>
        <time>2011-04-19T10:04:08Z</time>
      </trkpt>
      <trkpt lat="35.56093" lon="-5.47217">
        <ele>23.238</ele>
        <time>2011-04-19T10:04:51Z</time>
      </trkpt>
      <trkpt lat="35.55753" lon="-5.44981">
        <ele>24.196</ele>
        <time>2011-04-19T10:06:45Z</time>
      </trkpt>
      <trkpt lat="35.55972" lon="-5.43611">
        <ele>13.112</ele>
        <time>2011-04-19T10:07:53Z</time>
      </trkpt>
      <trkpt lat="35.56263" lon="-5.43065">
        <ele>5.409</ele>
        <time>2011-04-19T10:08:27Z</time>
      </trkpt>
      <trkpt lat="35.56413" lon="-5.42455">
        <ele>5.475</ele>
        <time>2011-04-19T10:09:04Z</time>
      </trkpt>
      <trkpt lat="35.56524" lon="-5.41421">
        <ele>3.184</ele>
        <time>2011-04-19T10:10:16Z</time>
      </trkpt>
      <trkpt lat="35.56176" lon="-5.41232">
        <ele>-1.948</ele>
        <time>2011-04-19T10:11:17Z</time>
      </trkpt>
      <trkpt lat="35.55594" lon="-5.41345">
        <ele>4.427</ele>
        <time>2011-04-19T10:12:13Z</time>
      </trkpt>
      <trkpt lat="35.55252" lon="-5.41905">
        <ele>14.936</ele>
        <time>2011-04-19T10:12:57Z</time>
      </trkpt>
      <trkpt lat="35.54685" lon="-5.42435">
        <ele>25.626</ele>
        <time>2011-04-19T10:14:01Z</time>
      </trkpt>
      <trkpt lat="35.53875" lon="-5.42393">
        <ele>35.602</ele>
        <time>2011-04-19T10:15:07Z</time>
      </trkpt>
      <trkpt lat="35.52523" lon="-5.43674">
        <ele>54.809</ele>
        <time>2011-04-19T10:17:12Z</time>
      </trkpt>
      <trkpt lat="35.51984" lon="-5.43571">
        <ele>62.538</ele>
        <time>2011-04-19T10:17:58Z</time>
      </trkpt>
      <trkpt lat="35.51282" lon="-5.4381">
        <ele>69.799</ele>
        <time>2011-04-19T10:18:58Z</time>
      </trkpt>
      <trkpt lat="35.50622" lon="-5.43869">
        <ele>83.427</ele>
        <time>2011-04-19T10:19:50Z</time>
      </trkpt>
      <trkpt lat="35.49976" lon="-5.43504">
        <ele>97.504</ele>
        <time>2011-04-19T10:20:45Z</time>
      </trkpt>
      <trkpt lat="35.49617" lon="-5.42974">
        <ele>108.704</ele>
        <time>2011-04-19T10:21:37Z</time>
      </trkpt>
      <trkpt lat="35.49223" lon="-5.42456">
        <ele>124.586</ele>
        <time>2011-04-19T10:22:15Z</time>
      </trkpt>
      <trkpt lat="35.48739" lon="-5.42067">
        <ele>136.052</ele>
        <time>2011-04-19T10:22:54Z</time>
      </trkpt>
      <trkpt lat="35.48483" lon="-5.41457">
        <ele>150.114</ele>
        <time>2011-04-19T10:23:27Z</time>
      </trkpt>
      <trkpt lat="35.48031" lon="-5.40899">
        <ele>159.498</ele>
        <time>2011-04-19T10:24:14Z</time>
      </trkpt>
      <trkpt lat="35.47434" lon="-5.40615">
        <ele>175.976</ele>
        <time>2011-04-19T10:24:58Z</time>
      </trkpt>
      <trkpt lat="35.4677" lon="-5.40349">
        <ele>182.536</ele>
        <time>2011-04-19T10:26:15Z</time>
      </trkpt>
      <trkpt lat="35.45937" lon="-5.40528">
        <ele>202.835</ele>
        <time>2011-04-19T10:27:21Z</time>
      </trkpt>
      <trkpt lat="35.45331" lon="-5.39781">
        <ele>214.854</ele>
        <time>2011-04-19T10:28:44Z</time>
      </trkpt>
      <trkpt lat="35.44972" lon="-5.39664">
        <ele>216.748</ele>
        <time>2011-04-19T10:29:24Z</time>
      </trkpt>
      <trkpt lat="35.44628" lon="-5.39313">
        <ele>243.87</ele>
        <time>2011-04-19T10:30:06Z</time>
      </trkpt>
      <trkpt lat="35.4411" lon="-5.39161">
        <ele>231.28</ele>
        <time>2011-04-19T10:30:45Z</time>
      </trkpt>
      <trkpt lat="35.43579" lon="-5.39084">
        <ele>197.422</ele>
        <time>2011-04-19T10:31:32Z</time>
      </trkpt>
      <trkpt lat="35.42899" lon="-5.39306">
        <ele>200.793</ele>
        <time>2011-04-19T10:32:19Z</time>
      </trkpt>
      <trkpt lat="35.42232" lon="-5.39188">
        <ele>224.017</ele>
        <time>2011-04-19T10:32:53Z</time>
      </trkpt>
      <trkpt lat="35.41677" lon="-5.38614">
        <ele>223.395</ele>
        <time>2011-04-19T10:33:37Z</time>
      </trkpt>
      <trkpt lat="35.41046" lon="-5.38132">
        <ele>249.981</ele>
        <time>2011-04-19T10:34:20Z</time>
      </trkpt>
      <trkpt lat="35.40768" lon="-5.3767">
        <ele>273.251</ele>
        <time>2011-04-19T10:34:57Z</time>
      </trkpt>
      <trkpt lat="35.40108" lon="-5.3744">
        <ele>315.927</ele>
        <time>2011-04-19T10:35:44Z</time>
      </trkpt>
      <trkpt lat="35.38966" lon="-5.37308">
        <ele>400.763</ele>
        <time>2011-04-19T10:37:23Z</time>
      </trkpt>
      <trkpt lat="35.38268" lon="-5.3736">
        <ele>440.871</ele>
        <time>2011-04-19T10:38:53Z</time>
      </trkpt>
      <trkpt lat="35.37851" lon="-5.37393">
        <ele>457.481</ele>
        <time>2011-04-19T10:45:52Z</time>
      </trkpt>
      <trkpt lat="35.37377" lon="-5.37258">
        <ele>468.98</ele>
        <time>2011-04-19T10:46:28Z</time>
      </trkpt>
      <trkpt lat="35.36694" lon="-5.37266">
        <ele>485.335</ele>
        <time>2011-04-19T10:47:32Z</time>
      </trkpt>
      <trkpt lat="35.36168" lon="-5.3716">
        <ele>510.361</ele>
        <time>2011-04-19T10:48:13Z</time>
      </trkpt>
      <trkpt lat="35.35156" lon="-5.36936">
        <ele>554.577</ele>
        <time>2011-04-19T10:49:22Z</time>
      </trkpt>
      <trkpt lat="35.34269" lon="-5.36907">
        <ele>600.808</ele>
        <time>2011-04-19T10:50:42Z</time>
      </trkpt>
      <trkpt lat="35.33984" lon="-5.36423">
        <ele>633.201</ele>
        <time>2011-04-19T10:51:26Z</time>
      </trkpt>
      <trkpt lat="35.33602" lon="-5.36097">
        <ele>622.228</ele>
        <time>2011-04-19T10:52:01Z</time>
      </trkpt>
      <trkpt lat="35.32335" lon="-5.35845">
        <ele>590.861</ele>
        <time>2011-04-19T10:53:22Z</time>
      </trkpt>
      <trkpt lat="35.31302" lon="-5.3541">
        <ele>582.582</ele>
        <time>2011-04-19T10:54:41Z</time>
      </trkpt>
      <trkpt lat="35.30826" lon="-5.35193">
        <ele>553.628</ele>
        <time>2011-04-19T10:55:24Z</time>
      </trkpt>
      <trkpt lat="35.30265" lon="-5.34912">
        <ele>553.191</ele>
        <time>2011-04-19T10:56:04Z</time>
      </trkpt>
      <trkpt lat="35.29739" lon="-5.35068">
        <ele>562.801</ele>
        <time>2011-04-19T10:56:40Z</time>
      </trkpt>
      <trkpt lat="35.2927" lon="-5.34927">
        <ele>539.087</ele>
        <time>2011-04-19T10:57:11Z</time>
      </trkpt>
      <trkpt lat="35.28567" lon="-5.34884">
        <ele>492.863</ele>
        <time>2011-04-19T10:57:56Z</time>
      </trkpt>
      <trkpt lat="35.28099" lon="-5.35209">
        <ele>465.966</ele>
        <time>2011-04-19T10:58:32Z</time>
      </trkpt>
      <trkpt lat="35.27564" lon="-5.34822">
        <ele>432.337</ele>
        <time>2011-04-19T10:59:16Z</time>
      </trkpt>
      <trkpt lat="35.27159" lon="-5.35058">
        <ele>403.684</ele>
        <time>2011-04-19T10:59:48Z</time>
      </trkpt>
      <trkpt lat="35.26717" lon="-5.3488">
        <ele>379.13</ele>
        <time>2011-04-19T11:00:21Z</time>
      </trkpt>
      <trkpt lat="35.2616" lon="-5.34629">
        <ele>374.278</ele>
        <time>2011-04-19T11:01:09Z</time>
      </trkpt>
      <trkpt lat="35.25651" lon="-5.34149">
        <ele>322.136</ele>
        <time>2011-04-19T11:02:01Z</time>
      </trkpt>
      <trkpt lat="35.24433" lon="-5.32978">
        <ele>296.191</ele>
        <time>2011-04-19T11:03:36Z</time>
      </trkpt>
      <trkpt lat="35.23687" lon="-5.32404">
        <ele>294.807</ele>
        <time>2011-04-19T11:04:29Z</time>
      </trkpt>
      <trkpt lat="35.22915" lon="-5.32251">
        <ele>275.292</ele>
        <time>2011-04-19T11:05:19Z</time>
      </trkpt>
      <trkpt lat="35.22467" lon="-5.32173">
        <ele>275.918</ele>
        <time>2011-04-19T11:05:48Z</time>
      </trkpt>
      <trkpt lat="35.21998" lon="-5.31515">
        <ele>273.381</ele>
        <time>2011-04-19T11:06:31Z</time>
      </trkpt>
      <trkpt lat="35.21013" lon="-5.31773">
        <ele>268.931</ele>
        <time>2011-04-19T11:07:28Z</time>
      </trkpt>
      <trkpt lat="35.20165" lon="-5.31316">
        <ele>268.891</ele>
        <time>2011-04-19T11:08:26Z</time>
      </trkpt>
      <trkpt lat="35.19417" lon="-5.31004">
        <ele>266.282</ele>
        <time>2011-04-19T11:09:24Z</time>
      </trkpt>
      <trkpt lat="35.19254" lon="-5.3039">
        <ele>295.052</ele>
        <time>2011-04-19T11:10:06Z</time>
      </trkpt>
      <trkpt lat="35.19269" lon="-5.29656">
        <ele>368.567</ele>
        <time>2011-04-19T11:10:59Z</time>
      </trkpt>
      <trkpt lat="35.19203" lon="-5.29104">
        <ele>417.631</ele>
        <time>2011-04-19T11:11:42Z</time>
      </trkpt>
      <trkpt lat="35.18853" lon="-5.2857">
        <ele>467.592</ele>
        <time>2011-04-19T11:12:45Z</time>
      </trkpt>
      <trkpt lat="35.18368" lon="-5.28439">
        <ele>496.517</ele>
        <time>2011-04-19T11:13:26Z</time>
      </trkpt>
      <trkpt lat="35.17906" lon="-5.28361">
        <ele>514.987</ele>
        <time>2011-04-19T11:14:27Z</time>
      </trkpt>
      <trkpt lat="35.17437" lon="-5.27881">
        <ele>538.609</ele>
        <time>2011-04-19T11:15:31Z</time>
      </trkpt>
      <trkpt lat="35.17304" lon="-5.27316">
        <ele>542.97</ele>
        <time>2011-04-19T11:16:23Z</time>
      </trkpt>
      <trkpt lat="35.16807" lon="-5.26924">
        <ele>554.795</ele>
        <time>2011-04-19T11:18:03Z</time>
      </trkpt>
      <trkpt lat="35.16595" lon="-5.26231">
        <ele>552.147</ele>
        <time>2011-04-19T14:14:49Z</time>
      </trkpt>
      <trkpt lat="35.15947" lon="-5.26154">
        <ele>595.909</ele>
        <time>2011-04-19T14:15:56Z</time>
      </trkpt>
      <trkpt lat="35.15502" lon="-5.26423">
        <ele>598.725</ele>
        <time>2011-04-19T14:16:52Z</time>
      </trkpt>
      <trkpt lat="35.15256" lon="-5.26814">
        <ele>614.24</ele>
        <time>2011-04-19T14:17:45Z</time>
      </trkpt>
      <trkpt lat="35.14945" lon="-5.27313">
        <ele>582.243</ele>
        <time>2011-04-19T14:19:08Z</time>
      </trkpt>
      <trkpt lat="35.14544" lon="-5.27235">
        <ele>567.454</ele>
        <time>2011-04-19T14:19:51Z</time>
      </trkpt>
      <trkpt lat="35.14079" lon="-5.27316">
        <ele>547.435</ele>
        <time>2011-04-19T14:20:33Z</time>
      </trkpt>
      <trkpt lat="35.13629" lon="-5.28183">
        <ele>500.117</ele>
        <time>2011-04-19T14:21:48Z</time>
      </trkpt>
      <trkpt lat="35.13306" lon="-5.28569">
        <ele>468.986</ele>
        <time>2011-04-19T14:22:20Z</time>
      </trkpt>
      <trkpt lat="35.12642" lon="-5.28758">
        <ele>411.689</ele>
        <time>2011-04-19T14:23:12Z</time>
      </trkpt>
      <trkpt lat="35.11981" lon="-5.28892">
        <ele>377.071</ele>
        <time>2011-04-19T14:24:07Z</time>
      </trkpt>
      <trkpt lat="35.11462" lon="-5.28796">
        <ele>381.739</ele>
        <time>2011-04-19T14:25:07Z</time>
      </trkpt>
      <trkpt lat="35.10566" lon="-5.2904">
        <ele>404.008</ele>
        <time>2011-04-19T14:26:34Z</time>
      </trkpt>
      <trkpt lat="35.10139" lon="-5.29611">
        <ele>427.088</ele>
        <time>2011-04-19T14:27:26Z</time>
      </trkpt>
      <trkpt lat="35.09736" lon="-5.30188">
        <ele>466.348</ele>
        <time>2011-04-19T14:28:05Z</time>
      </trkpt>
      <trkpt lat="35.09527" lon="-5.30966">
        <ele>440.663</ele>
        <time>2011-04-19T14:29:07Z</time>
      </trkpt>
      <trkpt lat="35.08659" lon="-5.30702">
        <ele>393.534</ele>
        <time>2011-04-19T14:30:42Z</time>
      </trkpt>
      <trkpt lat="35.07955" lon="-5.31056">
        <ele>335.576</ele>
        <time>2011-04-19T14:31:54Z</time>
      </trkpt>
      <trkpt lat="35.07525" lon="-5.31375">
        <ele>289.018</ele>
        <time>2011-04-19T14:32:34Z</time>
      </trkpt>
      <trkpt lat="35.07382" lon="-5.32151">
        <ele>270.642</ele>
        <time>2011-04-19T14:33:22Z</time>
      </trkpt>
      <trkpt lat="35.06917" lon="-5.32698">
        <ele>273.532</ele>
        <time>2011-04-19T14:34:03Z</time>
      </trkpt>
      <trkpt lat="35.06333" lon="-5.33342">
        <ele>247.207</ele>
        <time>2011-04-19T14:34:55Z</time>
      </trkpt>
      <trkpt lat="35.05889" lon="-5.33602">
        <ele>238.144</ele>
        <time>2011-04-19T14:35:23Z</time>
      </trkpt>
      <trkpt lat="35.05568" lon="-5.34191">
        <ele>243.024</ele>
        <time>2011-04-19T14:35:53Z</time>
      </trkpt>
      <trkpt lat="35.05233" lon="-5.34791">
        <ele>222.007</ele>
        <time>2011-04-19T14:36:26Z</time>
      </trkpt>
      <trkpt lat="35.04733" lon="-5.35304">
        <ele>214.752</ele>
        <time>2011-04-19T14:37:06Z</time>
      </trkpt>
      <trkpt lat="35.04079" lon="-5.35965">
        <ele>204.856</ele>
        <time>2011-04-19T14:38:09Z</time>
      </trkpt>
      <trkpt lat="35.02775" lon="-5.37143">
        <ele>198.323</ele>
        <time>2011-04-19T14:39:47Z</time>
      </trkpt>
      <trkpt lat="35.02563" lon="-5.38158">
        <ele>186.229</ele>
        <time>2011-04-19T14:40:40Z</time>
      </trkpt>
      <trkpt lat="35.02626" lon="-5.3905">
        <ele>184.391</ele>
        <time>2011-04-19T14:41:24Z</time>
      </trkpt>
      <trkpt lat="35.02961" lon="-5.39665">
        <ele>199.716</ele>
        <time>2011-04-19T14:42:02Z</time>
      </trkpt>
      <trkpt lat="35.02664" lon="-5.40941">
        <ele>168.8</ele>
        <time>2011-04-19T14:43:52Z</time>
      </trkpt>
      <trkpt lat="35.02248" lon="-5.4121">
        <ele>201.53</ele>
        <time>2011-04-19T14:44:33Z</time>
      </trkpt>
      <trkpt lat="35.02177" lon="-5.42156">
        <ele>153.892</ele>
        <time>2011-04-19T14:45:27Z</time>
      </trkpt>
      <trkpt lat="35.02703" lon="-5.43133">
        <ele>157.907</ele>
        <time>2011-04-19T14:46:32Z</time>
      </trkpt>
      <trkpt lat="35.02843" lon="-5.43844">
        <ele>160.727</ele>
        <time>2011-04-19T14:47:09Z</time>
      </trkpt>
      <trkpt lat="35.03277" lon="-5.44652">
        <ele>168.141</ele>
        <time>2011-04-19T14:48:03Z</time>
      </trkpt>
      <trkpt lat="35.03488" lon="-5.45329">
        <ele>149.237</ele>
        <time>2011-04-19T14:48:42Z</time>
      </trkpt>
      <trkpt lat="35.03943" lon="-5.46389">
        <ele>143.971</ele>
        <time>2011-04-19T14:49:38Z</time>
      </trkpt>
      <trkpt lat="35.03482" lon="-5.46954">
        <ele>135.352</ele>
        <time>2011-04-19T14:50:17Z</time>
      </trkpt>
      <trkpt lat="35.03082" lon="-5.47647">
        <ele>163.082</ele>
        <time>2011-04-19T14:51:12Z</time>
      </trkpt>
      <trkpt lat="35.02638" lon="-5.47835">
        <ele>204.132</ele>
        <time>2011-04-19T14:51:45Z</time>
      </trkpt>
      <trkpt lat="35.02212" lon="-5.47631">
        <ele>241.854</ele>
        <time>2011-04-19T14:52:14Z</time>
      </trkpt>
      <trkpt lat="35.01798" lon="-5.47986">
        <ele>219.18</ele>
        <time>2011-04-19T14:53:01Z</time>
      </trkpt>
      <trkpt lat="35.01586" lon="-5.48483">
        <ele>183.747</ele>
        <time>2011-04-19T14:53:28Z</time>
      </trkpt>
      <trkpt lat="35.0071" lon="-5.49006">
        <ele>152.498</ele>
        <time>2011-04-19T14:54:29Z</time>
      </trkpt>
      <trkpt lat="35.00452" lon="-5.49539">
        <ele>127.693</ele>
        <time>2011-04-19T14:54:57Z</time>
      </trkpt>
      <trkpt lat="35.00325" lon="-5.50112">
        <ele>137.992</ele>
        <time>2011-04-19T14:55:22Z</time>
      </trkpt>
      <trkpt lat="34.99874" lon="-5.5054">
        <ele>116.293</ele>
        <time>2011-04-19T14:55:52Z</time>
      </trkpt>
      <trkpt lat="34.9948" lon="-5.51022">
        <ele>106.522</ele>
        <time>2011-04-19T14:56:32Z</time>
      </trkpt>
      <trkpt lat="34.98839" lon="-5.5137">
        <ele>111.831</ele>
        <time>2011-04-19T14:57:15Z</time>
      </trkpt>
      <trkpt lat="34.98719" lon="-5.51913">
        <ele>129.628</ele>
        <time>2011-04-19T14:57:40Z</time>
      </trkpt>
      <trkpt lat="34.9877" lon="-5.52567">
        <ele>103.925</ele>
        <time>2011-04-19T14:58:13Z</time>
      </trkpt>
      <trkpt lat="34.98795" lon="-5.53865">
        <ele>100.772</ele>
        <time>2011-04-19T14:59:19Z</time>
      </trkpt>
      <trkpt lat="34.98397" lon="-5.54256">
        <ele>112.176</ele>
        <time>2011-04-19T14:59:49Z</time>
      </trkpt>
      <trkpt lat="34.97828" lon="-5.54548">
        <ele>112.948</ele>
        <time>2011-04-19T15:00:30Z</time>
      </trkpt>
      <trkpt lat="34.97318" lon="-5.54408">
        <ele>105.032</ele>
        <time>2011-04-19T15:01:12Z</time>
      </trkpt>
      <trkpt lat="34.96319" lon="-5.54078">
        <ele>107.136</ele>
        <time>2011-04-19T15:02:15Z</time>
      </trkpt>
      <trkpt lat="34.95929" lon="-5.5373">
        <ele>106.19</ele>
        <time>2011-04-19T15:02:42Z</time>
      </trkpt>
      <trkpt lat="34.95802" lon="-5.53085">
        <ele>113.13</ele>
        <time>2011-04-19T15:03:15Z</time>
      </trkpt>
      <trkpt lat="34.95174" lon="-5.52822">
        <ele>155.213</ele>
        <time>2011-04-19T15:03:55Z</time>
      </trkpt>
      <trkpt lat="34.94398" lon="-5.53117">
        <ele>136.819</ele>
        <time>2011-04-19T15:04:40Z</time>
      </trkpt>
      <trkpt lat="34.93972" lon="-5.53476">
        <ele>150.197</ele>
        <time>2011-04-19T15:05:12Z</time>
      </trkpt>
      <trkpt lat="34.93134" lon="-5.53252">
        <ele>144.318</ele>
        <time>2011-04-19T15:06:11Z</time>
      </trkpt>
      <trkpt lat="34.92533" lon="-5.53373">
        <ele>132.075</ele>
        <time>2011-04-19T15:06:50Z</time>
      </trkpt>
      <trkpt lat="34.9214" lon="-5.53899">
        <ele>136.386</ele>
        <time>2011-04-19T15:07:28Z</time>
      </trkpt>
      <trkpt lat="34.91637" lon="-5.5395">
        <ele>139.434</ele>
        <time>2011-04-19T15:08:04Z</time>
      </trkpt>
      <trkpt lat="34.90931" lon="-5.53644">
        <ele>148.583</ele>
        <time>2011-04-19T15:08:51Z</time>
      </trkpt>
      <trkpt lat="34.90495" lon="-5.53388">
        <ele>168.034</ele>
        <time>2011-04-19T15:09:18Z</time>
      </trkpt>
      <trkpt lat="34.90056" lon="-5.53125">
        <ele>158.802</ele>
        <time>2011-04-19T15:09:46Z</time>
      </trkpt>
      <trkpt lat="34.88962" lon="-5.5367">
        <ele>165.735</ele>
        <time>2011-04-19T15:10:52Z</time>
      </trkpt>
      <trkpt lat="34.88498" lon="-5.54048">
        <ele>164.339</ele>
        <time>2011-04-19T15:11:35Z</time>
      </trkpt>
      <trkpt lat="34.87982" lon="-5.54038">
        <ele>193.656</ele>
        <time>2011-04-19T15:12:04Z</time>
      </trkpt>
      <trkpt lat="34.86328" lon="-5.53753">
        <ele>194.292</ele>
        <time>2011-04-19T15:13:24Z</time>
      </trkpt>
      <trkpt lat="34.84248" lon="-5.5398">
        <ele>209.139</ele>
        <time>2011-04-19T15:15:12Z</time>
      </trkpt>
      <trkpt lat="34.83531" lon="-5.54242">
        <ele>220.347</ele>
        <time>2011-04-19T15:15:54Z</time>
      </trkpt>
      <trkpt lat="34.83015" lon="-5.54589">
        <ele>242.734</ele>
        <time>2011-04-19T15:16:22Z</time>
      </trkpt>
      <trkpt lat="34.82567" lon="-5.54959">
        <ele>242.466</ele>
        <time>2011-04-19T15:16:52Z</time>
      </trkpt>
      <trkpt lat="34.81891" lon="-5.55036">
        <ele>264.854</ele>
        <time>2011-04-19T15:17:33Z</time>
      </trkpt>
      <trkpt lat="34.81099" lon="-5.56287">
        <ele>260.308</ele>
        <time>2011-04-19T15:18:48Z</time>
      </trkpt>
      <trkpt lat="34.8053" lon="-5.56929">
        <ele>280.776</ele>
        <time>2011-04-19T15:21:39Z</time>
      </trkpt>
      <trkpt lat="34.79977" lon="-5.56908">
        <ele>270.148</ele>
        <time>2011-04-19T15:22:31Z</time>
      </trkpt>
      <trkpt lat="34.79758" lon="-5.56454">
        <ele>282.505</ele>
        <time>2011-04-19T15:33:46Z</time>
      </trkpt>
      <trkpt lat="34.79582" lon="-5.55827">
        <ele>258.835</ele>
        <time>2011-04-19T15:34:30Z</time>
      </trkpt>
      <trkpt lat="34.78651" lon="-5.55259">
        <ele>208.325</ele>
        <time>2011-04-19T15:35:27Z</time>
      </trkpt>
      <trkpt lat="34.78209" lon="-5.5453">
        <ele>195.181</ele>
        <time>2011-04-19T15:36:20Z</time>
      </trkpt>
      <trkpt lat="34.77591" lon="-5.54631">
        <ele>193.93</ele>
        <time>2011-04-19T15:37:00Z</time>
      </trkpt>
      <trkpt lat="34.7635" lon="-5.54176">
        <ele>185.568</ele>
        <time>2011-04-19T15:38:18Z</time>
      </trkpt>
      <trkpt lat="34.75007" lon="-5.54094">
        <ele>172.923</ele>
        <time>2011-04-19T15:39:28Z</time>
      </trkpt>
      <trkpt lat="34.74434" lon="-5.53902">
        <ele>166.827</ele>
        <time>2011-04-19T15:40:00Z</time>
      </trkpt>
      <trkpt lat="34.73745" lon="-5.54359">
        <ele>171.795</ele>
        <time>2011-04-19T15:40:44Z</time>
      </trkpt>
      <trkpt lat="34.72709" lon="-5.54907">
        <ele>146.849</ele>
        <time>2011-04-19T15:42:17Z</time>
      </trkpt>
      <trkpt lat="34.71127" lon="-5.55189">
        <ele>145.533</ele>
        <time>2011-04-19T15:43:37Z</time>
      </trkpt>
      <trkpt lat="34.70612" lon="-5.55518">
        <ele>157.652</ele>
        <time>2011-04-19T15:44:05Z</time>
      </trkpt>
      <trkpt lat="34.69773" lon="-5.5717">
        <ele>125.305</ele>
        <time>2011-04-19T15:45:21Z</time>
      </trkpt>
      <trkpt lat="34.69351" lon="-5.575">
        <ele>122.921</ele>
        <time>2011-04-19T15:45:49Z</time>
      </trkpt>
      <trkpt lat="34.68983" lon="-5.57182">
        <ele>126.9</ele>
        <time>2011-04-19T15:46:18Z</time>
      </trkpt>
      <trkpt lat="34.68409" lon="-5.56681">
        <ele>115.136</ele>
        <time>2011-04-19T15:46:52Z</time>
      </trkpt>
      <trkpt lat="34.67974" lon="-5.55891">
        <ele>122.373</ele>
        <time>2011-04-19T15:47:35Z</time>
      </trkpt>
      <trkpt lat="34.67471" lon="-5.5532">
        <ele>113.075</ele>
        <time>2011-04-19T15:48:10Z</time>
      </trkpt>
      <trkpt lat="34.66876" lon="-5.55336">
        <ele>107.29</ele>
        <time>2011-04-19T15:48:41Z</time>
      </trkpt>
      <trkpt lat="34.64827" lon="-5.54278">
        <ele>101.91</ele>
        <time>2011-04-19T15:50:32Z</time>
      </trkpt>
      <trkpt lat="34.64186" lon="-5.54345">
        <ele>103.49</ele>
        <time>2011-04-19T15:51:08Z</time>
      </trkpt>
      <trkpt lat="34.63711" lon="-5.53388">
        <ele>116.223</ele>
        <time>2011-04-19T15:51:58Z</time>
      </trkpt>
      <trkpt lat="34.63251" lon="-5.53261">
        <ele>109.257</ele>
        <time>2011-04-19T15:55:22Z</time>
      </trkpt>
      <trkpt lat="34.62929" lon="-5.53871">
        <ele>90.905</ele>
        <time>2011-04-19T15:55:51Z</time>
      </trkpt>
      <trkpt lat="34.61806" lon="-5.53489">
        <ele>98.421</ele>
        <time>2011-04-19T15:56:45Z</time>
      </trkpt>
      <trkpt lat="34.61138" lon="-5.53289">
        <ele>112.735</ele>
        <time>2011-04-19T15:57:19Z</time>
      </trkpt>
      <trkpt lat="34.60534" lon="-5.53509">
        <ele>104.046</ele>
        <time>2011-04-19T15:57:49Z</time>
      </trkpt>
      <trkpt lat="34.60164" lon="-5.55243">
        <ele>119.414</ele>
        <time>2011-04-19T15:59:13Z</time>
      </trkpt>
      <trkpt lat="34.59694" lon="-5.55275">
        <ele>137.111</ele>
        <time>2011-04-19T15:59:51Z</time>
      </trkpt>
      <trkpt lat="34.59533" lon="-5.54427">
        <ele>106.094</ele>
        <time>2011-04-19T16:00:46Z</time>
      </trkpt>
      <trkpt lat="34.58992" lon="-5.53932">
        <ele>74.971</ele>
        <time>2011-04-19T16:01:23Z</time>
      </trkpt>
      <trkpt lat="34.58449" lon="-5.53789">
        <ele>71.224</ele>
        <time>2011-04-19T16:01:56Z</time>
      </trkpt>
      <trkpt lat="34.57917" lon="-5.5329">
        <ele>92.649</ele>
        <time>2011-04-19T16:02:37Z</time>
      </trkpt>
      <trkpt lat="34.5678" lon="-5.52765">
        <ele>125.235</ele>
        <time>2011-04-19T16:03:28Z</time>
      </trkpt>
      <trkpt lat="34.55373" lon="-5.52509">
        <ele>109.109</ele>
        <time>2011-04-19T16:04:36Z</time>
      </trkpt>
      <trkpt lat="34.54223" lon="-5.52081">
        <ele>97.56</ele>
        <time>2011-04-19T16:05:30Z</time>
      </trkpt>
      <trkpt lat="34.53686" lon="-5.51551">
        <ele>96.666</ele>
        <time>2011-04-19T16:06:05Z</time>
      </trkpt>
      <trkpt lat="34.5238" lon="-5.50528">
        <ele>132.959</ele>
        <time>2011-04-19T16:07:15Z</time>
      </trkpt>
      <trkpt lat="34.51736" lon="-5.50577">
        <ele>138.556</ele>
        <time>2011-04-19T16:07:41Z</time>
      </trkpt>
      <trkpt lat="34.50344" lon="-5.50723">
        <ele>104.337</ele>
        <time>2011-04-19T16:08:58Z</time>
      </trkpt>
      <trkpt lat="34.49143" lon="-5.51325">
        <ele>64.898</ele>
        <time>2011-04-19T16:10:34Z</time>
      </trkpt>
      <trkpt lat="34.48737" lon="-5.51674">
        <ele>66.841</ele>
        <time>2011-04-19T16:11:32Z</time>
      </trkpt>
      <trkpt lat="34.48305" lon="-5.51874">
        <ele>33.447</ele>
        <time>2011-04-19T16:51:49Z</time>
      </trkpt>
      <trkpt lat="34.46565" lon="-5.5081">
        <ele>43.252</ele>
        <time>2011-04-19T16:53:52Z</time>
      </trkpt>
      <trkpt lat="34.42618" lon="-5.50383">
        <ele>77.739</ele>
        <time>2011-04-19T16:57:32Z</time>
      </trkpt>
      <trkpt lat="34.41451" lon="-5.50473">
        <ele>105.641</ele>
        <time>2011-04-19T16:58:29Z</time>
      </trkpt>
      <trkpt lat="34.4073" lon="-5.50356">
        <ele>104.344</ele>
        <time>2011-04-19T16:59:05Z</time>
      </trkpt>
      <trkpt lat="34.40195" lon="-5.50379">
        <ele>96.006</ele>
        <time>2011-04-19T16:59:32Z</time>
      </trkpt>
      <trkpt lat="34.39599" lon="-5.50121">
        <ele>89.827</ele>
        <time>2011-04-19T17:00:00Z</time>
      </trkpt>
      <trkpt lat="34.38919" lon="-5.49737">
        <ele>62.424</ele>
        <time>2011-04-19T17:00:32Z</time>
      </trkpt>
      <trkpt lat="34.36974" lon="-5.49788">
        <ele>54.141</ele>
        <time>2011-04-19T17:01:56Z</time>
      </trkpt>
      <trkpt lat="34.34304" lon="-5.48718">
        <ele>61.273</ele>
        <time>2011-04-19T17:04:11Z</time>
      </trkpt>
      <trkpt lat="34.33183" lon="-5.49092">
        <ele>74.888</ele>
        <time>2011-04-19T17:05:12Z</time>
      </trkpt>
      <trkpt lat="34.32722" lon="-5.49224">
        <ele>58.248</ele>
        <time>2011-04-19T17:05:40Z</time>
      </trkpt>
      <trkpt lat="34.31706" lon="-5.47916">
        <ele>44.936</ele>
        <time>2011-04-19T17:07:11Z</time>
      </trkpt>
      <trkpt lat="34.30137" lon="-5.46726">
        <ele>84.083</ele>
        <time>2011-04-19T17:08:43Z</time>
      </trkpt>
      <trkpt lat="34.29424" lon="-5.46373">
        <ele>72.721</ele>
        <time>2011-04-19T17:09:16Z</time>
      </trkpt>
      <trkpt lat="34.27439" lon="-5.46082">
        <ele>93.416</ele>
        <time>2011-04-19T17:10:44Z</time>
      </trkpt>
      <trkpt lat="34.2642" lon="-5.46162">
        <ele>63.418</ele>
        <time>2011-04-19T17:11:34Z</time>
      </trkpt>
      <trkpt lat="34.23806" lon="-5.46849">
        <ele>82.505</ele>
        <time>2011-04-19T17:13:25Z</time>
      </trkpt>
      <trkpt lat="34.20685" lon="-5.48566">
        <ele>102.835</ele>
        <time>2011-04-19T17:15:59Z</time>
      </trkpt>
      <trkpt lat="34.20058" lon="-5.48828">
        <ele>107.184</ele>
        <time>2011-04-19T17:16:26Z</time>
      </trkpt>
      <trkpt lat="34.19097" lon="-5.48581">
        <ele>126.361</ele>
        <time>2011-04-19T17:17:06Z</time>
      </trkpt>
      <trkpt lat="34.17736" lon="-5.47814">
        <ele>144.793</ele>
        <time>2011-04-19T17:18:05Z</time>
      </trkpt>
      <trkpt lat="34.15671" lon="-5.46823">
        <ele>219.506</ele>
        <time>2011-04-19T17:19:59Z</time>
      </trkpt>
      <trkpt lat="34.14913" lon="-5.46476">
        <ele>227.02</ele>
        <time>2011-04-19T17:20:38Z</time>
      </trkpt>
      <trkpt lat="34.15006" lon="-5.46964">
        <ele>223.681</ele>
        <time>2011-04-19T17:21:08Z</time>
      </trkpt>
      <trkpt lat="34.15125" lon="-5.47644">
        <ele>192.62</ele>
        <time>2011-04-19T17:21:36Z</time>
      </trkpt>
      <trkpt lat="34.14959" lon="-5.48444">
        <ele>170.669</ele>
        <time>2011-04-19T17:22:07Z</time>
      </trkpt>
      <trkpt lat="34.15152" lon="-5.4928">
        <ele>166.979</ele>
        <time>2011-04-19T17:22:44Z</time>
      </trkpt>
      <trkpt lat="34.14945" lon="-5.4999">
        <ele>189.153</ele>
        <time>2011-04-19T17:23:14Z</time>
      </trkpt>
      <trkpt lat="34.14768" lon="-5.50818">
        <ele>184.51</ele>
        <time>2011-04-19T17:23:49Z</time>
      </trkpt>
      <trkpt lat="34.14754" lon="-5.51321">
        <ele>204.29</ele>
        <time>2011-04-19T17:24:27Z</time>
      </trkpt>
      <trkpt lat="34.14869" lon="-5.51884">
        <ele>236.5</ele>
        <time>2011-04-19T17:25:08Z</time>
      </trkpt>
      <trkpt lat="34.14466" lon="-5.5208">
        <ele>265.512</ele>
        <time>2011-04-19T17:25:47Z</time>
      </trkpt>
      <trkpt lat="34.1488" lon="-5.52454">
        <ele>301.149</ele>
        <time>2011-04-19T17:26:15Z</time>
      </trkpt>
      <trkpt lat="34.15402" lon="-5.52704">
        <ele>324.08</ele>
        <time>2011-04-19T17:26:43Z</time>
      </trkpt>
      <trkpt lat="34.16321" lon="-5.5276">
        <ele>378.33</ele>
        <time>2011-04-19T17:27:56Z</time>
      </trkpt>
      <trkpt lat="34.16749" lon="-5.53127">
        <ele>389.497</ele>
        <time>2011-04-19T17:28:41Z</time>
      </trkpt>
      <trkpt lat="34.16252" lon="-5.53221">
        <ele>415.365</ele>
        <time>2011-04-19T17:29:19Z</time>
      </trkpt>
      <trkpt lat="34.15104" lon="-5.53855">
        <ele>435.723</ele>
        <time>2011-04-19T17:30:26Z</time>
      </trkpt>
      <trkpt lat="34.14411" lon="-5.5438">
        <ele>431.56</ele>
        <time>2011-04-19T17:31:07Z</time>
      </trkpt>
      <trkpt lat="34.1398" lon="-5.5481">
        <ele>428.878</ele>
        <time>2011-04-19T17:31:37Z</time>
      </trkpt>
      <trkpt lat="34.13005" lon="-5.55016">
        <ele>453.999</ele>
        <time>2011-04-19T17:32:37Z</time>
      </trkpt>
      <trkpt lat="34.12386" lon="-5.55069">
        <ele>428.643</ele>
        <time>2011-04-19T17:33:12Z</time>
      </trkpt>
      <trkpt lat="34.11844" lon="-5.55021">
        <ele>414.077</ele>
        <time>2011-04-19T17:33:53Z</time>
      </trkpt>
      <trkpt lat="34.11041" lon="-5.54666">
        <ele>395.111</ele>
        <time>2011-04-19T17:34:57Z</time>
      </trkpt>
      <trkpt lat="34.09934" lon="-5.54759">
        <ele>407.015</ele>
        <time>2011-04-19T17:36:15Z</time>
      </trkpt>
      <trkpt lat="34.08516" lon="-5.54824">
        <ele>407.502</ele>
        <time>2011-04-19T17:37:24Z</time>
      </trkpt>
      <trkpt lat="34.0801" lon="-5.54651">
        <ele>419.301</ele>
        <time>2011-04-19T17:37:59Z</time>
      </trkpt>
      <trkpt lat="34.07117" lon="-5.54236">
        <ele>421.88</ele>
        <time>2011-04-19T17:38:58Z</time>
      </trkpt>
      <trkpt lat="34.0659" lon="-5.53907">
        <ele>414.124</ele>
        <time>2011-04-19T17:39:43Z</time>
      </trkpt>
      <trkpt lat="34.06028" lon="-5.5342">
        <ele>415.375</ele>
        <time>2011-04-19T17:40:27Z</time>
      </trkpt>
      <trkpt lat="34.05348" lon="-5.53259">
        <ele>393.601</ele>
        <time>2011-04-19T17:41:13Z</time>
      </trkpt>
      <trkpt lat="34.05249" lon="-5.53814">
        <ele>433.531</ele>
        <time>2011-04-19T17:41:44Z</time>
      </trkpt>
      <trkpt lat="34.05201" lon="-5.54552">
        <ele>421.135</ele>
        <time>2011-04-19T17:42:21Z</time>
      </trkpt>
      <trkpt lat="34.04897" lon="-5.55048">
        <ele>438.955</ele>
        <time>2011-04-19T17:42:47Z</time>
      </trkpt>
      <trkpt lat="34.04675" lon="-5.56072">
        <ele>462.722</ele>
        <time>2011-04-19T17:43:23Z</time>
      </trkpt>
      <trkpt lat="34.04495" lon="-5.56599">
        <ele>468.112</ele>
        <time>2011-04-19T17:43:44Z</time>
      </trkpt>
      <trkpt lat="34.03946" lon="-5.56859">
        <ele>497.415</ele>
        <time>2011-04-19T17:44:16Z</time>
      </trkpt>
      <trkpt lat="34.03281" lon="-5.57114">
        <ele>521.948</ele>
        <time>2011-04-19T17:44:59Z</time>
      </trkpt>
      <trkpt lat="34.02844" lon="-5.57362">
        <ele>506.256</ele>
        <time>2011-04-19T17:45:32Z</time>
      </trkpt>
      <trkpt lat="34.02409" lon="-5.57552">
        <ele>496.175</ele>
        <time>2011-04-19T17:45:57Z</time>
      </trkpt>
      <trkpt lat="34.0173" lon="-5.5664">
        <ele>440.976</ele>
        <time>2011-04-19T17:47:27Z</time>
      </trkpt>
      <trkpt lat="34.01275" lon="-5.56314">
        <ele>422.037</ele>
        <time>2011-04-19T17:48:02Z</time>
      </trkpt>
      <trkpt lat="34.00925" lon="-5.55908">
        <ele>406.113</ele>
        <time>2011-04-19T17:48:34Z</time>
      </trkpt>
      <trkpt lat="34.00515" lon="-5.55607">
        <ele>379.094</ele>
        <time>2011-04-19T17:49:09Z</time>
      </trkpt>
      <trkpt lat="33.99447" lon="-5.56068">
        <ele>353.997</ele>
        <time>2011-04-19T17:50:04Z</time>
      </trkpt>
      <trkpt lat="33.98191" lon="-5.56285">
        <ele>281.62</ele>
        <time>2011-04-19T17:51:09Z</time>
      </trkpt>
      <trkpt lat="33.97708" lon="-5.57424">
        <ele>302.426</ele>
        <time>2011-04-19T17:52:05Z</time>
      </trkpt>
      <trkpt lat="33.97384" lon="-5.57733">
        <ele>291.308</ele>
        <time>2011-04-19T17:52:51Z</time>
      </trkpt>
      <trkpt lat="33.96895" lon="-5.57511">
        <ele>318.999</ele>
        <time>2011-04-19T17:53:36Z</time>
      </trkpt>
      <trkpt lat="33.96194" lon="-5.57663">
        <ele>287.152</ele>
        <time>2011-04-19T17:54:28Z</time>
      </trkpt>
      <trkpt lat="33.94949" lon="-5.57371">
        <ele>313.648</ele>
        <time>2011-04-19T17:55:44Z</time>
      </trkpt>
      <trkpt lat="33.94464" lon="-5.5685">
        <ele>312.65</ele>
        <time>2011-04-19T17:56:20Z</time>
      </trkpt>
      <trkpt lat="33.93034" lon="-5.56329">
        <ele>359.711</ele>
        <time>2011-04-19T17:57:46Z</time>
      </trkpt>
      <trkpt lat="33.92375" lon="-5.56069">
        <ele>369.968</ele>
        <time>2011-04-19T17:58:38Z</time>
      </trkpt>
      <trkpt lat="33.91924" lon="-5.56128">
        <ele>382.96</ele>
        <time>2011-04-19T17:59:31Z</time>
      </trkpt>
      <trkpt lat="33.90979" lon="-5.55679">
        <ele>449.136</ele>
        <time>2011-04-19T18:01:01Z</time>
      </trkpt>
      <trkpt lat="33.89994" lon="-5.55399">
        <ele>497.872</ele>
        <time>2011-04-19T18:03:11Z</time>
      </trkpt>
      <trkpt lat="33.89515" lon="-5.55102">
        <ele>512.241</ele>
        <time>2011-04-19T18:05:01Z</time>
      </trkpt>
      <trkpt lat="33.89616" lon="-5.54564">
        <ele>519.549</ele>
        <time>2011-04-19T18:06:18Z</time>
      </trkpt>
      <trkpt lat="33.89815" lon="-5.54435">
        <ele>537.153</ele>
        <time>2011-04-20T08:39:32Z</time>
      </trkpt>
      <trkpt lat="33.90053" lon="-5.54877">
        <ele>528.418</ele>
        <time>2011-04-20T08:42:43Z</time>
      </trkpt>
      <trkpt lat="33.89502" lon="-5.55087">
        <ele>532.175</ele>
        <time>2011-04-20T08:45:00Z</time>
      </trkpt>
      <trkpt lat="33.88828" lon="-5.54261">
        <ele>552.883</ele>
        <time>2011-04-20T08:46:47Z</time>
      </trkpt>
      <trkpt lat="33.88255" lon="-5.5348">
        <ele>558.531</ele>
        <time>2011-04-20T08:48:15Z</time>
      </trkpt>
      <trkpt lat="33.87689" lon="-5.53338">
        <ele>547.978</ele>
        <time>2011-04-20T08:49:08Z</time>
      </trkpt>
      <trkpt lat="33.8709" lon="-5.53839">
        <ele>555.59</ele>
        <time>2011-04-20T08:50:38Z</time>
      </trkpt>
      <trkpt lat="33.86554" lon="-5.53556">
        <ele>581.495</ele>
        <time>2011-04-20T08:52:33Z</time>
      </trkpt>
      <trkpt lat="33.86054" lon="-5.53039">
        <ele>594.652</ele>
        <time>2011-04-20T08:54:28Z</time>
      </trkpt>
      <trkpt lat="33.85261" lon="-5.52691">
        <ele>619.768</ele>
        <time>2011-04-20T08:55:52Z</time>
      </trkpt>
      <trkpt lat="33.83602" lon="-5.51859">
        <ele>656.726</ele>
        <time>2011-04-20T09:03:59Z</time>
      </trkpt>
      <trkpt lat="33.83149" lon="-5.5157">
        <ele>652.982</ele>
        <time>2011-04-20T09:04:39Z</time>
      </trkpt>
      <trkpt lat="33.81773" lon="-5.51144">
        <ele>647.085</ele>
        <time>2011-04-20T09:06:09Z</time>
      </trkpt>
      <trkpt lat="33.8059" lon="-5.50536">
        <ele>660.146</ele>
        <time>2011-04-20T09:07:20Z</time>
      </trkpt>
      <trkpt lat="33.80174" lon="-5.50209">
        <ele>663.716</ele>
        <time>2011-04-20T09:07:44Z</time>
      </trkpt>
      <trkpt lat="33.79896" lon="-5.49724">
        <ele>664.564</ele>
        <time>2011-04-20T09:08:18Z</time>
      </trkpt>
      <trkpt lat="33.78683" lon="-5.4918">
        <ele>700.616</ele>
        <time>2011-04-20T09:09:14Z</time>
      </trkpt>
      <trkpt lat="33.77147" lon="-5.48997">
        <ele>724.443</ele>
        <time>2011-04-20T09:10:19Z</time>
      </trkpt>
      <trkpt lat="33.76579" lon="-5.48691">
        <ele>719.316</ele>
        <time>2011-04-20T09:10:47Z</time>
      </trkpt>
      <trkpt lat="33.75319" lon="-5.48414">
        <ele>730.657</ele>
        <time>2011-04-20T09:12:32Z</time>
      </trkpt>
      <trkpt lat="33.74407" lon="-5.47578">
        <ele>739.499</ele>
        <time>2011-04-20T09:13:45Z</time>
      </trkpt>
      <trkpt lat="33.73601" lon="-5.47201">
        <ele>760.444</ele>
        <time>2011-04-20T09:14:26Z</time>
      </trkpt>
      <trkpt lat="33.72668" lon="-5.46297">
        <ele>777.016</ele>
        <time>2011-04-20T09:15:32Z</time>
      </trkpt>
      <trkpt lat="33.71856" lon="-5.45357">
        <ele>782.749</ele>
        <time>2011-04-20T09:16:25Z</time>
      </trkpt>
      <trkpt lat="33.71166" lon="-5.43901">
        <ele>799.401</ele>
        <time>2011-04-20T09:17:27Z</time>
      </trkpt>
      <trkpt lat="33.70825" lon="-5.43227">
        <ele>795.718</ele>
        <time>2011-04-20T09:17:57Z</time>
      </trkpt>
      <trkpt lat="33.70704" lon="-5.42525">
        <ele>793.381</ele>
        <time>2011-04-20T09:18:26Z</time>
      </trkpt>
      <trkpt lat="33.69097" lon="-5.39841">
        <ele>845.149</ele>
        <time>2011-04-20T09:20:37Z</time>
      </trkpt>
      <trkpt lat="33.69069" lon="-5.39265">
        <ele>873.067</ele>
        <time>2011-04-20T09:21:03Z</time>
      </trkpt>
      <trkpt lat="33.69201" lon="-5.38578">
        <ele>889.529</ele>
        <time>2011-04-20T09:22:28Z</time>
      </trkpt>
      <trkpt lat="33.69297" lon="-5.38072">
        <ele>926.703</ele>
        <time>2011-04-20T09:23:00Z</time>
      </trkpt>
      <trkpt lat="33.68914" lon="-5.3759">
        <ele>978.531</ele>
        <time>2011-04-20T09:23:52Z</time>
      </trkpt>
      <trkpt lat="33.6879" lon="-5.37048">
        <ele>1010.116</ele>
        <time>2011-04-20T09:24:31Z</time>
      </trkpt>
      <trkpt lat="33.68326" lon="-5.3729">
        <ele>1039.261</ele>
        <time>2011-04-20T09:25:19Z</time>
      </trkpt>
      <trkpt lat="33.65409" lon="-5.37537">
        <ele>1141.133</ele>
        <time>2011-04-20T09:28:24Z</time>
      </trkpt>
      <trkpt lat="33.64727" lon="-5.37312">
        <ele>1195.579</ele>
        <time>2011-04-20T09:29:01Z</time>
      </trkpt>
      <trkpt lat="33.64161" lon="-5.37219">
        <ele>1212.454</ele>
        <time>2011-04-20T09:29:29Z</time>
      </trkpt>
      <trkpt lat="33.62792" lon="-5.37457">
        <ele>1275.469</ele>
        <time>2011-04-20T09:30:37Z</time>
      </trkpt>
      <trkpt lat="33.62271" lon="-5.37309">
        <ele>1290.789</ele>
        <time>2011-04-20T09:31:04Z</time>
      </trkpt>
      <trkpt lat="33.61868" lon="-5.36977">
        <ele>1283.097</ele>
        <time>2011-04-20T09:31:28Z</time>
      </trkpt>
      <trkpt lat="33.60711" lon="-5.3665">
        <ele>1291.956</ele>
        <time>2011-04-20T09:32:39Z</time>
      </trkpt>
      <trkpt lat="33.59971" lon="-5.36754">
        <ele>1302.053</ele>
        <time>2011-04-20T09:33:16Z</time>
      </trkpt>
      <trkpt lat="33.59119" lon="-5.36482">
        <ele>1326.763</ele>
        <time>2011-04-20T09:33:56Z</time>
      </trkpt>
      <trkpt lat="33.58574" lon="-5.36119">
        <ele>1341.013</ele>
        <time>2011-04-20T09:34:26Z</time>
      </trkpt>
      <trkpt lat="33.57523" lon="-5.35671">
        <ele>1350.325</ele>
        <time>2011-04-20T09:35:28Z</time>
      </trkpt>
      <trkpt lat="33.5609" lon="-5.33997">
        <ele>1352.607</ele>
        <time>2011-04-20T09:37:06Z</time>
      </trkpt>
      <trkpt lat="33.55612" lon="-5.33316">
        <ele>1361.822</ele>
        <time>2011-04-20T09:37:40Z</time>
      </trkpt>
      <trkpt lat="33.5496" lon="-5.32816">
        <ele>1410.278</ele>
        <time>2011-04-20T09:38:19Z</time>
      </trkpt>
      <trkpt lat="33.54163" lon="-5.31473">
        <ele>1433.679</ele>
        <time>2011-04-20T09:54:18Z</time>
      </trkpt>
      <trkpt lat="33.53555" lon="-5.31085">
        <ele>1452.966</ele>
        <time>2011-04-20T09:54:51Z</time>
      </trkpt>
      <trkpt lat="33.53169" lon="-5.30607">
        <ele>1450.754</ele>
        <time>2011-04-20T09:55:18Z</time>
      </trkpt>
      <trkpt lat="33.51988" lon="-5.30335">
        <ele>1446.354</ele>
        <time>2011-04-20T09:56:12Z</time>
      </trkpt>
      <trkpt lat="33.51524" lon="-5.30139">
        <ele>1437.611</ele>
        <time>2011-04-20T09:56:38Z</time>
      </trkpt>
      <trkpt lat="33.51073" lon="-5.30184">
        <ele>1438.363</ele>
        <time>2011-04-20T09:57:03Z</time>
      </trkpt>
      <trkpt lat="33.5051" lon="-5.29548">
        <ele>1425.413</ele>
        <time>2011-04-20T09:57:43Z</time>
      </trkpt>
      <trkpt lat="33.50179" lon="-5.2914">
        <ele>1425.013</ele>
        <time>2011-04-20T09:58:12Z</time>
      </trkpt>
      <trkpt lat="33.50202" lon="-5.28154">
        <ele>1425.166</ele>
        <time>2011-04-20T09:58:55Z</time>
      </trkpt>
      <trkpt lat="33.49829" lon="-5.27461">
        <ele>1430.808</ele>
        <time>2011-04-20T09:59:29Z</time>
      </trkpt>
      <trkpt lat="33.49653" lon="-5.26921">
        <ele>1424.663</ele>
        <time>2011-04-20T09:59:54Z</time>
      </trkpt>
      <trkpt lat="33.49794" lon="-5.26065">
        <ele>1362.098</ele>
        <time>2011-04-20T10:00:56Z</time>
      </trkpt>
      <trkpt lat="33.49402" lon="-5.2634">
        <ele>1323.002</ele>
        <time>2011-04-20T10:01:47Z</time>
      </trkpt>
      <trkpt lat="33.48601" lon="-5.26152">
        <ele>1274.345</ele>
        <time>2011-04-20T10:02:42Z</time>
      </trkpt>
      <trkpt lat="33.47801" lon="-5.25274">
        <ele>1237.821</ele>
        <time>2011-04-20T10:03:47Z</time>
      </trkpt>
      <trkpt lat="33.47258" lon="-5.2449">
        <ele>1228.071</ele>
        <time>2011-04-20T10:04:41Z</time>
      </trkpt>
      <trkpt lat="33.4685" lon="-5.2429">
        <ele>1224.135</ele>
        <time>2011-04-20T10:05:12Z</time>
      </trkpt>
      <trkpt lat="33.46138" lon="-5.23968">
        <ele>1231.068</ele>
        <time>2011-04-20T10:06:12Z</time>
      </trkpt>
      <trkpt lat="33.45561" lon="-5.23649">
        <ele>1223.712</ele>
        <time>2011-04-20T10:06:59Z</time>
      </trkpt>
      <trkpt lat="33.44366" lon="-5.22811">
        <ele>1239.587</ele>
        <time>2011-04-20T10:10:03Z</time>
      </trkpt>
      <trkpt lat="33.43743" lon="-5.2229">
        <ele>1269.535</ele>
        <time>2011-04-20T10:11:36Z</time>
      </trkpt>
      <trkpt lat="33.43873" lon="-5.21364">
        <ele>1327.217</ele>
        <time>2011-04-20T10:13:07Z</time>
      </trkpt>
      <trkpt lat="33.43739" lon="-5.20834">
        <ele>1362.199</ele>
        <time>2011-04-20T10:13:54Z</time>
      </trkpt>
      <trkpt lat="33.43406" lon="-5.20439">
        <ele>1393.253</ele>
        <time>2011-04-20T10:14:35Z</time>
      </trkpt>
      <trkpt lat="33.4288" lon="-5.20286">
        <ele>1433.282</ele>
        <time>2011-04-20T10:15:10Z</time>
      </trkpt>
      <trkpt lat="33.4268" lon="-5.1982">
        <ele>1470.27</ele>
        <time>2011-04-20T10:15:43Z</time>
      </trkpt>
      <trkpt lat="33.42591" lon="-5.1925">
        <ele>1507.222</ele>
        <time>2011-04-20T10:17:29Z</time>
      </trkpt>
      <trkpt lat="33.43075" lon="-5.1887">
        <ele>1562.282</ele>
        <time>2011-04-20T10:18:01Z</time>
      </trkpt>
      <trkpt lat="33.43517" lon="-5.18528">
        <ele>1591.136</ele>
        <time>2011-04-20T10:18:29Z</time>
      </trkpt>
      <trkpt lat="33.43323" lon="-5.17838">
        <ele>1626.42</ele>
        <time>2011-04-20T10:18:58Z</time>
      </trkpt>
      <trkpt lat="33.4283" lon="-5.17422">
        <ele>1662.702</ele>
        <time>2011-04-20T10:19:37Z</time>
      </trkpt>
      <trkpt lat="33.42474" lon="-5.17907">
        <ele>1700.925</ele>
        <time>2011-04-20T10:20:07Z</time>
      </trkpt>
      <trkpt lat="33.4197" lon="-5.17807">
        <ele>1739.574</ele>
        <time>2011-04-20T10:20:38Z</time>
      </trkpt>
      <trkpt lat="33.41512" lon="-5.17967">
        <ele>1752.526</ele>
        <time>2011-04-20T10:21:07Z</time>
      </trkpt>
      <trkpt lat="33.40718" lon="-5.1852">
        <ele>1813.604</ele>
        <time>2011-04-20T10:22:04Z</time>
      </trkpt>
      <trkpt lat="33.4017" lon="-5.18027">
        <ele>1839.974</ele>
        <time>2011-04-20T10:22:44Z</time>
      </trkpt>
      <trkpt lat="33.39822" lon="-5.17365">
        <ele>1891.62</ele>
        <time>2011-04-20T10:23:22Z</time>
      </trkpt>
      <trkpt lat="33.39346" lon="-5.16764">
        <ele>1913.564</ele>
        <time>2011-04-20T10:23:58Z</time>
      </trkpt>
      <trkpt lat="33.38752" lon="-5.16476">
        <ele>1941.77</ele>
        <time>2011-04-20T10:24:30Z</time>
      </trkpt>
      <trkpt lat="33.38236" lon="-5.16254">
        <ele>1941.738</ele>
        <time>2011-04-20T10:25:02Z</time>
      </trkpt>
      <trkpt lat="33.36493" lon="-5.1502">
        <ele>1913.763</ele>
        <time>2011-04-20T10:26:34Z</time>
      </trkpt>
      <trkpt lat="33.35799" lon="-5.14943">
        <ele>1939.171</ele>
        <time>2011-04-20T10:37:30Z</time>
      </trkpt>
      <trkpt lat="33.35487" lon="-5.14494">
        <ele>1930.835</ele>
        <time>2011-04-20T10:38:13Z</time>
      </trkpt>
      <trkpt lat="33.33532" lon="-5.13357">
        <ele>1926.951</ele>
        <time>2011-04-20T10:39:57Z</time>
      </trkpt>
      <trkpt lat="33.32817" lon="-5.13126">
        <ele>1939.885</ele>
        <time>2011-04-20T10:40:30Z</time>
      </trkpt>
      <trkpt lat="33.32188" lon="-5.12606">
        <ele>1936.603</ele>
        <time>2011-04-20T10:41:06Z</time>
      </trkpt>
      <trkpt lat="33.31618" lon="-5.11858">
        <ele>1918.985</ele>
        <time>2011-04-20T10:41:44Z</time>
      </trkpt>
      <trkpt lat="33.31149" lon="-5.11517">
        <ele>1895.32</ele>
        <time>2011-04-20T10:42:11Z</time>
      </trkpt>
      <trkpt lat="33.30638" lon="-5.1088">
        <ele>1869.335</ele>
        <time>2011-04-20T10:42:43Z</time>
      </trkpt>
      <trkpt lat="33.30362" lon="-5.1041">
        <ele>1871.391</ele>
        <time>2011-04-20T10:43:04Z</time>
      </trkpt>
      <trkpt lat="33.30188" lon="-5.09906">
        <ele>1866.336</ele>
        <time>2011-04-20T10:43:25Z</time>
      </trkpt>
      <trkpt lat="33.29346" lon="-5.08398">
        <ele>1857.703</ele>
        <time>2011-04-20T10:44:34Z</time>
      </trkpt>
      <trkpt lat="33.29037" lon="-5.07887">
        <ele>1843.532</ele>
        <time>2011-04-20T10:45:00Z</time>
      </trkpt>
      <trkpt lat="33.26881" lon="-5.07335">
        <ele>1830.584</ele>
        <time>2011-04-20T10:46:58Z</time>
      </trkpt>
      <trkpt lat="33.25924" lon="-5.07242">
        <ele>1812.158</ele>
        <time>2011-04-20T10:47:38Z</time>
      </trkpt>
      <trkpt lat="33.2423" lon="-5.07178">
        <ele>1815.551</ele>
        <time>2011-04-20T10:49:06Z</time>
      </trkpt>
      <trkpt lat="33.23716" lon="-5.06007">
        <ele>1816.756</ele>
        <time>2011-04-20T10:50:31Z</time>
      </trkpt>
      <trkpt lat="33.23092" lon="-5.05888">
        <ele>1832.978</ele>
        <time>2011-04-20T10:51:33Z</time>
      </trkpt>
      <trkpt lat="33.21278" lon="-5.05968">
        <ele>1853.206</ele>
        <time>2011-04-20T10:53:09Z</time>
      </trkpt>
      <trkpt lat="33.19918" lon="-5.06389">
        <ele>1864.992</ele>
        <time>2011-04-20T10:54:18Z</time>
      </trkpt>
      <trkpt lat="33.18952" lon="-5.0619">
        <ele>1884.825</ele>
        <time>2011-04-20T10:55:07Z</time>
      </trkpt>
      <trkpt lat="33.18006" lon="-5.06056">
        <ele>1899.101</ele>
        <time>2011-04-20T10:56:00Z</time>
      </trkpt>
      <trkpt lat="33.17487" lon="-5.06161">
        <ele>1909.28</ele>
        <time>2011-04-20T10:56:28Z</time>
      </trkpt>
      <trkpt lat="33.16464" lon="-5.06655">
        <ele>1910.372</ele>
        <time>2011-04-20T10:57:23Z</time>
      </trkpt>
      <trkpt lat="33.156" lon="-5.06775">
        <ele>1906.37</ele>
        <time>2011-04-20T10:58:10Z</time>
      </trkpt>
      <trkpt lat="33.15243" lon="-5.0658">
        <ele>1911.132</ele>
        <time>2011-04-20T10:58:40Z</time>
      </trkpt>
      <trkpt lat="33.14974" lon="-5.05653">
        <ele>1917.12</ele>
        <time>2011-04-20T10:59:24Z</time>
      </trkpt>
      <trkpt lat="33.14356" lon="-5.05345">
        <ele>1928.535</ele>
        <time>2011-04-20T11:00:00Z</time>
      </trkpt>
      <trkpt lat="33.13796" lon="-5.04658">
        <ele>1936.678</ele>
        <time>2011-04-20T11:00:38Z</time>
      </trkpt>
      <trkpt lat="33.13112" lon="-5.03536">
        <ele>1937.882</ele>
        <time>2011-04-20T11:01:32Z</time>
      </trkpt>
      <trkpt lat="33.12548" lon="-5.03257">
        <ele>1951.16</ele>
        <time>2011-04-20T11:02:04Z</time>
      </trkpt>
      <trkpt lat="33.12099" lon="-5.02998">
        <ele>1952.761</ele>
        <time>2011-04-20T11:02:28Z</time>
      </trkpt>
      <trkpt lat="33.11557" lon="-5.02979">
        <ele>1979.894</ele>
        <time>2011-04-20T11:02:56Z</time>
      </trkpt>
      <trkpt lat="33.10739" lon="-5.0251">
        <ele>1999.078</ele>
        <time>2011-04-20T11:03:46Z</time>
      </trkpt>
      <trkpt lat="33.10216" lon="-5.02492">
        <ele>2009.849</ele>
        <time>2011-04-20T11:04:13Z</time>
      </trkpt>
      <trkpt lat="33.08975" lon="-5.01865">
        <ele>2050.393</ele>
        <time>2011-04-20T11:05:24Z</time>
      </trkpt>
      <trkpt lat="33.08273" lon="-5.01759">
        <ele>2074.229</ele>
        <time>2011-04-20T11:05:59Z</time>
      </trkpt>
      <trkpt lat="33.07432" lon="-5.02131">
        <ele>2087.917</ele>
        <time>2011-04-20T11:06:58Z</time>
      </trkpt>
      <trkpt lat="33.06557" lon="-5.03158">
        <ele>2088.137</ele>
        <time>2011-04-20T11:07:56Z</time>
      </trkpt>
      <trkpt lat="33.05722" lon="-5.03862">
        <ele>2098.697</ele>
        <time>2011-04-20T11:08:55Z</time>
      </trkpt>
      <trkpt lat="33.0492" lon="-5.04502">
        <ele>2104.995</ele>
        <time>2011-04-20T11:09:37Z</time>
      </trkpt>
      <trkpt lat="33.04596" lon="-5.04995">
        <ele>2129.013</ele>
        <time>2011-04-20T11:10:03Z</time>
      </trkpt>
      <trkpt lat="33.04273" lon="-5.05548">
        <ele>2135.278</ele>
        <time>2011-04-20T11:10:30Z</time>
      </trkpt>
      <trkpt lat="33.03318" lon="-5.06516">
        <ele>2140.841</ele>
        <time>2011-04-20T11:11:27Z</time>
      </trkpt>
      <trkpt lat="33.0289" lon="-5.07161">
        <ele>2126.839</ele>
        <time>2011-04-20T11:12:01Z</time>
      </trkpt>
      <trkpt lat="33.0202" lon="-5.07292">
        <ele>2176.889</ele>
        <time>2011-04-20T11:12:59Z</time>
      </trkpt>
      <trkpt lat="33.01542" lon="-5.07191">
        <ele>2166.699</ele>
        <time>2011-04-20T11:13:31Z</time>
      </trkpt>
      <trkpt lat="33.00914" lon="-5.07228">
        <ele>2169.662</ele>
        <time>2011-04-20T11:14:06Z</time>
      </trkpt>
      <trkpt lat="32.99964" lon="-5.07454">
        <ele>2130.107</ele>
        <time>2011-04-20T11:15:06Z</time>
      </trkpt>
      <trkpt lat="32.99412" lon="-5.0711">
        <ele>2102.262</ele>
        <time>2011-04-20T11:15:57Z</time>
      </trkpt>
      <trkpt lat="32.98857" lon="-5.07099">
        <ele>2081.777</ele>
        <time>2011-04-20T11:16:30Z</time>
      </trkpt>
      <trkpt lat="32.98391" lon="-5.06744">
        <ele>2047.989</ele>
        <time>2011-04-20T11:17:12Z</time>
      </trkpt>
      <trkpt lat="32.97948" lon="-5.06551">
        <ele>2023.769</ele>
        <time>2011-04-20T11:17:53Z</time>
      </trkpt>
      <trkpt lat="32.9761" lon="-5.0612">
        <ele>2014.359</ele>
        <time>2011-04-20T11:18:28Z</time>
      </trkpt>
      <trkpt lat="32.97297" lon="-5.05742">
        <ele>1983.953</ele>
        <time>2011-04-20T11:19:02Z</time>
      </trkpt>
      <trkpt lat="32.96555" lon="-5.05682">
        <ele>1930.791</ele>
        <time>2011-04-20T11:20:33Z</time>
      </trkpt>
      <trkpt lat="32.95687" lon="-5.05292">
        <ele>1868.551</ele>
        <time>2011-04-20T11:21:24Z</time>
      </trkpt>
      <trkpt lat="32.95185" lon="-5.05521">
        <ele>1858.987</ele>
        <time>2011-04-20T11:21:51Z</time>
      </trkpt>
      <trkpt lat="32.94538" lon="-5.05935">
        <ele>1829.593</ele>
        <time>2011-04-20T11:22:25Z</time>
      </trkpt>
      <trkpt lat="32.94072" lon="-5.06078">
        <ele>1803.908</ele>
        <time>2011-04-20T11:22:50Z</time>
      </trkpt>
      <trkpt lat="32.93134" lon="-5.05383">
        <ele>1760.498</ele>
        <time>2011-04-20T11:23:58Z</time>
      </trkpt>
      <trkpt lat="32.90245" lon="-5.02469">
        <ele>1638.713</ele>
        <time>2011-04-20T11:27:13Z</time>
      </trkpt>
      <trkpt lat="32.88878" lon="-4.98124">
        <ele>1573.627</ele>
        <time>2011-04-20T11:29:55Z</time>
      </trkpt>
      <trkpt lat="32.88681" lon="-4.97461">
        <ele>1554.932</ele>
        <time>2011-04-20T11:30:18Z</time>
      </trkpt>
      <trkpt lat="32.88625" lon="-4.96823">
        <ele>1544.572</ele>
        <time>2011-04-20T11:30:40Z</time>
      </trkpt>
      <trkpt lat="32.88543" lon="-4.96182">
        <ele>1528.706</ele>
        <time>2011-04-20T11:31:03Z</time>
      </trkpt>
      <trkpt lat="32.87968" lon="-4.94995">
        <ele>1482.05</ele>
        <time>2011-04-20T11:32:10Z</time>
      </trkpt>
      <trkpt lat="32.87656" lon="-4.9459">
        <ele>1487.887</ele>
        <time>2011-04-20T11:32:33Z</time>
      </trkpt>
      <trkpt lat="32.8697" lon="-4.94395">
        <ele>1485.346</ele>
        <time>2011-04-20T11:33:08Z</time>
      </trkpt>
      <trkpt lat="32.8586" lon="-4.94599">
        <ele>1479.671</ele>
        <time>2011-04-20T11:34:01Z</time>
      </trkpt>
      <trkpt lat="32.84978" lon="-4.94855">
        <ele>1462.538</ele>
        <time>2011-04-20T11:34:44Z</time>
      </trkpt>
      <trkpt lat="32.84341" lon="-4.95277">
        <ele>1473.469</ele>
        <time>2011-04-20T11:35:22Z</time>
      </trkpt>
      <trkpt lat="32.83436" lon="-4.96011">
        <ele>1470.34</ele>
        <time>2011-04-20T11:36:19Z</time>
      </trkpt>
      <trkpt lat="32.82386" lon="-4.9614">
        <ele>1469.976</ele>
        <time>2011-04-20T11:37:35Z</time>
      </trkpt>
      <trkpt lat="32.81815" lon="-4.9594">
        <ele>1465.835</ele>
        <time>2011-04-20T11:38:48Z</time>
      </trkpt>
      <trkpt lat="32.81145" lon="-4.95416">
        <ele>1474.127</ele>
        <time>2011-04-20T11:40:10Z</time>
      </trkpt>
      <trkpt lat="32.80522" lon="-4.94883">
        <ele>1489.038</ele>
        <time>2011-04-20T12:16:07Z</time>
      </trkpt>
      <trkpt lat="32.79435" lon="-4.94209">
        <ele>1499.188</ele>
        <time>2011-04-20T12:17:05Z</time>
      </trkpt>
      <trkpt lat="32.79052" lon="-4.93697">
        <ele>1506.363</ele>
        <time>2011-04-20T12:17:32Z</time>
      </trkpt>
      <trkpt lat="32.78585" lon="-4.93536">
        <ele>1507.501</ele>
        <time>2011-04-20T12:17:53Z</time>
      </trkpt>
      <trkpt lat="32.75704" lon="-4.9262">
        <ele>1493.232</ele>
        <time>2011-04-20T12:19:54Z</time>
      </trkpt>
      <trkpt lat="32.75021" lon="-4.91697">
        <ele>1485.706</ele>
        <time>2011-04-20T12:20:44Z</time>
      </trkpt>
      <trkpt lat="32.74382" lon="-4.91302">
        <ele>1459.419</ele>
        <time>2011-04-20T12:21:24Z</time>
      </trkpt>
      <trkpt lat="32.73497" lon="-4.90871">
        <ele>1473.436</ele>
        <time>2011-04-20T12:22:20Z</time>
      </trkpt>
      <trkpt lat="32.72093" lon="-4.88736">
        <ele>1524.462</ele>
        <time>2011-04-20T12:23:57Z</time>
      </trkpt>
      <trkpt lat="32.71741" lon="-4.88365">
        <ele>1536.89</ele>
        <time>2011-04-20T12:24:18Z</time>
      </trkpt>
      <trkpt lat="32.70979" lon="-4.87163">
        <ele>1548.369</ele>
        <time>2011-04-20T12:25:13Z</time>
      </trkpt>
      <trkpt lat="32.70468" lon="-4.85073">
        <ele>1530.478</ele>
        <time>2011-04-20T12:26:32Z</time>
      </trkpt>
      <trkpt lat="32.69873" lon="-4.84427">
        <ele>1506.928</ele>
        <time>2011-04-20T12:27:07Z</time>
      </trkpt>
      <trkpt lat="32.69747" lon="-4.82356">
        <ele>1482.232</ele>
        <time>2011-04-20T12:28:25Z</time>
      </trkpt>
      <trkpt lat="32.69928" lon="-4.81222">
        <ele>1471.501</ele>
        <time>2011-04-20T12:29:08Z</time>
      </trkpt>
      <trkpt lat="32.70487" lon="-4.8039">
        <ele>1453.097</ele>
        <time>2011-04-20T12:29:48Z</time>
      </trkpt>
      <trkpt lat="32.70647" lon="-4.79652">
        <ele>1441.054</ele>
        <time>2011-04-20T12:30:20Z</time>
      </trkpt>
      <trkpt lat="32.70584" lon="-4.78086">
        <ele>1424.635</ele>
        <time>2011-04-20T12:31:36Z</time>
      </trkpt>
      <trkpt lat="32.70263" lon="-4.7739">
        <ele>1439.053</ele>
        <time>2011-04-20T12:32:19Z</time>
      </trkpt>
      <trkpt lat="32.70078" lon="-4.76365">
        <ele>1457.213</ele>
        <time>2011-04-20T12:33:11Z</time>
      </trkpt>
      <trkpt lat="32.69878" lon="-4.75503">
        <ele>1451.48</ele>
        <time>2011-04-20T12:36:10Z</time>
      </trkpt>
      <trkpt lat="32.69312" lon="-4.75183">
        <ele>1458.529</ele>
        <time>2011-04-20T12:37:24Z</time>
      </trkpt>
      <trkpt lat="32.68612" lon="-4.744">
        <ele>1464.368</ele>
        <time>2011-04-20T12:39:29Z</time>
      </trkpt>
      <trkpt lat="32.68056" lon="-4.74273">
        <ele>1485.565</ele>
        <time>2011-04-20T12:40:41Z</time>
      </trkpt>
      <trkpt lat="32.67962" lon="-4.73514">
        <ele>1473.51</ele>
        <time>2011-04-20T12:42:35Z</time>
      </trkpt>
      <trkpt lat="32.68039" lon="-4.72394">
        <ele>1483.043</ele>
        <time>2011-04-20T12:44:18Z</time>
      </trkpt>
      <trkpt lat="32.68106" lon="-4.71721">
        <ele>1497.69</ele>
        <time>2011-04-20T12:45:04Z</time>
      </trkpt>
      <trkpt lat="32.64465" lon="-4.77262">
        <ele>1587.619</ele>
        <time>2011-04-20T14:24:00Z</time>
      </trkpt>
      <trkpt lat="32.63917" lon="-4.76956">
        <ele>1606.178</ele>
        <time>2011-04-21T07:13:39Z</time>
      </trkpt>
      <trkpt lat="32.63607" lon="-4.77416">
        <ele>1604.917</ele>
        <time>2011-04-21T07:14:26Z</time>
      </trkpt>
      <trkpt lat="32.63001" lon="-4.7846">
        <ele>1662.379</ele>
        <time>2011-04-21T07:16:07Z</time>
      </trkpt>
      <trkpt lat="32.6237" lon="-4.79078">
        <ele>1680.921</ele>
        <time>2011-04-21T07:17:19Z</time>
      </trkpt>
      <trkpt lat="32.61808" lon="-4.79729">
        <ele>1723.206</ele>
        <time>2011-04-21T07:18:30Z</time>
      </trkpt>
      <trkpt lat="32.61167" lon="-4.80591">
        <ele>1772.752</ele>
        <time>2011-04-21T07:20:08Z</time>
      </trkpt>
      <trkpt lat="32.60776" lon="-4.81094">
        <ele>1801.221</ele>
        <time>2011-04-21T07:21:00Z</time>
      </trkpt>
      <trkpt lat="32.60504" lon="-4.81608">
        <ele>1816.441</ele>
        <time>2011-04-21T07:21:50Z</time>
      </trkpt>
      <trkpt lat="32.59904" lon="-4.82315">
        <ele>1815.099</ele>
        <time>2011-04-21T07:28:10Z</time>
      </trkpt>
      <trkpt lat="32.5971" lon="-4.82841">
        <ele>1834.929</ele>
        <time>2011-04-21T07:29:21Z</time>
      </trkpt>
      <trkpt lat="32.5957" lon="-4.83567">
        <ele>1833.176</ele>
        <time>2011-04-21T07:31:01Z</time>
      </trkpt>
      <trkpt lat="32.59246" lon="-4.8425">
        <ele>1855.824</ele>
        <time>2011-04-21T07:32:57Z</time>
      </trkpt>
      <trkpt lat="32.59038" lon="-4.85033">
        <ele>1885.303</ele>
        <time>2011-04-21T07:35:07Z</time>
      </trkpt>
      <trkpt lat="32.5856" lon="-4.85025">
        <ele>1944.337</ele>
        <time>2011-04-21T07:36:33Z</time>
      </trkpt>
      <trkpt lat="32.58014" lon="-4.85381">
        <ele>2004.886</ele>
        <time>2011-04-21T07:40:10Z</time>
      </trkpt>
      <trkpt lat="32.57913" lon="-4.86122">
        <ele>2013.965</ele>
        <time>2011-04-21T07:42:11Z</time>
      </trkpt>
      <trkpt lat="32.58173" lon="-4.88058">
        <ele>2002.33</ele>
        <time>2011-04-21T07:46:37Z</time>
      </trkpt>
      <trkpt lat="32.58094" lon="-4.88464">
        <ele>1999.672</ele>
        <time>2011-04-21T07:48:45Z</time>
      </trkpt>
      <trkpt lat="32.57946" lon="-4.8893">
        <ele>2001.75</ele>
        <time>2011-04-21T07:50:18Z</time>
      </trkpt>
      <trkpt lat="32.57516" lon="-4.89261">
        <ele>2018.426</ele>
        <time>2011-04-21T07:51:43Z</time>
      </trkpt>
      <trkpt lat="32.57173" lon="-4.89744">
        <ele>2073.15</ele>
        <time>2011-04-21T07:53:03Z</time>
      </trkpt>
      <trkpt lat="32.56482" lon="-4.89908">
        <ele>2104.439</ele>
        <time>2011-04-21T07:58:19Z</time>
      </trkpt>
      <trkpt lat="32.55983" lon="-4.89935">
        <ele>2179.983</ele>
        <time>2011-04-21T08:05:11Z</time>
      </trkpt>
      <trkpt lat="32.55355" lon="-4.89467">
        <ele>2251.445</ele>
        <time>2011-04-21T08:07:53Z</time>
      </trkpt>
      <trkpt lat="32.54984" lon="-4.8929">
        <ele>2243.953</ele>
        <time>2011-04-21T08:23:48Z</time>
      </trkpt>
      <trkpt lat="32.54299" lon="-4.8881">
        <ele>2175.406</ele>
        <time>2011-04-21T08:53:30Z</time>
      </trkpt>
      <trkpt lat="32.54264" lon="-4.89262">
        <ele>2154.18</ele>
        <time>2011-04-21T08:55:23Z</time>
      </trkpt>
      <trkpt lat="32.54131" lon="-4.8966">
        <ele>2113.75</ele>
        <time>2011-04-21T09:01:51Z</time>
      </trkpt>
      <trkpt lat="32.5386" lon="-4.89666">
        <ele>2100.041</ele>
        <time>2011-04-21T09:18:13Z</time>
      </trkpt>
      <trkpt lat="32.53861" lon="-4.89987">
        <ele>2139.187</ele>
        <time>2011-04-21T09:21:43Z</time>
      </trkpt>
      <trkpt lat="32.5403" lon="-4.90088">
        <ele>2178.782</ele>
        <time>2011-04-21T09:23:37Z</time>
      </trkpt>
      <trkpt lat="32.54028" lon="-4.90573">
        <ele>2176.125</ele>
        <time>2011-04-21T09:25:53Z</time>
      </trkpt>
      <trkpt lat="32.54179" lon="-4.90919">
        <ele>2168.729</ele>
        <time>2011-04-21T09:27:32Z</time>
      </trkpt>
      <trkpt lat="32.54318" lon="-4.91659">
        <ele>2148.503</ele>
        <time>2011-04-21T09:30:35Z</time>
      </trkpt>
      <trkpt lat="32.54253" lon="-4.92246">
        <ele>2146.514</ele>
        <time>2011-04-21T09:32:55Z</time>
      </trkpt>
      <trkpt lat="32.54286" lon="-4.92708">
        <ele>2153.737</ele>
        <time>2011-04-21T09:34:46Z</time>
      </trkpt>
      <trkpt lat="32.5451" lon="-4.93273">
        <ele>2175.871</ele>
        <time>2011-04-21T09:37:15Z</time>
      </trkpt>
      <trkpt lat="32.54357" lon="-4.93705">
        <ele>2179.996</ele>
        <time>2011-04-21T09:39:00Z</time>
      </trkpt>
      <trkpt lat="32.5394" lon="-4.93857">
        <ele>2169.122</ele>
        <time>2011-04-21T09:41:12Z</time>
      </trkpt>
      <trkpt lat="32.54266" lon="-4.94285">
        <ele>2180.619</ele>
        <time>2011-04-21T09:43:43Z</time>
      </trkpt>
      <trkpt lat="32.54186" lon="-4.9483">
        <ele>2162.82</ele>
        <time>2011-04-21T09:45:31Z</time>
      </trkpt>
      <trkpt lat="32.54079" lon="-4.95447">
        <ele>2115.798</ele>
        <time>2011-04-21T09:50:24Z</time>
      </trkpt>
      <trkpt lat="32.53984" lon="-4.95884">
        <ele>2107.248</ele>
        <time>2011-04-21T09:52:07Z</time>
      </trkpt>
      <trkpt lat="32.54704" lon="-4.96148">
        <ele>2067.749</ele>
        <time>2011-04-21T09:53:54Z</time>
      </trkpt>
      <trkpt lat="32.53937" lon="-4.96392">
        <ele>2063.427</ele>
        <time>2011-04-21T09:56:17Z</time>
      </trkpt>
      <trkpt lat="32.53686" lon="-4.9719">
        <ele>2046.225</ele>
        <time>2011-04-21T09:58:28Z</time>
      </trkpt>
      <trkpt lat="32.53801" lon="-4.97451">
        <ele>2046.481</ele>
        <time>2011-04-21T10:01:53Z</time>
      </trkpt>
      <trkpt lat="32.53492" lon="-4.97818">
        <ele>2053.667</ele>
        <time>2011-04-21T10:04:09Z</time>
      </trkpt>
      <trkpt lat="32.53532" lon="-4.98243">
        <ele>2051.491</ele>
        <time>2011-04-21T10:05:42Z</time>
      </trkpt>
      <trkpt lat="32.53714" lon="-4.98773">
        <ele>2049.365</ele>
        <time>2011-04-21T10:07:08Z</time>
      </trkpt>
      <trkpt lat="32.53439" lon="-4.99143">
        <ele>2001.214</ele>
        <time>2011-04-21T10:10:37Z</time>
      </trkpt>
      <trkpt lat="32.53147" lon="-4.99105">
        <ele>1967.98</ele>
        <time>2011-04-21T10:12:25Z</time>
      </trkpt>
      <trkpt lat="32.53086" lon="-4.99653">
        <ele>1973.214</ele>
        <time>2011-04-21T10:14:33Z</time>
      </trkpt>
      <trkpt lat="32.53159" lon="-5.00234">
        <ele>1984.97</ele>
        <time>2011-04-21T10:15:21Z</time>
      </trkpt>
      <trkpt lat="32.52989" lon="-5.00797">
        <ele>1967.762</ele>
        <time>2011-04-21T10:16:07Z</time>
      </trkpt>
      <trkpt lat="32.53045" lon="-5.01571">
        <ele>1928.339</ele>
        <time>2011-04-21T10:17:04Z</time>
      </trkpt>
      <trkpt lat="32.52499" lon="-5.02992">
        <ele>1894.608</ele>
        <time>2011-04-21T10:19:08Z</time>
      </trkpt>
      <trkpt lat="32.52384" lon="-5.03676">
        <ele>1870.792</ele>
        <time>2011-04-21T10:20:16Z</time>
      </trkpt>
      <trkpt lat="32.52203" lon="-5.04336">
        <ele>1834.775</ele>
        <time>2011-04-21T10:21:01Z</time>
      </trkpt>
      <trkpt lat="32.51906" lon="-5.05102">
        <ele>1811.947</ele>
        <time>2011-04-21T10:21:55Z</time>
      </trkpt>
      <trkpt lat="32.51786" lon="-5.05733">
        <ele>1778.532</ele>
        <time>2011-04-21T10:22:31Z</time>
      </trkpt>
      <trkpt lat="32.51776" lon="-5.05765">
        <ele>1777.307</ele>
        <time>2011-04-21T10:24:32Z</time>
      </trkpt>
      <trkpt lat="32.51599" lon="-5.06358">
        <ele>1752.4</ele>
        <time>2011-04-21T10:26:03Z</time>
      </trkpt>
      <trkpt lat="32.51738" lon="-5.07019">
        <ele>1749.85</ele>
        <time>2011-04-21T10:27:59Z</time>
      </trkpt>
      <trkpt lat="32.51764" lon="-5.07612">
        <ele>1736.391</ele>
        <time>2011-04-21T10:29:23Z</time>
      </trkpt>
      <trkpt lat="32.51568" lon="-5.08117">
        <ele>1734.851</ele>
        <time>2011-04-21T10:30:46Z</time>
      </trkpt>
      <trkpt lat="32.51601" lon="-5.08823">
        <ele>1718.271</ele>
        <time>2011-04-21T10:32:48Z</time>
      </trkpt>
      <trkpt lat="32.51697" lon="-5.09664">
        <ele>1735.833</ele>
        <time>2011-04-21T10:33:59Z</time>
      </trkpt>
      <trkpt lat="32.5169" lon="-5.10371">
        <ele>1773.946</ele>
        <time>2011-04-21T10:35:05Z</time>
      </trkpt>
      <trkpt lat="32.51889" lon="-5.11106">
        <ele>1792.022</ele>
        <time>2011-04-21T10:36:05Z</time>
      </trkpt>
      <trkpt lat="32.51904" lon="-5.11985">
        <ele>1819.522</ele>
        <time>2011-04-21T10:37:09Z</time>
      </trkpt>
      <trkpt lat="32.51428" lon="-5.134">
        <ele>1859.027</ele>
        <time>2011-04-21T10:39:11Z</time>
      </trkpt>
      <trkpt lat="32.51242" lon="-5.14309">
        <ele>1885.913</ele>
        <time>2011-04-21T10:40:24Z</time>
      </trkpt>
      <trkpt lat="32.51206" lon="-5.14993">
        <ele>1916.083</ele>
        <time>2011-04-21T10:41:36Z</time>
      </trkpt>
      <trkpt lat="32.51085" lon="-5.16334">
        <ele>1935.011</ele>
        <time>2011-04-21T10:43:24Z</time>
      </trkpt>
      <trkpt lat="32.50954" lon="-5.16989">
        <ele>1928.254</ele>
        <time>2011-04-21T10:44:12Z</time>
      </trkpt>
      <trkpt lat="32.50596" lon="-5.17555">
        <ele>1947.87</ele>
        <time>2011-04-21T10:45:13Z</time>
      </trkpt>
      <trkpt lat="32.50193" lon="-5.17759">
        <ele>1921.67</ele>
        <time>2011-04-21T10:46:16Z</time>
      </trkpt>
      <trkpt lat="32.4944" lon="-5.16739">
        <ele>1892.089</ele>
        <time>2011-04-21T11:02:04Z</time>
      </trkpt>
      <trkpt lat="32.48874" lon="-5.16063">
        <ele>1866.973</ele>
        <time>2011-04-21T11:03:00Z</time>
      </trkpt>
      <trkpt lat="32.48692" lon="-5.15303">
        <ele>1864.472</ele>
        <time>2011-04-21T11:03:50Z</time>
      </trkpt>
      <trkpt lat="32.48169" lon="-5.14811">
        <ele>1818.691</ele>
        <time>2011-04-21T11:04:55Z</time>
      </trkpt>
      <trkpt lat="32.47466" lon="-5.14987">
        <ele>1798.057</ele>
        <time>2011-04-21T11:06:20Z</time>
      </trkpt>
      <trkpt lat="32.46618" lon="-5.14928">
        <ele>1809.313</ele>
        <time>2011-04-21T11:07:50Z</time>
      </trkpt>
      <trkpt lat="32.46049" lon="-5.15068">
        <ele>1818.353</ele>
        <time>2011-04-21T11:08:52Z</time>
      </trkpt>
      <trkpt lat="32.45547" lon="-5.15239">
        <ele>1828.743</ele>
        <time>2011-04-21T11:09:51Z</time>
      </trkpt>
      <trkpt lat="32.45265" lon="-5.15496">
        <ele>1836.906</ele>
        <time>2011-04-21T11:11:01Z</time>
      </trkpt>
      <trkpt lat="32.44615" lon="-5.15153">
        <ele>1847.166</ele>
        <time>2011-04-21T11:12:24Z</time>
      </trkpt>
      <trkpt lat="32.44085" lon="-5.15564">
        <ele>1859.352</ele>
        <time>2011-04-21T11:13:39Z</time>
      </trkpt>
      <trkpt lat="32.43662" lon="-5.1556">
        <ele>1876.115</ele>
        <time>2011-04-21T11:14:46Z</time>
      </trkpt>
      <trkpt lat="32.43331" lon="-5.15671">
        <ele>1880.584</ele>
        <time>2011-04-21T11:16:54Z</time>
      </trkpt>
      <trkpt lat="32.42697" lon="-5.15679">
        <ele>1894.706</ele>
        <time>2011-04-21T11:18:14Z</time>
      </trkpt>
      <trkpt lat="32.42528" lon="-5.1534">
        <ele>1901.543</ele>
        <time>2011-04-21T11:19:16Z</time>
      </trkpt>
      <trkpt lat="32.42177" lon="-5.14889">
        <ele>1914.068</ele>
        <time>2011-04-21T11:20:37Z</time>
      </trkpt>
      <trkpt lat="32.41841" lon="-5.14576">
        <ele>1922.504</ele>
        <time>2011-04-21T11:21:29Z</time>
      </trkpt>
      <trkpt lat="32.41403" lon="-5.14857">
        <ele>1936.035</ele>
        <time>2011-04-21T11:22:16Z</time>
      </trkpt>
      <trkpt lat="32.40989" lon="-5.15266">
        <ele>1946.102</ele>
        <time>2011-04-21T11:23:23Z</time>
      </trkpt>
      <trkpt lat="32.40676" lon="-5.15703">
        <ele>1963.833</ele>
        <time>2011-04-21T11:24:10Z</time>
      </trkpt>
      <trkpt lat="32.40324" lon="-5.16188">
        <ele>1969.022</ele>
        <time>2011-04-21T11:24:57Z</time>
      </trkpt>
      <trkpt lat="32.39858" lon="-5.16081">
        <ele>1966.935</ele>
        <time>2011-04-21T11:25:47Z</time>
      </trkpt>
      <trkpt lat="32.39561" lon="-5.16475">
        <ele>1989.8</ele>
        <time>2011-04-21T11:26:42Z</time>
      </trkpt>
      <trkpt lat="32.38945" lon="-5.17072">
        <ele>1996.532</ele>
        <time>2011-04-21T11:28:34Z</time>
      </trkpt>
      <trkpt lat="32.38568" lon="-5.17593">
        <ele>2011.353</ele>
        <time>2011-04-21T11:29:26Z</time>
      </trkpt>
      <trkpt lat="32.3834" lon="-5.17431">
        <ele>2011.525</ele>
        <time>2011-04-21T11:31:06Z</time>
      </trkpt>
      <trkpt lat="32.37766" lon="-5.17435">
        <ele>2019.538</ele>
        <time>2011-04-21T11:32:02Z</time>
      </trkpt>
      <trkpt lat="32.37273" lon="-5.17544">
        <ele>2034.479</ele>
        <time>2011-04-21T11:32:59Z</time>
      </trkpt>
      <trkpt lat="32.36957" lon="-5.18079">
        <ele>2048.648</ele>
        <time>2011-04-21T11:33:50Z</time>
      </trkpt>
      <trkpt lat="32.36582" lon="-5.17788">
        <ele>2075.283</ele>
        <time>2011-04-21T11:34:50Z</time>
      </trkpt>
      <trkpt lat="32.36116" lon="-5.1796">
        <ele>2085.94</ele>
        <time>2011-04-21T11:36:02Z</time>
      </trkpt>
      <trkpt lat="32.35846" lon="-5.18571">
        <ele>2105.617</ele>
        <time>2011-04-21T12:39:48Z</time>
      </trkpt>
      <trkpt lat="32.35943" lon="-5.19151">
        <ele>2115.008</ele>
        <time>2011-04-21T12:40:40Z</time>
      </trkpt>
      <trkpt lat="32.3578" lon="-5.19976">
        <ele>2134.635</ele>
        <time>2011-04-21T12:42:05Z</time>
      </trkpt>
      <trkpt lat="32.35707" lon="-5.21286">
        <ele>2186.992</ele>
        <time>2011-04-21T12:43:41Z</time>
      </trkpt>
      <trkpt lat="32.35629" lon="-5.21952">
        <ele>2191.248</ele>
        <time>2011-04-21T12:44:44Z</time>
      </trkpt>
      <trkpt lat="32.35161" lon="-5.22445">
        <ele>2209.13</ele>
        <time>2011-04-21T12:46:45Z</time>
      </trkpt>
      <trkpt lat="32.34798" lon="-5.22913">
        <ele>2218.584</ele>
        <time>2011-04-21T12:47:48Z</time>
      </trkpt>
      <trkpt lat="32.34154" lon="-5.23726">
        <ele>2270.354</ele>
        <time>2011-04-21T12:49:34Z</time>
      </trkpt>
      <trkpt lat="32.33538" lon="-5.24626">
        <ele>2321.751</ele>
        <time>2011-04-21T12:51:32Z</time>
      </trkpt>
      <trkpt lat="32.33261" lon="-5.25422">
        <ele>2369.604</ele>
        <time>2011-04-21T12:53:28Z</time>
      </trkpt>
      <trkpt lat="32.32912" lon="-5.26161">
        <ele>2355.022</ele>
        <time>2011-04-21T12:54:25Z</time>
      </trkpt>
      <trkpt lat="32.32531" lon="-5.26535">
        <ele>2346.209</ele>
        <time>2011-04-21T12:55:10Z</time>
      </trkpt>
      <trkpt lat="32.32239" lon="-5.27202">
        <ele>2307.29</ele>
        <time>2011-04-21T12:56:34Z</time>
      </trkpt>
      <trkpt lat="32.32027" lon="-5.27709">
        <ele>2280.012</ele>
        <time>2011-04-21T12:57:16Z</time>
      </trkpt>
      <trkpt lat="32.32087" lon="-5.28384">
        <ele>2252.389</ele>
        <time>2011-04-21T12:58:17Z</time>
      </trkpt>
      <trkpt lat="32.31903" lon="-5.29083">
        <ele>2236.292</ele>
        <time>2011-04-21T12:59:12Z</time>
      </trkpt>
      <trkpt lat="32.3191" lon="-5.29838">
        <ele>2259.392</ele>
        <time>2011-04-21T13:00:12Z</time>
      </trkpt>
      <trkpt lat="32.31537" lon="-5.2996">
        <ele>2271.786</ele>
        <time>2011-04-21T13:00:54Z</time>
      </trkpt>
      <trkpt lat="32.31015" lon="-5.30581">
        <ele>2246.673</ele>
        <time>2011-04-21T13:02:10Z</time>
      </trkpt>
      <trkpt lat="32.30246" lon="-5.30543">
        <ele>2182.586</ele>
        <time>2011-04-21T13:05:58Z</time>
      </trkpt>
      <trkpt lat="32.3" lon="-5.30178">
        <ele>2205.979</ele>
        <time>2011-04-21T13:07:26Z</time>
      </trkpt>
      <trkpt lat="32.29681" lon="-5.29702">
        <ele>2257.971</ele>
        <time>2011-04-21T13:08:28Z</time>
      </trkpt>
      <trkpt lat="32.29326" lon="-5.29515">
        <ele>2264.091</ele>
        <time>2011-04-21T13:09:29Z</time>
      </trkpt>
      <trkpt lat="32.28845" lon="-5.29568">
        <ele>2255.461</ele>
        <time>2011-04-21T13:10:19Z</time>
      </trkpt>
      <trkpt lat="32.2862" lon="-5.29688">
        <ele>2293.003</ele>
        <time>2011-04-21T13:11:15Z</time>
      </trkpt>
      <trkpt lat="32.28558" lon="-5.3029">
        <ele>2368.596</ele>
        <time>2011-04-21T13:12:21Z</time>
      </trkpt>
      <trkpt lat="32.28625" lon="-5.30728">
        <ele>2404.099</ele>
        <time>2011-04-21T13:13:13Z</time>
      </trkpt>
      <trkpt lat="32.28516" lon="-5.31051">
        <ele>2351.305</ele>
        <time>2011-04-21T13:14:07Z</time>
      </trkpt>
      <trkpt lat="32.2868" lon="-5.31482">
        <ele>2290.347</ele>
        <time>2011-04-21T13:14:45Z</time>
      </trkpt>
      <trkpt lat="32.28743" lon="-5.32101">
        <ele>2240.181</ele>
        <time>2011-04-21T13:15:26Z</time>
      </trkpt>
      <trkpt lat="32.28416" lon="-5.33159">
        <ele>2203.883</ele>
        <time>2011-04-21T13:16:37Z</time>
      </trkpt>
      <trkpt lat="32.28199" lon="-5.34019">
        <ele>2108.137</ele>
        <time>2011-04-21T13:17:47Z</time>
      </trkpt>
      <trkpt lat="32.27767" lon="-5.34476">
        <ele>2076.613</ele>
        <time>2011-04-21T13:18:56Z</time>
      </trkpt>
      <trkpt lat="32.27612" lon="-5.35095">
        <ele>2047.764</ele>
        <time>2011-04-21T13:19:56Z</time>
      </trkpt>
      <trkpt lat="32.278" lon="-5.36949">
        <ele>2011.072</ele>
        <time>2011-04-21T13:21:58Z</time>
      </trkpt>
      <trkpt lat="32.28002" lon="-5.37578">
        <ele>1997.942</ele>
        <time>2011-04-21T13:22:52Z</time>
      </trkpt>
      <trkpt lat="32.28421" lon="-5.38159">
        <ele>2009.036</ele>
        <time>2011-04-21T13:23:41Z</time>
      </trkpt>
      <trkpt lat="32.28436" lon="-5.3889">
        <ele>1962.118</ele>
        <time>2011-04-21T13:24:38Z</time>
      </trkpt>
      <trkpt lat="32.28661" lon="-5.39497">
        <ele>1958.459</ele>
        <time>2011-04-21T13:26:10Z</time>
      </trkpt>
      <trkpt lat="32.28189" lon="-5.40211">
        <ele>1977.704</ele>
        <time>2011-04-21T13:27:39Z</time>
      </trkpt>
      <trkpt lat="32.27783" lon="-5.40665">
        <ele>1989.092</ele>
        <time>2011-04-21T13:28:26Z</time>
      </trkpt>
      <trkpt lat="32.27351" lon="-5.41135">
        <ele>2001.634</ele>
        <time>2011-04-21T13:29:19Z</time>
      </trkpt>
      <trkpt lat="32.27015" lon="-5.4173">
        <ele>2027.922</ele>
        <time>2011-04-21T13:30:40Z</time>
      </trkpt>
      <trkpt lat="32.26621" lon="-5.42421">
        <ele>2094.275</ele>
        <time>2011-04-21T13:32:19Z</time>
      </trkpt>
      <trkpt lat="32.26071" lon="-5.42851">
        <ele>2100.508</ele>
        <time>2011-04-21T13:34:04Z</time>
      </trkpt>
      <trkpt lat="32.25547" lon="-5.43282">
        <ele>2129.522</ele>
        <time>2011-04-21T13:45:28Z</time>
      </trkpt>
      <trkpt lat="32.25212" lon="-5.43689">
        <ele>2154.07</ele>
        <time>2011-04-21T13:46:21Z</time>
      </trkpt>
      <trkpt lat="32.24646" lon="-5.43476">
        <ele>2182.401</ele>
        <time>2011-04-21T13:47:28Z</time>
      </trkpt>
      <trkpt lat="32.2407" lon="-5.43268">
        <ele>2245.615</ele>
        <time>2011-04-21T13:48:51Z</time>
      </trkpt>
      <trkpt lat="32.23432" lon="-5.43404">
        <ele>2311.733</ele>
        <time>2011-04-21T13:50:19Z</time>
      </trkpt>
      <trkpt lat="32.22897" lon="-5.43209">
        <ele>2301.87</ele>
        <time>2011-04-21T13:52:03Z</time>
      </trkpt>
      <trkpt lat="32.22414" lon="-5.43452">
        <ele>2362.137</ele>
        <time>2011-04-21T13:53:32Z</time>
      </trkpt>
      <trkpt lat="32.21827" lon="-5.43923">
        <ele>2399.033</ele>
        <time>2011-04-21T13:55:06Z</time>
      </trkpt>
      <trkpt lat="32.21903" lon="-5.44575">
        <ele>2449.068</ele>
        <time>2011-04-21T13:56:12Z</time>
      </trkpt>
      <trkpt lat="32.21689" lon="-5.44976">
        <ele>2482.256</ele>
        <time>2011-04-21T13:57:11Z</time>
      </trkpt>
      <trkpt lat="32.21566" lon="-5.45594">
        <ele>2532.176</ele>
        <time>2011-04-21T13:58:24Z</time>
      </trkpt>
      <trkpt lat="32.21222" lon="-5.45673">
        <ele>2583.31</ele>
        <time>2011-04-21T13:59:34Z</time>
      </trkpt>
      <trkpt lat="32.20862" lon="-5.45372">
        <ele>2627.771</ele>
        <time>2011-04-21T14:02:37Z</time>
      </trkpt>
      <trkpt lat="32.20393" lon="-5.45815">
        <ele>2611.9</ele>
        <time>2011-04-21T14:04:04Z</time>
      </trkpt>
      <trkpt lat="32.20039" lon="-5.45893">
        <ele>2574.781</ele>
        <time>2011-04-21T14:05:00Z</time>
      </trkpt>
      <trkpt lat="32.19428" lon="-5.46462">
        <ele>2522.998</ele>
        <time>2011-04-21T14:05:53Z</time>
      </trkpt>
      <trkpt lat="32.1884" lon="-5.46613">
        <ele>2471.88</ele>
        <time>2011-04-21T14:06:49Z</time>
      </trkpt>
      <trkpt lat="32.18582" lon="-5.47078">
        <ele>2430.202</ele>
        <time>2011-04-21T14:12:14Z</time>
      </trkpt>
      <trkpt lat="32.18111" lon="-5.46921">
        <ele>2410.24</ele>
        <time>2011-04-21T14:13:21Z</time>
      </trkpt>
      <trkpt lat="32.17833" lon="-5.47097">
        <ele>2376.28</ele>
        <time>2011-04-21T14:15:11Z</time>
      </trkpt>
      <trkpt lat="32.17766" lon="-5.47665">
        <ele>2368.853</ele>
        <time>2011-04-21T14:16:10Z</time>
      </trkpt>
      <trkpt lat="32.17487" lon="-5.48587">
        <ele>2352.426</ele>
        <time>2011-04-21T14:17:31Z</time>
      </trkpt>
      <trkpt lat="32.17494" lon="-5.49445">
        <ele>2340.77</ele>
        <time>2011-04-21T14:18:21Z</time>
      </trkpt>
      <trkpt lat="32.17278" lon="-5.50159">
        <ele>2331.278</ele>
        <time>2011-04-21T14:19:04Z</time>
      </trkpt>
      <trkpt lat="32.17076" lon="-5.51157">
        <ele>2317.077</ele>
        <time>2011-04-21T14:20:12Z</time>
      </trkpt>
      <trkpt lat="32.16715" lon="-5.51859">
        <ele>2304.021</ele>
        <time>2011-04-21T14:21:17Z</time>
      </trkpt>
      <trkpt lat="32.16256" lon="-5.52844">
        <ele>2294.532</ele>
        <time>2011-04-21T14:22:28Z</time>
      </trkpt>
      <trkpt lat="32.16096" lon="-5.53391">
        <ele>2276.784</ele>
        <time>2011-04-21T14:23:08Z</time>
      </trkpt>
      <trkpt lat="32.16156" lon="-5.54648">
        <ele>2262.59</ele>
        <time>2011-04-21T14:24:16Z</time>
      </trkpt>
      <trkpt lat="32.16001" lon="-5.55557">
        <ele>2255.248</ele>
        <time>2011-04-21T14:25:17Z</time>
      </trkpt>
      <trkpt lat="32.15797" lon="-5.56142">
        <ele>2239.23</ele>
        <time>2011-04-21T14:26:02Z</time>
      </trkpt>
      <trkpt lat="32.15576" lon="-5.56672">
        <ele>2226.286</ele>
        <time>2011-04-21T14:26:52Z</time>
      </trkpt>
      <trkpt lat="32.15538" lon="-5.57062">
        <ele>2222.479</ele>
        <time>2011-04-21T14:27:39Z</time>
      </trkpt>
      <trkpt lat="32.15297" lon="-5.57622">
        <ele>2213.281</ele>
        <time>2011-04-21T14:28:40Z</time>
      </trkpt>
      <trkpt lat="32.14915" lon="-5.58512">
        <ele>2211.362</ele>
        <time>2011-04-21T14:29:47Z</time>
      </trkpt>
      <trkpt lat="32.15311" lon="-5.59027">
        <ele>2204.216</ele>
        <time>2011-04-21T14:30:27Z</time>
      </trkpt>
      <trkpt lat="32.15542" lon="-5.5963">
        <ele>2199.053</ele>
        <time>2011-04-21T14:31:14Z</time>
      </trkpt>
      <trkpt lat="32.15914" lon="-5.59966">
        <ele>2192.857</ele>
        <time>2011-04-21T14:32:02Z</time>
      </trkpt>
      <trkpt lat="32.16344" lon="-5.59681">
        <ele>2185.189</ele>
        <time>2011-04-21T14:33:21Z</time>
      </trkpt>
      <trkpt lat="32.16713" lon="-5.5997">
        <ele>2184.685</ele>
        <time>2011-04-21T14:33:58Z</time>
      </trkpt>
      <trkpt lat="32.16671" lon="-5.60492">
        <ele>2193.916</ele>
        <time>2011-04-21T14:34:30Z</time>
      </trkpt>
      <trkpt lat="32.16456" lon="-5.61129">
        <ele>2201.559</ele>
        <time>2011-04-21T14:35:21Z</time>
      </trkpt>
      <trkpt lat="32.16213" lon="-5.61687">
        <ele>2175.332</ele>
        <time>2011-04-21T14:35:55Z</time>
      </trkpt>
      <trkpt lat="32.15781" lon="-5.61849">
        <ele>2168.734</ele>
        <time>2011-04-21T14:36:31Z</time>
      </trkpt>
      <trkpt lat="32.15487" lon="-5.62853">
        <ele>2168.862</ele>
        <time>2011-04-21T14:37:41Z</time>
      </trkpt>
      <trkpt lat="32.1647" lon="-5.62997">
        <ele>2189.415</ele>
        <time>2011-04-21T14:39:45Z</time>
      </trkpt>
      <trkpt lat="32.17053" lon="-5.63119">
        <ele>2202.088</ele>
        <time>2011-04-21T14:40:20Z</time>
      </trkpt>
      <trkpt lat="32.17489" lon="-5.63371">
        <ele>2210.072</ele>
        <time>2011-04-21T14:40:58Z</time>
      </trkpt>
      <trkpt lat="32.17892" lon="-5.63071">
        <ele>2232.947</ele>
        <time>2011-04-21T14:41:29Z</time>
      </trkpt>
      <trkpt lat="32.18506" lon="-5.6321">
        <ele>2259.004</ele>
        <time>2011-04-21T14:42:09Z</time>
      </trkpt>
      <trkpt lat="32.19155" lon="-5.63754">
        <ele>2285.08</ele>
        <time>2011-04-21T14:42:59Z</time>
      </trkpt>
      <trkpt lat="32.19634" lon="-5.64341">
        <ele>2277.686</ele>
        <time>2011-04-21T14:43:55Z</time>
      </trkpt>
      <trkpt lat="32.19317" lon="-5.64057">
        <ele>2283.665</ele>
        <time>2011-04-21T14:55:30Z</time>
      </trkpt>
      <trkpt lat="32.18458" lon="-5.63184">
        <ele>2253.198</ele>
        <time>2011-04-21T14:56:40Z</time>
      </trkpt>
      <trkpt lat="32.17831" lon="-5.63076">
        <ele>2227.462</ele>
        <time>2011-04-21T14:57:21Z</time>
      </trkpt>
      <trkpt lat="32.17439" lon="-5.63369">
        <ele>2205.66</ele>
        <time>2011-04-21T14:57:54Z</time>
      </trkpt>
      <trkpt lat="32.16604" lon="-5.6299">
        <ele>2193.796</ele>
        <time>2011-04-21T14:59:56Z</time>
      </trkpt>
      <trkpt lat="32.15656" lon="-5.63111">
        <ele>2183.21</ele>
        <time>2011-04-22T08:11:07Z</time>
      </trkpt>
      <trkpt lat="32.15775" lon="-5.61868">
        <ele>2173.665</ele>
        <time>2011-04-22T08:14:38Z</time>
      </trkpt>
      <trkpt lat="32.16206" lon="-5.61696">
        <ele>2177.337</ele>
        <time>2011-04-22T08:15:15Z</time>
      </trkpt>
      <trkpt lat="32.16469" lon="-5.61091">
        <ele>2201.395</ele>
        <time>2011-04-22T08:15:54Z</time>
      </trkpt>
      <trkpt lat="32.16692" lon="-5.60605">
        <ele>2188.737</ele>
        <time>2011-04-22T08:16:33Z</time>
      </trkpt>
      <trkpt lat="32.16719" lon="-5.60013">
        <ele>2183.674</ele>
        <time>2011-04-22T08:17:10Z</time>
      </trkpt>
      <trkpt lat="32.16398" lon="-5.59655">
        <ele>2186.67</ele>
        <time>2011-04-22T08:17:47Z</time>
      </trkpt>
      <trkpt lat="32.16073" lon="-5.6014">
        <ele>2187.741</ele>
        <time>2011-04-22T08:18:22Z</time>
      </trkpt>
      <trkpt lat="32.15898" lon="-5.59946">
        <ele>2190.442</ele>
        <time>2011-04-22T08:19:06Z</time>
      </trkpt>
      <trkpt lat="32.15549" lon="-5.59611">
        <ele>2192.71</ele>
        <time>2011-04-22T08:19:51Z</time>
      </trkpt>
      <trkpt lat="32.15329" lon="-5.59078">
        <ele>2198.489</ele>
        <time>2011-04-22T08:20:37Z</time>
      </trkpt>
      <trkpt lat="32.14918" lon="-5.58464">
        <ele>2209.56</ele>
        <time>2011-04-22T08:21:27Z</time>
      </trkpt>
      <trkpt lat="32.15275" lon="-5.5769">
        <ele>2219.023</ele>
        <time>2011-04-22T08:22:20Z</time>
      </trkpt>
      <trkpt lat="32.14765" lon="-5.57496">
        <ele>2216.054</ele>
        <time>2011-04-22T08:23:16Z</time>
      </trkpt>
      <trkpt lat="32.14194" lon="-5.57605">
        <ele>2221.047</ele>
        <time>2011-04-22T08:24:13Z</time>
      </trkpt>
      <trkpt lat="32.14145" lon="-5.57073">
        <ele>2222.259</ele>
        <time>2011-04-22T08:25:04Z</time>
      </trkpt>
      <trkpt lat="32.13685" lon="-5.56328">
        <ele>2235.765</ele>
        <time>2011-04-22T08:26:03Z</time>
      </trkpt>
      <trkpt lat="32.127" lon="-5.55938">
        <ele>2228.877</ele>
        <time>2011-04-22T08:27:49Z</time>
      </trkpt>
      <trkpt lat="32.1246" lon="-5.55347">
        <ele>2234.733</ele>
        <time>2011-04-22T08:28:31Z</time>
      </trkpt>
      <trkpt lat="32.11942" lon="-5.54991">
        <ele>2238.778</ele>
        <time>2011-04-22T08:29:18Z</time>
      </trkpt>
      <trkpt lat="32.11522" lon="-5.55268">
        <ele>2241.186</ele>
        <time>2011-04-22T08:29:56Z</time>
      </trkpt>
      <trkpt lat="32.11056" lon="-5.55084">
        <ele>2251.569</ele>
        <time>2011-04-22T08:30:35Z</time>
      </trkpt>
      <trkpt lat="32.11125" lon="-5.54489">
        <ele>2252.491</ele>
        <time>2011-04-22T08:31:20Z</time>
      </trkpt>
      <trkpt lat="32.10755" lon="-5.53574">
        <ele>2284.881</ele>
        <time>2011-04-22T08:32:23Z</time>
      </trkpt>
      <trkpt lat="32.10498" lon="-5.53026">
        <ele>2279.757</ele>
        <time>2011-04-22T08:33:10Z</time>
      </trkpt>
      <trkpt lat="32.10231" lon="-5.52374">
        <ele>2270.716</ele>
        <time>2011-04-22T08:34:05Z</time>
      </trkpt>
      <trkpt lat="32.10129" lon="-5.51244">
        <ele>2293.147</ele>
        <time>2011-04-22T08:35:10Z</time>
      </trkpt>
      <trkpt lat="32.09687" lon="-5.50804">
        <ele>2282.039</ele>
        <time>2011-04-22T08:35:51Z</time>
      </trkpt>
      <trkpt lat="32.09271" lon="-5.50451">
        <ele>2278.932</ele>
        <time>2011-04-22T08:36:39Z</time>
      </trkpt>
      <trkpt lat="32.08827" lon="-5.49991">
        <ele>2277.806</ele>
        <time>2011-04-22T08:37:48Z</time>
      </trkpt>
      <trkpt lat="32.08479" lon="-5.49588">
        <ele>2281.176</ele>
        <time>2011-04-22T08:38:23Z</time>
      </trkpt>
      <trkpt lat="32.08157" lon="-5.48514">
        <ele>2290.249</ele>
        <time>2011-04-22T08:39:42Z</time>
      </trkpt>
      <trkpt lat="32.0768" lon="-5.48211">
        <ele>2291.875</ele>
        <time>2011-04-22T08:40:29Z</time>
      </trkpt>
      <trkpt lat="32.07465" lon="-5.47268">
        <ele>2297.055</ele>
        <time>2011-04-22T08:41:26Z</time>
      </trkpt>
      <trkpt lat="32.07033" lon="-5.46979">
        <ele>2295.761</ele>
        <time>2011-04-22T08:42:14Z</time>
      </trkpt>
      <trkpt lat="32.06703" lon="-5.47084">
        <ele>2300.423</ele>
        <time>2011-04-22T08:43:09Z</time>
      </trkpt>
      <trkpt lat="32.0605" lon="-5.47302">
        <ele>2302.564</ele>
        <time>2011-04-22T08:43:59Z</time>
      </trkpt>
      <trkpt lat="32.0539" lon="-5.47036">
        <ele>2309.06</ele>
        <time>2011-04-22T08:44:53Z</time>
      </trkpt>
      <trkpt lat="32.04814" lon="-5.46556">
        <ele>2315.005</ele>
        <time>2011-04-22T08:46:24Z</time>
      </trkpt>
      <trkpt lat="32.04327" lon="-5.46837">
        <ele>2322.588</ele>
        <time>2011-04-22T08:47:33Z</time>
      </trkpt>
      <trkpt lat="32.03813" lon="-5.46792">
        <ele>2328.017</ele>
        <time>2011-04-22T08:48:07Z</time>
      </trkpt>
      <trkpt lat="32.03247" lon="-5.47089">
        <ele>2331.466</ele>
        <time>2011-04-22T08:48:53Z</time>
      </trkpt>
      <trkpt lat="32.027" lon="-5.46948">
        <ele>2331.241</ele>
        <time>2011-04-22T08:49:32Z</time>
      </trkpt>
      <trkpt lat="32.02978" lon="-5.47455">
        <ele>2342.283</ele>
        <time>2011-04-22T08:50:13Z</time>
      </trkpt>
      <trkpt lat="32.02197" lon="-5.4775">
        <ele>2341.079</ele>
        <time>2011-04-22T08:51:15Z</time>
      </trkpt>
      <trkpt lat="32.01606" lon="-5.48068">
        <ele>2355.196</ele>
        <time>2011-04-22T08:51:54Z</time>
      </trkpt>
      <trkpt lat="32.01019" lon="-5.49039">
        <ele>2362.583</ele>
        <time>2011-04-22T08:53:20Z</time>
      </trkpt>
      <trkpt lat="32.00816" lon="-5.49076">
        <ele>2354.761</ele>
        <time>2011-04-22T08:54:55Z</time>
      </trkpt>
      <trkpt lat="32.00602" lon="-5.49577">
        <ele>2366.634</ele>
        <time>2011-04-22T08:56:36Z</time>
      </trkpt>
      <trkpt lat="32.00317" lon="-5.50139">
        <ele>2373.588</ele>
        <time>2011-04-22T08:58:15Z</time>
      </trkpt>
      <trkpt lat="32.00109" lon="-5.50676">
        <ele>2372.547</ele>
        <time>2011-04-22T08:59:59Z</time>
      </trkpt>
      <trkpt lat="31.99409" lon="-5.51247">
        <ele>2381.205</ele>
        <time>2011-04-22T09:01:39Z</time>
      </trkpt>
      <trkpt lat="31.99065" lon="-5.51708">
        <ele>2385.844</ele>
        <time>2011-04-22T09:02:54Z</time>
      </trkpt>
      <trkpt lat="31.98516" lon="-5.52624">
        <ele>2398.27</ele>
        <time>2011-04-22T09:04:50Z</time>
      </trkpt>
      <trkpt lat="31.98277" lon="-5.5321">
        <ele>2400.723</ele>
        <time>2011-04-22T09:05:54Z</time>
      </trkpt>
      <trkpt lat="31.98391" lon="-5.53757">
        <ele>2406.903</ele>
        <time>2011-04-22T09:07:18Z</time>
      </trkpt>
      <trkpt lat="31.98093" lon="-5.54131">
        <ele>2412.772</ele>
        <time>2011-04-22T09:08:23Z</time>
      </trkpt>
      <trkpt lat="31.97979" lon="-5.5488">
        <ele>2431.702</ele>
        <time>2011-04-22T09:10:10Z</time>
      </trkpt>
      <trkpt lat="31.98224" lon="-5.55376">
        <ele>2449.652</ele>
        <time>2011-04-22T09:11:51Z</time>
      </trkpt>
      <trkpt lat="31.98193" lon="-5.56072">
        <ele>2462.709</ele>
        <time>2011-04-22T09:13:20Z</time>
      </trkpt>
      <trkpt lat="31.97891" lon="-5.56552">
        <ele>2496.453</ele>
        <time>2011-04-22T09:14:41Z</time>
      </trkpt>
      <trkpt lat="31.97639" lon="-5.57047">
        <ele>2541.607</ele>
        <time>2011-04-22T09:16:25Z</time>
      </trkpt>
      <trkpt lat="31.97239" lon="-5.57317">
        <ele>2559.376</ele>
        <time>2011-04-22T09:17:48Z</time>
      </trkpt>
      <trkpt lat="31.96769" lon="-5.58099">
        <ele>2602.34</ele>
        <time>2011-04-22T09:19:34Z</time>
      </trkpt>
      <trkpt lat="31.96655" lon="-5.58612">
        <ele>2633.13</ele>
        <time>2011-04-22T09:20:38Z</time>
      </trkpt>
      <trkpt lat="31.96279" lon="-5.58975">
        <ele>2667.881</ele>
        <time>2011-04-22T09:22:10Z</time>
      </trkpt>
      <trkpt lat="31.95933" lon="-5.59322">
        <ele>2727.355</ele>
        <time>2011-04-22T09:23:46Z</time>
      </trkpt>
      <trkpt lat="31.95644" lon="-5.59854">
        <ele>2697.748</ele>
        <time>2011-04-22T09:24:35Z</time>
      </trkpt>
      <trkpt lat="31.95278" lon="-5.6044">
        <ele>2692.116</ele>
        <time>2011-04-22T09:27:17Z</time>
      </trkpt>
      <trkpt lat="31.95301" lon="-5.61021">
        <ele>2736.259</ele>
        <time>2011-04-22T09:42:11Z</time>
      </trkpt>
      <trkpt lat="31.95178" lon="-5.61542">
        <ele>2773.097</ele>
        <time>2011-04-22T09:43:23Z</time>
      </trkpt>
      <trkpt lat="31.94906" lon="-5.62836">
        <ele>2714.515</ele>
        <time>2011-04-22T09:47:10Z</time>
      </trkpt>
      <trkpt lat="31.94265" lon="-5.63262">
        <ele>2701.208</ele>
        <time>2011-04-22T09:48:35Z</time>
      </trkpt>
      <trkpt lat="31.93824" lon="-5.63641">
        <ele>2687.607</ele>
        <time>2011-04-22T09:49:32Z</time>
      </trkpt>
      <trkpt lat="31.93399" lon="-5.63978">
        <ele>2697.497</ele>
        <time>2011-04-22T09:50:43Z</time>
      </trkpt>
      <trkpt lat="31.92632" lon="-5.64429">
        <ele>2729.491</ele>
        <time>2011-04-22T09:52:59Z</time>
      </trkpt>
      <trkpt lat="31.924" lon="-5.64987">
        <ele>2751.577</ele>
        <time>2011-04-22T09:54:08Z</time>
      </trkpt>
      <trkpt lat="31.91916" lon="-5.65863">
        <ele>2847.375</ele>
        <time>2011-04-22T09:57:02Z</time>
      </trkpt>
      <trkpt lat="31.91245" lon="-5.66175">
        <ele>2901.368</ele>
        <time>2011-04-22T09:58:37Z</time>
      </trkpt>
      <trkpt lat="31.90894" lon="-5.66675">
        <ele>2884.209</ele>
        <time>2011-04-22T10:01:47Z</time>
      </trkpt>
      <trkpt lat="31.89249" lon="-5.68364">
        <ele>2825.102</ele>
        <time>2011-04-22T10:27:30Z</time>
      </trkpt>
      <trkpt lat="31.88921" lon="-5.68692">
        <ele>2805.598</ele>
        <time>2011-04-22T10:28:34Z</time>
      </trkpt>
      <trkpt lat="31.8869" lon="-5.69184">
        <ele>2780.995</ele>
        <time>2011-04-22T10:30:01Z</time>
      </trkpt>
      <trkpt lat="31.88446" lon="-5.69663">
        <ele>2761.616</ele>
        <time>2011-04-22T10:31:19Z</time>
      </trkpt>
      <trkpt lat="31.87994" lon="-5.69961">
        <ele>2736.606</ele>
        <time>2011-04-22T10:32:45Z</time>
      </trkpt>
      <trkpt lat="31.87799" lon="-5.70414">
        <ele>2706.134</ele>
        <time>2011-04-22T10:34:01Z</time>
      </trkpt>
      <trkpt lat="31.87699" lon="-5.7087">
        <ele>2671.409</ele>
        <time>2011-04-22T10:35:25Z</time>
      </trkpt>
      <trkpt lat="31.8735" lon="-5.71191">
        <ele>2635.662</ele>
        <time>2011-04-22T10:36:50Z</time>
      </trkpt>
      <trkpt lat="31.87025" lon="-5.71571">
        <ele>2611.455</ele>
        <time>2011-04-22T10:37:50Z</time>
      </trkpt>
      <trkpt lat="31.86741" lon="-5.71994">
        <ele>2577.498</ele>
        <time>2011-04-22T10:38:57Z</time>
      </trkpt>
      <trkpt lat="31.86457" lon="-5.7268">
        <ele>2532.079</ele>
        <time>2011-04-22T10:41:44Z</time>
      </trkpt>
      <trkpt lat="31.863" lon="-5.72256">
        <ele>2504.275</ele>
        <time>2011-04-22T10:42:59Z</time>
      </trkpt>
      <trkpt lat="31.86077" lon="-5.72136">
        <ele>2460.497</ele>
        <time>2011-04-22T10:44:59Z</time>
      </trkpt>
      <trkpt lat="31.85917" lon="-5.72082">
        <ele>2419.427</ele>
        <time>2011-04-22T10:47:00Z</time>
      </trkpt>
      <trkpt lat="31.85508" lon="-5.72164">
        <ele>2353.911</ele>
        <time>2011-04-22T10:49:28Z</time>
      </trkpt>
      <trkpt lat="31.85931" lon="-5.72484">
        <ele>2329.507</ele>
        <time>2011-04-22T10:51:08Z</time>
      </trkpt>
      <trkpt lat="31.85267" lon="-5.72696">
        <ele>2277.41</ele>
        <time>2011-04-22T10:53:24Z</time>
      </trkpt>
      <trkpt lat="31.85166" lon="-5.72955">
        <ele>2234.62</ele>
        <time>2011-04-22T10:55:24Z</time>
      </trkpt>
      <trkpt lat="31.85059" lon="-5.73143">
        <ele>2190.916</ele>
        <time>2011-04-22T10:57:38Z</time>
      </trkpt>
      <trkpt lat="31.84848" lon="-5.7322">
        <ele>2150.063</ele>
        <time>2011-04-22T10:59:09Z</time>
      </trkpt>
      <trkpt lat="31.84136" lon="-5.72924">
        <ele>2119.375</ele>
        <time>2011-04-22T11:01:08Z</time>
      </trkpt>
      <trkpt lat="31.83921" lon="-5.73471">
        <ele>2112.295</ele>
        <time>2011-04-22T11:03:02Z</time>
      </trkpt>
      <trkpt lat="31.83448" lon="-5.73862">
        <ele>2102.816</ele>
        <time>2011-04-22T11:04:21Z</time>
      </trkpt>
      <trkpt lat="31.83664" lon="-5.74259">
        <ele>2107.189</ele>
        <time>2011-04-22T11:05:17Z</time>
      </trkpt>
      <trkpt lat="31.83298" lon="-5.74728">
        <ele>2107.65</ele>
        <time>2011-04-22T11:06:10Z</time>
      </trkpt>
      <trkpt lat="31.83423" lon="-5.75295">
        <ele>2102.916</ele>
        <time>2011-04-22T11:07:04Z</time>
      </trkpt>
      <trkpt lat="31.83522" lon="-5.75938">
        <ele>2096.534</ele>
        <time>2011-04-22T11:07:43Z</time>
      </trkpt>
      <trkpt lat="31.82815" lon="-5.76123">
        <ele>2082.773</ele>
        <time>2011-04-22T11:08:43Z</time>
      </trkpt>
      <trkpt lat="31.81861" lon="-5.76517">
        <ele>2076.293</ele>
        <time>2011-04-22T11:09:55Z</time>
      </trkpt>
      <trkpt lat="31.81377" lon="-5.76939">
        <ele>2070.641</ele>
        <time>2011-04-22T11:10:41Z</time>
      </trkpt>
      <trkpt lat="31.81217" lon="-5.77405">
        <ele>2068.47</ele>
        <time>2011-04-22T11:12:25Z</time>
      </trkpt>
      <trkpt lat="31.80585" lon="-5.77609">
        <ele>2067.178</ele>
        <time>2011-04-22T11:13:23Z</time>
      </trkpt>
      <trkpt lat="31.80041" lon="-5.77633">
        <ele>2067.656</ele>
        <time>2011-04-22T11:14:21Z</time>
      </trkpt>
      <trkpt lat="31.79769" lon="-5.7775">
        <ele>2050.93</ele>
        <time>2011-04-22T11:15:09Z</time>
      </trkpt>
      <trkpt lat="31.79307" lon="-5.77654">
        <ele>2053.541</ele>
        <time>2011-04-22T11:17:19Z</time>
      </trkpt>
      <trkpt lat="31.78373" lon="-5.78245">
        <ele>2052.807</ele>
        <time>2011-04-22T11:19:12Z</time>
      </trkpt>
      <trkpt lat="31.77687" lon="-5.78387">
        <ele>2046.1</ele>
        <time>2011-04-22T11:20:10Z</time>
      </trkpt>
      <trkpt lat="31.76893" lon="-5.78018">
        <ele>2075.626</ele>
        <time>2011-04-22T11:21:32Z</time>
      </trkpt>
      <trkpt lat="31.7599" lon="-5.78037">
        <ele>2062.236</ele>
        <time>2011-04-22T11:22:40Z</time>
      </trkpt>
      <trkpt lat="31.75694" lon="-5.78447">
        <ele>2060.917</ele>
        <time>2011-04-22T11:23:13Z</time>
      </trkpt>
      <trkpt lat="31.75409" lon="-5.79452">
        <ele>2054.78</ele>
        <time>2011-04-22T11:24:07Z</time>
      </trkpt>
      <trkpt lat="31.75193" lon="-5.79938">
        <ele>2039.242</ele>
        <time>2011-04-22T11:24:37Z</time>
      </trkpt>
      <trkpt lat="31.74353" lon="-5.79966">
        <ele>2011.171</ele>
        <time>2011-04-22T11:26:02Z</time>
      </trkpt>
      <trkpt lat="31.7385" lon="-5.80084">
        <ele>2007.961</ele>
        <time>2011-04-22T11:27:17Z</time>
      </trkpt>
      <trkpt lat="31.72448" lon="-5.80587">
        <ele>2000.85</ele>
        <time>2011-04-22T11:29:13Z</time>
      </trkpt>
      <trkpt lat="31.72039" lon="-5.80299">
        <ele>2036.945</ele>
        <time>2011-04-22T11:29:48Z</time>
      </trkpt>
      <trkpt lat="31.71365" lon="-5.80524">
        <ele>2019.606</ele>
        <time>2011-04-22T11:30:43Z</time>
      </trkpt>
      <trkpt lat="31.708" lon="-5.80658">
        <ele>2006.04</ele>
        <time>2011-04-22T11:31:46Z</time>
      </trkpt>
      <trkpt lat="31.70299" lon="-5.81255">
        <ele>1979.053</ele>
        <time>2011-04-22T11:32:34Z</time>
      </trkpt>
      <trkpt lat="31.6982" lon="-5.81662">
        <ele>1971.745</ele>
        <time>2011-04-22T11:34:07Z</time>
      </trkpt>
      <trkpt lat="31.69266" lon="-5.82514">
        <ele>1961.9</ele>
        <time>2011-04-22T11:35:54Z</time>
      </trkpt>
      <trkpt lat="31.6873" lon="-5.82541">
        <ele>1943.769</ele>
        <time>2011-04-22T11:36:39Z</time>
      </trkpt>
      <trkpt lat="31.67869" lon="-5.83369">
        <ele>1935.211</ele>
        <time>2011-04-22T11:38:06Z</time>
      </trkpt>
      <trkpt lat="31.67338" lon="-5.83395">
        <ele>1930.352</ele>
        <time>2011-04-22T11:38:46Z</time>
      </trkpt>
      <trkpt lat="31.66938" lon="-5.83271">
        <ele>1925.929</ele>
        <time>2011-04-22T11:40:06Z</time>
      </trkpt>
      <trkpt lat="31.66671" lon="-5.83186">
        <ele>1960.073</ele>
        <time>2011-04-22T11:40:57Z</time>
      </trkpt>
      <trkpt lat="31.66321" lon="-5.83129">
        <ele>2006.793</ele>
        <time>2011-04-22T11:41:36Z</time>
      </trkpt>
      <trkpt lat="31.65981" lon="-5.83735">
        <ele>2010.618</ele>
        <time>2011-04-22T11:52:48Z</time>
      </trkpt>
      <trkpt lat="31.65596" lon="-5.84408">
        <ele>2045.761</ele>
        <time>2011-04-22T11:53:56Z</time>
      </trkpt>
      <trkpt lat="31.65185" lon="-5.84661">
        <ele>2017.999</ele>
        <time>2011-04-22T11:55:15Z</time>
      </trkpt>
      <trkpt lat="31.64785" lon="-5.84333">
        <ele>1971.075</ele>
        <time>2011-04-22T11:56:28Z</time>
      </trkpt>
      <trkpt lat="31.64726" lon="-5.84437">
        <ele>1939.151</ele>
        <time>2011-04-22T11:57:18Z</time>
      </trkpt>
      <trkpt lat="31.64296" lon="-5.8411">
        <ele>1909.368</ele>
        <time>2011-04-22T11:58:02Z</time>
      </trkpt>
      <trkpt lat="31.64163" lon="-5.84238">
        <ele>1862.139</ele>
        <time>2011-04-22T11:59:16Z</time>
      </trkpt>
      <trkpt lat="31.63589" lon="-5.84084">
        <ele>1850.339</ele>
        <time>2011-04-22T12:00:49Z</time>
      </trkpt>
      <trkpt lat="31.63069" lon="-5.83955">
        <ele>1852.987</ele>
        <time>2011-04-22T12:01:35Z</time>
      </trkpt>
      <trkpt lat="31.63038" lon="-5.84512">
        <ele>1843.82</ele>
        <time>2011-04-22T12:02:25Z</time>
      </trkpt>
      <trkpt lat="31.62699" lon="-5.84831">
        <ele>1836.187</ele>
        <time>2011-04-22T12:03:12Z</time>
      </trkpt>
      <trkpt lat="31.6209" lon="-5.85202">
        <ele>1833.834</ele>
        <time>2011-04-22T12:04:13Z</time>
      </trkpt>
      <trkpt lat="31.61792" lon="-5.85519">
        <ele>1820.23</ele>
        <time>2011-04-22T12:05:07Z</time>
      </trkpt>
      <trkpt lat="31.61487" lon="-5.85916">
        <ele>1845.091</ele>
        <time>2011-04-22T12:05:44Z</time>
      </trkpt>
      <trkpt lat="31.60817" lon="-5.85731">
        <ele>1817.302</ele>
        <time>2011-04-22T12:06:34Z</time>
      </trkpt>
      <trkpt lat="31.60576" lon="-5.8621">
        <ele>1812.074</ele>
        <time>2011-04-22T12:07:09Z</time>
      </trkpt>
      <trkpt lat="31.59776" lon="-5.86507">
        <ele>1796.953</ele>
        <time>2011-04-22T12:08:18Z</time>
      </trkpt>
      <trkpt lat="31.59324" lon="-5.86912">
        <ele>1797.442</ele>
        <time>2011-04-22T12:09:09Z</time>
      </trkpt>
      <trkpt lat="31.58606" lon="-5.87538">
        <ele>1797.915</ele>
        <time>2011-04-22T12:10:40Z</time>
      </trkpt>
      <trkpt lat="31.57955" lon="-5.87929">
        <ele>1778.251</ele>
        <time>2011-04-22T12:11:46Z</time>
      </trkpt>
      <trkpt lat="31.58044" lon="-5.88772">
        <ele>1786.093</ele>
        <time>2011-04-22T12:13:04Z</time>
      </trkpt>
      <trkpt lat="31.57447" lon="-5.89388">
        <ele>1780.889</ele>
        <time>2011-04-22T12:14:21Z</time>
      </trkpt>
      <trkpt lat="31.56963" lon="-5.89716">
        <ele>1802.782</ele>
        <time>2011-04-22T12:15:04Z</time>
      </trkpt>
      <trkpt lat="31.56694" lon="-5.89948">
        <ele>1797.542</ele>
        <time>2011-04-22T12:15:50Z</time>
      </trkpt>
      <trkpt lat="31.56553" lon="-5.90319">
        <ele>1768.554</ele>
        <time>2011-04-22T12:16:35Z</time>
      </trkpt>
      <trkpt lat="31.56149" lon="-5.90661">
        <ele>1741.18</ele>
        <time>2011-04-22T12:17:30Z</time>
      </trkpt>
      <trkpt lat="31.55235" lon="-5.90755">
        <ele>1718.01</ele>
        <time>2011-04-22T12:22:09Z</time>
      </trkpt>
      <trkpt lat="31.54878" lon="-5.91124">
        <ele>1732.09</ele>
        <time>2011-04-22T14:34:25Z</time>
      </trkpt>
      <trkpt lat="31.54388" lon="-5.91391">
        <ele>1752.25</ele>
        <time>2011-04-22T14:35:05Z</time>
      </trkpt>
      <trkpt lat="31.54093" lon="-5.91776">
        <ele>1748.077</ele>
        <time>2011-04-22T14:35:45Z</time>
      </trkpt>
      <trkpt lat="31.53632" lon="-5.91987">
        <ele>1746.241</ele>
        <time>2011-04-22T14:37:52Z</time>
      </trkpt>
      <trkpt lat="31.53322" lon="-5.9233">
        <ele>1818.873</ele>
        <time>2011-04-22T14:39:08Z</time>
      </trkpt>
      <trkpt lat="31.52771" lon="-5.92485">
        <ele>1799.282</ele>
        <time>2011-04-22T14:41:21Z</time>
      </trkpt>
      <trkpt lat="31.52496" lon="-5.92669">
        <ele>1712.644</ele>
        <time>2011-04-22T14:44:37Z</time>
      </trkpt>
      <trkpt lat="31.51883" lon="-5.93161">
        <ele>1695.677</ele>
        <time>2011-04-22T14:47:27Z</time>
      </trkpt>
      <trkpt lat="31.51405" lon="-5.93413">
        <ele>1693.262</ele>
        <time>2011-04-22T14:48:01Z</time>
      </trkpt>
      <trkpt lat="31.50859" lon="-5.94056">
        <ele>1690.344</ele>
        <time>2011-04-22T14:48:59Z</time>
      </trkpt>
      <trkpt lat="31.50478" lon="-5.94501">
        <ele>1678.615</ele>
        <time>2011-04-22T14:49:50Z</time>
      </trkpt>
      <trkpt lat="31.50009" lon="-5.94648">
        <ele>1687.467</ele>
        <time>2011-04-22T14:50:40Z</time>
      </trkpt>
      <trkpt lat="31.49626" lon="-5.9498">
        <ele>1676.438</ele>
        <time>2011-04-22T14:51:19Z</time>
      </trkpt>
      <trkpt lat="31.49031" lon="-5.95171">
        <ele>1670.492</ele>
        <time>2011-04-22T14:52:14Z</time>
      </trkpt>
      <trkpt lat="31.4848" lon="-5.9565">
        <ele>1670.766</ele>
        <time>2011-04-22T14:53:15Z</time>
      </trkpt>
      <trkpt lat="31.48079" lon="-5.96037">
        <ele>1675.615</ele>
        <time>2011-04-22T14:53:59Z</time>
      </trkpt>
      <trkpt lat="31.47682" lon="-5.96332">
        <ele>1662.704</ele>
        <time>2011-04-22T14:54:38Z</time>
      </trkpt>
      <trkpt lat="31.4702" lon="-5.96726">
        <ele>1661.847</ele>
        <time>2011-04-22T14:55:32Z</time>
      </trkpt>
      <trkpt lat="31.46356" lon="-5.97211">
        <ele>1654.034</ele>
        <time>2011-04-22T14:56:36Z</time>
      </trkpt>
      <trkpt lat="31.45879" lon="-5.97499">
        <ele>1653.945</ele>
        <time>2011-04-22T14:57:13Z</time>
      </trkpt>
      <trkpt lat="31.45387" lon="-5.97241">
        <ele>1654.341</ele>
        <time>2011-04-22T14:58:19Z</time>
      </trkpt>
      <trkpt lat="31.44936" lon="-5.97037">
        <ele>1656.881</ele>
        <time>2011-04-22T14:59:13Z</time>
      </trkpt>
      <trkpt lat="31.44884" lon="-5.97606">
        <ele>1664.38</ele>
        <time>2011-04-22T15:00:04Z</time>
      </trkpt>
      <trkpt lat="31.44674" lon="-5.98072">
        <ele>1666.309</ele>
        <time>2011-04-22T15:02:15Z</time>
      </trkpt>
      <trkpt lat="31.44411" lon="-5.98709">
        <ele>1634.192</ele>
        <time>2011-04-22T15:03:14Z</time>
      </trkpt>
      <trkpt lat="31.44002" lon="-5.99184">
        <ele>1632.39</ele>
        <time>2011-04-22T15:04:15Z</time>
      </trkpt>
      <trkpt lat="31.43751" lon="-5.99594">
        <ele>1652.724</ele>
        <time>2011-04-22T15:05:28Z</time>
      </trkpt>
      <trkpt lat="31.437" lon="-6.00268">
        <ele>1648.988</ele>
        <time>2011-04-22T15:06:23Z</time>
      </trkpt>
      <trkpt lat="31.43938" lon="-6.00842">
        <ele>1664.601</ele>
        <time>2011-04-22T15:07:40Z</time>
      </trkpt>
      <trkpt lat="31.44307" lon="-6.01211">
        <ele>1683.309</ele>
        <time>2011-04-22T15:09:15Z</time>
      </trkpt>
      <trkpt lat="31.44116" lon="-6.01353">
        <ele>1679.88</ele>
        <time>2011-04-22T15:09:59Z</time>
      </trkpt>
      <trkpt lat="31.43676" lon="-6.01141">
        <ele>1636.406</ele>
        <time>2011-04-22T15:11:03Z</time>
      </trkpt>
      <trkpt lat="31.4318" lon="-6.01432">
        <ele>1643.228</ele>
        <time>2011-04-22T15:13:20Z</time>
      </trkpt>
      <trkpt lat="31.42718" lon="-6.01473">
        <ele>1602.618</ele>
        <time>2011-04-22T15:14:16Z</time>
      </trkpt>
      <trkpt lat="31.42366" lon="-6.01132">
        <ele>1612.828</ele>
        <time>2011-04-22T15:14:51Z</time>
      </trkpt>
      <trkpt lat="31.41927" lon="-6.00612">
        <ele>1595.396</ele>
        <time>2011-04-22T15:15:46Z</time>
      </trkpt>
      <trkpt lat="31.41317" lon="-6.00217">
        <ele>1588.878</ele>
        <time>2011-04-22T15:16:42Z</time>
      </trkpt>
      <trkpt lat="31.41489" lon="-5.99639">
        <ele>1587.511</ele>
        <time>2011-04-22T15:17:39Z</time>
      </trkpt>
      <trkpt lat="31.41253" lon="-5.99001">
        <ele>1578.961</ele>
        <time>2011-04-22T15:18:33Z</time>
      </trkpt>
      <trkpt lat="31.40688" lon="-5.99231">
        <ele>1574.504</ele>
        <time>2011-04-22T15:19:19Z</time>
      </trkpt>
      <trkpt lat="31.40074" lon="-5.9897">
        <ele>1580.796</ele>
        <time>2011-04-22T15:20:13Z</time>
      </trkpt>
      <trkpt lat="31.39368" lon="-5.99251">
        <ele>1566.146</ele>
        <time>2011-04-22T15:21:12Z</time>
      </trkpt>
      <trkpt lat="31.38657" lon="-5.99026">
        <ele>1554.259</ele>
        <time>2011-04-22T15:22:04Z</time>
      </trkpt>
      <trkpt lat="31.37879" lon="-5.99325">
        <ele>1568.538</ele>
        <time>2011-04-22T15:22:57Z</time>
      </trkpt>
      <trkpt lat="31.37443" lon="-5.98851">
        <ele>1545.524</ele>
        <time>2011-04-22T15:24:16Z</time>
      </trkpt>
      <trkpt lat="31.36787" lon="-5.98686">
        <ele>1593.785</ele>
        <time>2011-04-22T15:32:22Z</time>
      </trkpt>
      <trkpt lat="31.3678" lon="-5.98128">
        <ele>1592.301</ele>
        <time>2011-04-22T16:45:47Z</time>
      </trkpt>
      <trkpt lat="31.36419" lon="-5.9153">
        <ele>1573.285</ele>
        <time>2011-04-22T16:54:10Z</time>
      </trkpt>
      <trkpt lat="31.36437" lon="-5.9091">
        <ele>1572.094</ele>
        <time>2011-04-22T16:54:31Z</time>
      </trkpt>
      <trkpt lat="31.37555" lon="-5.88463">
        <ele>1543.314</ele>
        <time>2011-04-22T16:56:04Z</time>
      </trkpt>
      <trkpt lat="31.36796" lon="-5.8531">
        <ele>1511.496</ele>
        <time>2011-04-22T16:57:55Z</time>
      </trkpt>
      <trkpt lat="31.3708" lon="-5.83953">
        <ele>1497.074</ele>
        <time>2011-04-22T16:58:41Z</time>
      </trkpt>
      <trkpt lat="31.374" lon="-5.83085">
        <ele>1500.168</ele>
        <time>2011-04-22T16:59:14Z</time>
      </trkpt>
      <trkpt lat="31.37586" lon="-5.82081">
        <ele>1505.704</ele>
        <time>2011-04-22T16:59:48Z</time>
      </trkpt>
      <trkpt lat="31.38283" lon="-5.80549">
        <ele>1478.127</ele>
        <time>2011-04-22T17:00:49Z</time>
      </trkpt>
      <trkpt lat="31.38024" lon="-5.80127">
        <ele>1476.526</ele>
        <time>2011-04-22T17:01:10Z</time>
      </trkpt>
      <trkpt lat="31.37206" lon="-5.79682">
        <ele>1454.731</ele>
        <time>2011-04-22T17:02:02Z</time>
      </trkpt>
      <trkpt lat="31.36979" lon="-5.78959">
        <ele>1443.714</ele>
        <time>2011-04-22T17:02:37Z</time>
      </trkpt>
      <trkpt lat="31.37196" lon="-5.77994">
        <ele>1439.668</ele>
        <time>2011-04-22T17:03:21Z</time>
      </trkpt>
      <trkpt lat="31.38289" lon="-5.76547">
        <ele>1427.36</ele>
        <time>2011-04-22T17:04:29Z</time>
      </trkpt>
      <trkpt lat="31.38812" lon="-5.75307">
        <ele>1420.954</ele>
        <time>2011-04-22T17:05:15Z</time>
      </trkpt>
      <trkpt lat="31.38924" lon="-5.74717">
        <ele>1417.35</ele>
        <time>2011-04-22T17:05:36Z</time>
      </trkpt>
      <trkpt lat="31.39481" lon="-5.74066">
        <ele>1404.725</ele>
        <time>2011-04-22T17:06:09Z</time>
      </trkpt>
      <trkpt lat="31.39776" lon="-5.73311">
        <ele>1401.209</ele>
        <time>2011-04-22T17:06:38Z</time>
      </trkpt>
      <trkpt lat="31.40146" lon="-5.72803">
        <ele>1405.831</ele>
        <time>2011-04-22T17:07:02Z</time>
      </trkpt>
      <trkpt lat="31.40407" lon="-5.71953">
        <ele>1393.096</ele>
        <time>2011-04-22T17:07:32Z</time>
      </trkpt>
      <trkpt lat="31.41206" lon="-5.70643">
        <ele>1387.744</ele>
        <time>2011-04-22T17:08:40Z</time>
      </trkpt>
      <trkpt lat="31.41891" lon="-5.68745">
        <ele>1378.505</ele>
        <time>2011-04-22T17:09:51Z</time>
      </trkpt>
      <trkpt lat="31.42885" lon="-5.6695">
        <ele>1377.452</ele>
        <time>2011-04-22T17:11:02Z</time>
      </trkpt>
      <trkpt lat="31.43121" lon="-5.66268">
        <ele>1379.456</ele>
        <time>2011-04-22T17:11:28Z</time>
      </trkpt>
      <trkpt lat="31.43524" lon="-5.65461">
        <ele>1390.359</ele>
        <time>2011-04-22T17:12:00Z</time>
      </trkpt>
      <trkpt lat="31.43908" lon="-5.65045">
        <ele>1381.45</ele>
        <time>2011-04-22T17:12:21Z</time>
      </trkpt>
      <trkpt lat="31.43917" lon="-5.64282">
        <ele>1370.977</ele>
        <time>2011-04-22T17:12:47Z</time>
      </trkpt>
      <trkpt lat="31.45313" lon="-5.61062">
        <ele>1336.095</ele>
        <time>2011-04-22T17:14:45Z</time>
      </trkpt>
      <trkpt lat="31.46252" lon="-5.59281">
        <ele>1319.566</ele>
        <time>2011-04-22T17:15:55Z</time>
      </trkpt>
      <trkpt lat="31.4641" lon="-5.58765">
        <ele>1318.618</ele>
        <time>2011-04-22T17:16:13Z</time>
      </trkpt>
      <trkpt lat="31.47022" lon="-5.57606">
        <ele>1311.158</ele>
        <time>2011-04-22T17:16:57Z</time>
      </trkpt>
      <trkpt lat="31.48704" lon="-5.55399">
        <ele>1308.017</ele>
        <time>2011-04-22T17:18:49Z</time>
      </trkpt>
      <trkpt lat="31.49312" lon="-5.54741">
        <ele>1299.802</ele>
        <time>2011-04-22T17:19:30Z</time>
      </trkpt>
      <trkpt lat="31.50433" lon="-5.54009">
        <ele>1301.952</ele>
        <time>2011-04-22T17:21:01Z</time>
      </trkpt>
      <trkpt lat="31.51" lon="-5.53868">
        <ele>1302.714</ele>
        <time>2011-04-22T17:21:49Z</time>
      </trkpt>
      <trkpt lat="31.51444" lon="-5.53858">
        <ele>1314.132</ele>
        <time>2011-04-22T17:22:34Z</time>
      </trkpt>
      <trkpt lat="31.52042" lon="-5.53327">
        <ele>1310.302</ele>
        <time>2011-04-22T17:23:47Z</time>
      </trkpt>
      <trkpt lat="31.52336" lon="-5.52926">
        <ele>1310.576</ele>
        <time>2011-04-22T17:24:47Z</time>
      </trkpt>
      <trkpt lat="31.52919" lon="-5.52874">
        <ele>1304.23</ele>
        <time>2011-04-22T17:25:51Z</time>
      </trkpt>
      <trkpt lat="31.53243" lon="-5.52424">
        <ele>1311.246</ele>
        <time>2011-04-22T17:26:47Z</time>
      </trkpt>
      <trkpt lat="31.53091" lon="-5.51863">
        <ele>1310.644</ele>
        <time>2011-04-22T17:27:20Z</time>
      </trkpt>
      <trkpt lat="31.52179" lon="-5.50993">
        <ele>1299.753</ele>
        <time>2011-04-22T17:28:24Z</time>
      </trkpt>
      <trkpt lat="31.51454" lon="-5.49987">
        <ele>1301.59</ele>
        <time>2011-04-22T17:29:22Z</time>
      </trkpt>
      <trkpt lat="31.50824" lon="-5.48983">
        <ele>1289.176</ele>
        <time>2011-04-22T17:30:01Z</time>
      </trkpt>
      <trkpt lat="31.49855" lon="-5.46749">
        <ele>1259.881</ele>
        <time>2011-04-22T17:31:23Z</time>
      </trkpt>
      <trkpt lat="31.49618" lon="-5.45829">
        <ele>1252.02</ele>
        <time>2011-04-22T17:31:53Z</time>
      </trkpt>
      <trkpt lat="31.49596" lon="-5.45255">
        <ele>1247.031</ele>
        <time>2011-04-22T17:32:13Z</time>
      </trkpt>
      <trkpt lat="31.48332" lon="-5.42618">
        <ele>1225.958</ele>
        <time>2011-04-22T17:33:51Z</time>
      </trkpt>
      <trkpt lat="31.47361" lon="-5.40884">
        <ele>1203.631</ele>
        <time>2011-04-22T17:35:42Z</time>
      </trkpt>
      <trkpt lat="31.45612" lon="-5.368">
        <ele>1179.83</ele>
        <time>2011-04-22T17:39:10Z</time>
      </trkpt>
      <trkpt lat="31.45386" lon="-5.35356">
        <ele>1177.822</ele>
        <time>2011-04-22T17:39:59Z</time>
      </trkpt>
      <trkpt lat="31.45068" lon="-5.3445">
        <ele>1179.752</ele>
        <time>2011-04-22T17:40:31Z</time>
      </trkpt>
      <trkpt lat="31.44678" lon="-5.33845">
        <ele>1165.374</ele>
        <time>2011-04-22T17:40:58Z</time>
      </trkpt>
      <trkpt lat="31.44473" lon="-5.32534">
        <ele>1159.227</ele>
        <time>2011-04-22T17:41:43Z</time>
      </trkpt>
      <trkpt lat="31.4464" lon="-5.30041">
        <ele>1159.787</ele>
        <time>2011-04-22T17:43:01Z</time>
      </trkpt>
      <trkpt lat="31.44861" lon="-5.2879">
        <ele>1162.279</ele>
        <time>2011-04-22T17:43:41Z</time>
      </trkpt>
      <trkpt lat="31.44948" lon="-5.28025">
        <ele>1161.592</ele>
        <time>2011-04-22T17:44:06Z</time>
      </trkpt>
      <trkpt lat="31.4506" lon="-5.26111">
        <ele>1142.127</ele>
        <time>2011-04-22T17:45:07Z</time>
      </trkpt>
      <trkpt lat="31.45322" lon="-5.25373">
        <ele>1144.156</ele>
        <time>2011-04-22T17:45:33Z</time>
      </trkpt>
      <trkpt lat="31.4535" lon="-5.24066">
        <ele>1133.868</ele>
        <time>2011-04-22T17:46:14Z</time>
      </trkpt>
      <trkpt lat="31.46157" lon="-5.21722">
        <ele>1124.343</ele>
        <time>2011-04-22T17:47:34Z</time>
      </trkpt>
      <trkpt lat="31.46143" lon="-5.19929">
        <ele>1107.2</ele>
        <time>2011-04-22T17:48:30Z</time>
      </trkpt>
      <trkpt lat="31.46264" lon="-5.18744">
        <ele>1101.842</ele>
        <time>2011-04-22T17:49:08Z</time>
      </trkpt>
      <trkpt lat="31.46415" lon="-5.17594">
        <ele>1084.91</ele>
        <time>2011-04-22T17:49:45Z</time>
      </trkpt>
      <trkpt lat="31.48168" lon="-5.14562">
        <ele>1070.248</ele>
        <time>2011-04-22T17:51:41Z</time>
      </trkpt>
      <trkpt lat="31.48614" lon="-5.13025">
        <ele>1070.596</ele>
        <time>2011-04-22T17:52:32Z</time>
      </trkpt>
      <trkpt lat="31.49003" lon="-5.11486">
        <ele>1058.417</ele>
        <time>2011-04-22T17:53:23Z</time>
      </trkpt>
      <trkpt lat="31.4925" lon="-5.10806">
        <ele>1048.439</ele>
        <time>2011-04-22T17:53:46Z</time>
      </trkpt>
      <trkpt lat="31.49318" lon="-5.10106">
        <ele>1051.029</ele>
        <time>2011-04-22T17:54:11Z</time>
      </trkpt>
      <trkpt lat="31.49684" lon="-5.09109">
        <ele>1043.644</ele>
        <time>2011-04-22T17:54:55Z</time>
      </trkpt>
      <trkpt lat="31.4987" lon="-5.08562">
        <ele>1037.952</ele>
        <time>2011-04-22T17:55:21Z</time>
      </trkpt>
      <trkpt lat="31.4988" lon="-5.07599">
        <ele>1031.38</ele>
        <time>2011-04-22T17:56:07Z</time>
      </trkpt>
      <trkpt lat="31.50046" lon="-5.06491">
        <ele>1029.404</ele>
        <time>2011-04-22T17:57:14Z</time>
      </trkpt>
      <trkpt lat="31.50477" lon="-5.04868">
        <ele>1028.761</ele>
        <time>2011-04-22T17:59:24Z</time>
      </trkpt>
      <trkpt lat="31.51002" lon="-5.03005">
        <ele>1017.709</ele>
        <time>2011-04-22T18:01:27Z</time>
      </trkpt>
      <trkpt lat="31.51596" lon="-5.0155">
        <ele>1010.408</ele>
        <time>2011-04-22T18:02:48Z</time>
      </trkpt>
      <trkpt lat="31.51975" lon="-5.00899">
        <ele>1014.498</ele>
        <time>2011-04-22T18:03:18Z</time>
      </trkpt>
      <trkpt lat="31.52607" lon="-5.00845">
        <ele>1012.202</ele>
        <time>2011-04-22T18:03:48Z</time>
      </trkpt>
      <trkpt lat="31.53805" lon="-5.01109">
        <ele>1002.958</ele>
        <time>2011-04-22T18:04:57Z</time>
      </trkpt>
      <trkpt lat="31.58335" lon="-4.99223">
        <ele>1015.086</ele>
        <time>2011-04-22T18:08:13Z</time>
      </trkpt>
      <trkpt lat="31.60765" lon="-4.98772">
        <ele>1028.91</ele>
        <time>2011-04-22T18:09:47Z</time>
      </trkpt>
      <trkpt lat="31.61431" lon="-4.9845">
        <ele>1024.469</ele>
        <time>2011-04-22T18:10:17Z</time>
      </trkpt>
      <trkpt lat="31.64194" lon="-4.97457">
        <ele>1036.669</ele>
        <time>2011-04-22T18:12:24Z</time>
      </trkpt>
      <trkpt lat="31.65115" lon="-4.97263">
        <ele>1032.962</ele>
        <time>2011-04-22T18:12:54Z</time>
      </trkpt>
      <trkpt lat="31.65769" lon="-4.96991">
        <ele>1033.522</ele>
        <time>2011-04-22T18:13:21Z</time>
      </trkpt>
      <trkpt lat="31.66364" lon="-4.9687">
        <ele>1034.739</ele>
        <time>2011-04-22T18:13:44Z</time>
      </trkpt>
      <trkpt lat="31.67637" lon="-4.96515">
        <ele>1029.263</ele>
        <time>2011-04-22T18:14:47Z</time>
      </trkpt>
      <trkpt lat="31.6809" lon="-4.96277">
        <ele>1028.861</ele>
        <time>2011-04-22T18:15:21Z</time>
      </trkpt>
      <trkpt lat="31.69293" lon="-4.9528">
        <ele>1031.05</ele>
        <time>2011-04-22T18:18:32Z</time>
      </trkpt>
      <trkpt lat="31.69762" lon="-4.95962">
        <ele>1037.065</ele>
        <time>2011-04-22T18:19:55Z</time>
      </trkpt>
      <trkpt lat="31.69937" lon="-4.96747">
        <ele>1039.886</ele>
        <time>2011-04-22T18:21:14Z</time>
      </trkpt>
      <trkpt lat="31.69934" lon="-4.97539">
        <ele>1042.9</ele>
        <time>2011-04-22T18:22:46Z</time>
      </trkpt>
      <trkpt lat="31.70934" lon="-4.97846">
        <ele>1047.328</ele>
        <time>2011-04-22T18:24:18Z</time>
      </trkpt>
      <trkpt lat="31.71973" lon="-4.98277">
        <ele>1054.893</ele>
        <time>2011-04-22T18:25:36Z</time>
      </trkpt>
      <trkpt lat="31.72513" lon="-4.98682">
        <ele>1060.442</ele>
        <time>2011-04-22T18:26:13Z</time>
      </trkpt>
      <trkpt lat="31.73224" lon="-4.98387">
        <ele>1065.062</ele>
        <time>2011-04-22T18:27:16Z</time>
      </trkpt>
      <trkpt lat="31.75151" lon="-4.98415">
        <ele>1076.113</ele>
        <time>2011-04-22T18:28:52Z</time>
      </trkpt>
      <trkpt lat="31.7562" lon="-4.98188">
        <ele>1071.985</ele>
        <time>2011-04-22T18:29:22Z</time>
      </trkpt>
      <trkpt lat="31.75721" lon="-4.97703">
        <ele>1072.72</ele>
        <time>2011-04-22T18:30:25Z</time>
      </trkpt>
      <trkpt lat="31.76577" lon="-4.97477">
        <ele>1082.788</ele>
        <time>2011-04-22T18:33:11Z</time>
      </trkpt>
      <trkpt lat="31.77069" lon="-4.97178">
        <ele>1090.613</ele>
        <time>2011-04-22T18:33:38Z</time>
      </trkpt>
      <trkpt lat="31.77781" lon="-4.9672">
        <ele>1094.924</ele>
        <time>2011-04-22T18:34:19Z</time>
      </trkpt>
      <trkpt lat="31.78517" lon="-4.96286">
        <ele>1096.49</ele>
        <time>2011-04-22T18:34:56Z</time>
      </trkpt>
      <trkpt lat="31.80913" lon="-4.95227">
        <ele>1109.271</ele>
        <time>2011-04-22T18:37:01Z</time>
      </trkpt>
      <trkpt lat="31.81571" lon="-4.95419">
        <ele>1106.528</ele>
        <time>2011-04-22T18:37:53Z</time>
      </trkpt>
      <trkpt lat="31.81527" lon="-4.9596">
        <ele>1106.742</ele>
        <time>2011-04-22T18:39:13Z</time>
      </trkpt>
      <trkpt lat="31.81812" lon="-4.96603">
        <ele>1108.831</ele>
        <time>2011-04-22T18:41:11Z</time>
      </trkpt>
      <trkpt lat="31.81779" lon="-4.96783">
        <ele>1114.302</ele>
        <time>2011-04-24T09:54:18Z</time>
      </trkpt>
      <trkpt lat="31.8151" lon="-4.96035">
        <ele>1111.684</ele>
        <time>2011-04-24T09:57:23Z</time>
      </trkpt>
      <trkpt lat="31.81622" lon="-4.95473">
        <ele>1109.891</ele>
        <time>2011-04-24T09:59:03Z</time>
      </trkpt>
      <trkpt lat="31.81211" lon="-4.95136">
        <ele>1107.5</ele>
        <time>2011-04-24T09:59:45Z</time>
      </trkpt>
      <trkpt lat="31.78587" lon="-4.96254">
        <ele>1096.726</ele>
        <time>2011-04-24T10:02:20Z</time>
      </trkpt>
      <trkpt lat="31.7771" lon="-4.96765">
        <ele>1094.7</ele>
        <time>2011-04-24T10:03:11Z</time>
      </trkpt>
      <trkpt lat="31.76508" lon="-4.9751">
        <ele>1076.266</ele>
        <time>2011-04-24T10:04:29Z</time>
      </trkpt>
      <trkpt lat="31.75668" lon="-4.97738">
        <ele>1063.682</ele>
        <time>2011-04-24T10:05:15Z</time>
      </trkpt>
      <trkpt lat="31.75577" lon="-4.98272">
        <ele>1062.616</ele>
        <time>2011-04-24T10:05:58Z</time>
      </trkpt>
      <trkpt lat="31.73302" lon="-4.98346">
        <ele>1056.098</ele>
        <time>2011-04-24T10:07:58Z</time>
      </trkpt>
      <trkpt lat="31.72846" lon="-4.98694">
        <ele>1043.017</ele>
        <time>2011-04-24T10:08:28Z</time>
      </trkpt>
      <trkpt lat="31.71947" lon="-4.98262">
        <ele>1043.223</ele>
        <time>2011-04-24T10:09:43Z</time>
      </trkpt>
      <trkpt lat="31.71224" lon="-4.98088">
        <ele>1037.95</ele>
        <time>2011-04-24T10:10:42Z</time>
      </trkpt>
      <trkpt lat="31.70565" lon="-4.97751">
        <ele>1038.203</ele>
        <time>2011-04-24T10:11:45Z</time>
      </trkpt>
      <trkpt lat="31.69965" lon="-4.976">
        <ele>1033.4</ele>
        <time>2011-04-24T10:12:53Z</time>
      </trkpt>
      <trkpt lat="31.69997" lon="-4.9695">
        <ele>1029.472</ele>
        <time>2011-04-24T10:14:05Z</time>
      </trkpt>
      <trkpt lat="31.6979" lon="-4.96384">
        <ele>1028.51</ele>
        <time>2011-04-24T10:15:11Z</time>
      </trkpt>
      <trkpt lat="31.69336" lon="-4.95306">
        <ele>1021.14</ele>
        <time>2011-04-24T10:17:35Z</time>
      </trkpt>
      <trkpt lat="31.68814" lon="-4.95677">
        <ele>1022.919</ele>
        <time>2011-04-24T10:19:03Z</time>
      </trkpt>
      <trkpt lat="31.68273" lon="-4.95508">
        <ele>1023.734</ele>
        <time>2011-04-24T10:27:05Z</time>
      </trkpt>
      <trkpt lat="31.67817" lon="-4.94813">
        <ele>1023.914</ele>
        <time>2011-04-24T10:27:53Z</time>
      </trkpt>
      <trkpt lat="31.67465" lon="-4.93838">
        <ele>1016.175</ele>
        <time>2011-04-24T10:28:39Z</time>
      </trkpt>
      <trkpt lat="31.66723" lon="-4.92305">
        <ele>1011.684</ele>
        <time>2011-04-24T10:29:57Z</time>
      </trkpt>
      <trkpt lat="31.66479" lon="-4.90616">
        <ele>1004.421</ele>
        <time>2011-04-24T10:31:56Z</time>
      </trkpt>
      <trkpt lat="31.6642" lon="-4.89775">
        <ele>994.538</ele>
        <time>2011-04-24T10:32:31Z</time>
      </trkpt>
      <trkpt lat="31.6524" lon="-4.87233">
        <ele>991.874</ele>
        <time>2011-04-24T10:34:28Z</time>
      </trkpt>
      <trkpt lat="31.64907" lon="-4.86513">
        <ele>985.474</ele>
        <time>2011-04-24T10:34:59Z</time>
      </trkpt>
      <trkpt lat="31.64708" lon="-4.85661">
        <ele>980.337</ele>
        <time>2011-04-24T10:35:36Z</time>
      </trkpt>
      <trkpt lat="31.64456" lon="-4.85201">
        <ele>977.768</ele>
        <time>2011-04-24T10:36:03Z</time>
      </trkpt>
      <trkpt lat="31.63832" lon="-4.83173">
        <ele>971.341</ele>
        <time>2011-04-24T10:38:09Z</time>
      </trkpt>
      <trkpt lat="31.63567" lon="-4.82317">
        <ele>958.87</ele>
        <time>2011-04-24T10:38:51Z</time>
      </trkpt>
      <trkpt lat="31.63371" lon="-4.81782">
        <ele>954.492</ele>
        <time>2011-04-24T10:39:19Z</time>
      </trkpt>
      <trkpt lat="31.63879" lon="-4.80562">
        <ele>952.666</ele>
        <time>2011-04-24T10:41:02Z</time>
      </trkpt>
      <trkpt lat="31.62988" lon="-4.79858">
        <ele>944.917</ele>
        <time>2011-04-24T10:43:26Z</time>
      </trkpt>
      <trkpt lat="31.62245" lon="-4.80082">
        <ele>946.302</ele>
        <time>2011-04-24T10:44:31Z</time>
      </trkpt>
      <trkpt lat="31.61614" lon="-4.79257">
        <ele>945.626</ele>
        <time>2011-04-24T10:45:22Z</time>
      </trkpt>
      <trkpt lat="31.61221" lon="-4.78369">
        <ele>942.658</ele>
        <time>2011-04-24T10:46:11Z</time>
      </trkpt>
      <trkpt lat="31.60993" lon="-4.76978">
        <ele>937.398</ele>
        <time>2011-04-24T10:47:18Z</time>
      </trkpt>
      <trkpt lat="31.6046" lon="-4.76076">
        <ele>934.822</ele>
        <time>2011-04-24T10:48:11Z</time>
      </trkpt>
      <trkpt lat="31.60012" lon="-4.75238">
        <ele>928.393</ele>
        <time>2011-04-24T10:49:00Z</time>
      </trkpt>
      <trkpt lat="31.59465" lon="-4.7472">
        <ele>925.289</ele>
        <time>2011-04-24T10:49:35Z</time>
      </trkpt>
      <trkpt lat="31.58211" lon="-4.74792">
        <ele>922.217</ele>
        <time>2011-04-24T10:50:48Z</time>
      </trkpt>
      <trkpt lat="31.56816" lon="-4.72603">
        <ele>907.346</ele>
        <time>2011-04-24T10:53:30Z</time>
      </trkpt>
      <trkpt lat="31.56342" lon="-4.71169">
        <ele>899.252</ele>
        <time>2011-04-24T10:55:17Z</time>
      </trkpt>
      <trkpt lat="31.5523" lon="-4.70617">
        <ele>908.297</ele>
        <time>2011-04-24T10:57:37Z</time>
      </trkpt>
      <trkpt lat="31.54363" lon="-4.66323">
        <ele>903.671</ele>
        <time>2011-04-24T11:01:01Z</time>
      </trkpt>
      <trkpt lat="31.53498" lon="-4.64468">
        <ele>904.806</ele>
        <time>2011-04-24T11:02:30Z</time>
      </trkpt>
      <trkpt lat="31.52887" lon="-4.6368">
        <ele>917.324</ele>
        <time>2011-04-24T11:03:16Z</time>
      </trkpt>
      <trkpt lat="31.5254" lon="-4.62509">
        <ele>908.473</ele>
        <time>2011-04-24T11:04:07Z</time>
      </trkpt>
      <trkpt lat="31.52058" lon="-4.61421">
        <ele>904.867</ele>
        <time>2011-04-24T11:04:59Z</time>
      </trkpt>
      <trkpt lat="31.51731" lon="-4.60735">
        <ele>900.782</ele>
        <time>2011-04-24T11:05:30Z</time>
      </trkpt>
      <trkpt lat="31.51422" lon="-4.60011">
        <ele>889.518</ele>
        <time>2011-04-24T11:06:04Z</time>
      </trkpt>
      <trkpt lat="31.51646" lon="-4.56592">
        <ele>873.57</ele>
        <time>2011-04-24T11:08:31Z</time>
      </trkpt>
      <trkpt lat="31.5293" lon="-4.5124">
        <ele>864.696</ele>
        <time>2011-04-24T11:23:02Z</time>
      </trkpt>
      <trkpt lat="31.53041" lon="-4.49425">
        <ele>862.498</ele>
        <time>2011-04-24T11:24:28Z</time>
      </trkpt>
      <trkpt lat="31.52914" lon="-4.48507">
        <ele>858.35</ele>
        <time>2011-04-24T11:25:11Z</time>
      </trkpt>
      <trkpt lat="31.53042" lon="-4.47792">
        <ele>862.97</ele>
        <time>2011-04-24T11:25:43Z</time>
      </trkpt>
      <trkpt lat="31.52724" lon="-4.46612">
        <ele>849.566</ele>
        <time>2011-04-24T11:26:43Z</time>
      </trkpt>
      <trkpt lat="31.52226" lon="-4.44953">
        <ele>849.331</ele>
        <time>2011-04-24T11:28:20Z</time>
      </trkpt>
      <trkpt lat="31.51606" lon="-4.44036">
        <ele>842.54</ele>
        <time>2011-04-24T11:29:18Z</time>
      </trkpt>
      <trkpt lat="31.50415" lon="-4.42319">
        <ele>840.739</ele>
        <time>2011-04-24T11:31:25Z</time>
      </trkpt>
      <trkpt lat="31.49857" lon="-4.41628">
        <ele>835.02</ele>
        <time>2011-04-24T11:32:10Z</time>
      </trkpt>
      <trkpt lat="31.49716" lon="-4.41134">
        <ele>832.271</ele>
        <time>2011-04-24T11:32:42Z</time>
      </trkpt>
      <trkpt lat="31.49378" lon="-4.40733">
        <ele>826.638</ele>
        <time>2011-04-24T11:33:26Z</time>
      </trkpt>
      <trkpt lat="31.49235" lon="-4.40232">
        <ele>823.953</ele>
        <time>2011-04-24T11:34:23Z</time>
      </trkpt>
      <trkpt lat="31.48527" lon="-4.39987">
        <ele>825.081</ele>
        <time>2011-04-24T11:35:47Z</time>
      </trkpt>
      <trkpt lat="31.48049" lon="-4.39591">
        <ele>822.44</ele>
        <time>2011-04-24T11:36:35Z</time>
      </trkpt>
      <trkpt lat="31.47756" lon="-4.39014">
        <ele>820.747</ele>
        <time>2011-04-24T11:37:26Z</time>
      </trkpt>
      <trkpt lat="31.47417" lon="-4.38443">
        <ele>825.226</ele>
        <time>2011-04-24T11:37:58Z</time>
      </trkpt>
      <trkpt lat="31.44655" lon="-4.33726">
        <ele>803.587</ele>
        <time>2011-04-24T11:41:52Z</time>
      </trkpt>
      <trkpt lat="31.44048" lon="-4.31874">
        <ele>804.813</ele>
        <time>2011-04-24T11:43:29Z</time>
      </trkpt>
      <trkpt lat="31.43637" lon="-4.30961">
        <ele>801.9</ele>
        <time>2011-04-24T11:44:13Z</time>
      </trkpt>
      <trkpt lat="31.41978" lon="-4.28958">
        <ele>803.297</ele>
        <time>2011-04-24T11:46:18Z</time>
      </trkpt>
      <trkpt lat="31.41718" lon="-4.28423">
        <ele>795.089</ele>
        <time>2011-04-24T11:46:58Z</time>
      </trkpt>
      <trkpt lat="31.41828" lon="-4.27645">
        <ele>802.293</ele>
        <time>2011-04-24T11:47:46Z</time>
      </trkpt>
      <trkpt lat="31.42799" lon="-4.25234">
        <ele>803.674</ele>
        <time>2011-04-24T11:49:47Z</time>
      </trkpt>
      <trkpt lat="31.42982" lon="-4.23631">
        <ele>801.664</ele>
        <time>2011-04-24T11:51:42Z</time>
      </trkpt>
      <trkpt lat="31.44347" lon="-4.22951">
        <ele>808.282</ele>
        <time>2011-04-24T11:55:58Z</time>
      </trkpt>
      <trkpt lat="31.43468" lon="-4.23368">
        <ele>804.478</ele>
        <time>2011-04-24T11:58:11Z</time>
      </trkpt>
      <trkpt lat="31.43301" lon="-4.22831">
        <ele>808.576</ele>
        <time>2011-04-24T12:38:08Z</time>
      </trkpt>
      <trkpt lat="31.43083" lon="-4.22215">
        <ele>821.86</ele>
        <time>2011-04-24T12:39:14Z</time>
      </trkpt>
      <trkpt lat="31.41814" lon="-4.20736">
        <ele>826.217</ele>
        <time>2011-04-24T12:40:50Z</time>
      </trkpt>
      <trkpt lat="31.39" lon="-4.1832">
        <ele>792.415</ele>
        <time>2011-04-24T12:43:28Z</time>
      </trkpt>
      <trkpt lat="31.38586" lon="-4.1775">
        <ele>794.485</ele>
        <time>2011-04-24T12:43:57Z</time>
      </trkpt>
      <trkpt lat="31.37939" lon="-4.17346">
        <ele>788.48</ele>
        <time>2011-04-24T12:44:35Z</time>
      </trkpt>
      <trkpt lat="31.3734" lon="-4.16767">
        <ele>787.95</ele>
        <time>2011-04-24T12:45:13Z</time>
      </trkpt>
      <trkpt lat="31.37033" lon="-4.15712">
        <ele>799.219</ele>
        <time>2011-04-24T12:46:04Z</time>
      </trkpt>
      <trkpt lat="31.36899" lon="-4.15041">
        <ele>785.663</ele>
        <time>2011-04-24T12:46:37Z</time>
      </trkpt>
      <trkpt lat="31.3632" lon="-4.14445">
        <ele>788.939</ele>
        <time>2011-04-24T12:47:11Z</time>
      </trkpt>
      <trkpt lat="31.35642" lon="-4.13628">
        <ele>789.394</ele>
        <time>2011-04-24T12:47:54Z</time>
      </trkpt>
      <trkpt lat="31.35041" lon="-4.13522">
        <ele>786.641</ele>
        <time>2011-04-24T12:48:23Z</time>
      </trkpt>
      <trkpt lat="31.33627" lon="-4.12685">
        <ele>782.332</ele>
        <time>2011-04-24T12:49:35Z</time>
      </trkpt>
      <trkpt lat="31.33013" lon="-4.12128">
        <ele>774.122</ele>
        <time>2011-04-24T12:50:10Z</time>
      </trkpt>
      <trkpt lat="31.32476" lon="-4.11637">
        <ele>767.881</ele>
        <time>2011-04-24T12:51:50Z</time>
      </trkpt>
      <trkpt lat="31.32067" lon="-4.10936">
        <ele>764.439</ele>
        <time>2011-04-24T12:53:56Z</time>
      </trkpt>
      <trkpt lat="31.31244" lon="-4.10115">
        <ele>767.146</ele>
        <time>2011-04-24T12:57:30Z</time>
      </trkpt>
      <trkpt lat="31.30859" lon="-4.09789">
        <ele>765.512</ele>
        <time>2011-04-24T12:58:43Z</time>
      </trkpt>
      <trkpt lat="31.29509" lon="-4.09587">
        <ele>766.259</ele>
        <time>2011-04-24T13:02:48Z</time>
      </trkpt>
      <trkpt lat="31.29128" lon="-4.09356">
        <ele>762.199</ele>
        <time>2011-04-24T13:04:20Z</time>
      </trkpt>
      <trkpt lat="31.28458" lon="-4.10864">
        <ele>760.039</ele>
        <time>2011-04-24T13:08:53Z</time>
      </trkpt>
      <trkpt lat="31.27481" lon="-4.12602">
        <ele>757.123</ele>
        <time>2011-04-24T13:12:08Z</time>
      </trkpt>
      <trkpt lat="31.27289" lon="-4.13092">
        <ele>755.524</ele>
        <time>2011-04-24T13:12:46Z</time>
      </trkpt>
      <trkpt lat="31.26973" lon="-4.13644">
        <ele>756.953</ele>
        <time>2011-04-24T13:13:39Z</time>
      </trkpt>
      <trkpt lat="31.26563" lon="-4.14403">
        <ele>754.692</ele>
        <time>2011-04-24T13:14:49Z</time>
      </trkpt>
      <trkpt lat="31.26301" lon="-4.14864">
        <ele>750.753</ele>
        <time>2011-04-24T13:15:29Z</time>
      </trkpt>
      <trkpt lat="31.25862" lon="-4.1452">
        <ele>755.371</ele>
        <time>2011-04-24T13:17:06Z</time>
      </trkpt>
      <trkpt lat="31.25355" lon="-4.13963">
        <ele>757.966</ele>
        <time>2011-04-24T13:17:41Z</time>
      </trkpt>
      <trkpt lat="31.23833" lon="-4.13128">
        <ele>758.817</ele>
        <time>2011-04-24T13:18:58Z</time>
      </trkpt>
      <trkpt lat="31.2164" lon="-4.11942">
        <ele>741.284</ele>
        <time>2011-04-24T13:20:48Z</time>
      </trkpt>
      <trkpt lat="31.20085" lon="-4.10247">
        <ele>742.3</ele>
        <time>2011-04-24T13:22:24Z</time>
      </trkpt>
      <trkpt lat="31.18424" lon="-4.09045">
        <ele>741.141</ele>
        <time>2011-04-24T13:23:48Z</time>
      </trkpt>
      <trkpt lat="31.17142" lon="-4.08094">
        <ele>737.582</ele>
        <time>2011-04-24T13:24:54Z</time>
      </trkpt>
      <trkpt lat="31.16718" lon="-4.07567">
        <ele>739.233</ele>
        <time>2011-04-24T13:25:22Z</time>
      </trkpt>
      <trkpt lat="31.14776" lon="-4.05799">
        <ele>735.057</ele>
        <time>2011-04-24T13:27:09Z</time>
      </trkpt>
      <trkpt lat="31.13086" lon="-4.04852">
        <ele>729.335</ele>
        <time>2011-04-24T13:28:35Z</time>
      </trkpt>
      <trkpt lat="31.12377" lon="-4.04239">
        <ele>727.755</ele>
        <time>2011-04-24T13:29:14Z</time>
      </trkpt>
      <trkpt lat="31.11724" lon="-4.0344">
        <ele>726.157</ele>
        <time>2011-04-24T13:29:55Z</time>
      </trkpt>
      <trkpt lat="31.10996" lon="-4.02379">
        <ele>715.935</ele>
        <time>2011-04-24T13:30:49Z</time>
      </trkpt>
      <trkpt lat="31.10512" lon="-4.02063">
        <ele>705.947</ele>
        <time>2011-04-24T13:31:24Z</time>
      </trkpt>
      <trkpt lat="31.10854" lon="-4.01536">
        <ele>709.665</ele>
        <time>2011-04-24T13:32:50Z</time>
      </trkpt>
      <trkpt lat="31.1072" lon="-4.01006">
        <ele>709.444</ele>
        <time>2011-04-25T08:39:19Z</time>
      </trkpt>
      <trkpt lat="31.10854" lon="-4.01535">
        <ele>712.671</ele>
        <time>2011-04-25T08:41:34Z</time>
      </trkpt>
      <trkpt lat="31.10678" lon="-4.0211">
        <ele>712.887</ele>
        <time>2011-04-25T08:42:27Z</time>
      </trkpt>
      <trkpt lat="31.10918" lon="-4.02288">
        <ele>724.335</ele>
        <time>2011-04-25T08:43:48Z</time>
      </trkpt>
      <trkpt lat="31.11732" lon="-4.03452">
        <ele>736.228</ele>
        <time>2011-04-25T08:44:47Z</time>
      </trkpt>
      <trkpt lat="31.12426" lon="-4.0429">
        <ele>737.104</ele>
        <time>2011-04-25T08:45:31Z</time>
      </trkpt>
      <trkpt lat="31.13447" lon="-4.05076">
        <ele>739.448</ele>
        <time>2011-04-25T08:46:23Z</time>
      </trkpt>
      <trkpt lat="31.14694" lon="-4.05748">
        <ele>741.235</ele>
        <time>2011-04-25T08:47:23Z</time>
      </trkpt>
      <trkpt lat="31.16314" lon="-4.07146">
        <ele>746.971</ele>
        <time>2011-04-25T08:48:47Z</time>
      </trkpt>
      <trkpt lat="31.16936" lon="-4.07841">
        <ele>744.069</ele>
        <time>2011-04-25T08:49:25Z</time>
      </trkpt>
      <trkpt lat="31.17721" lon="-4.08502">
        <ele>749.804</ele>
        <time>2011-04-25T08:50:07Z</time>
      </trkpt>
      <trkpt lat="31.18297" lon="-4.08934">
        <ele>750.426</ele>
        <time>2011-04-25T08:50:35Z</time>
      </trkpt>
      <trkpt lat="31.20186" lon="-4.10342">
        <ele>744.955</ele>
        <time>2011-04-25T08:52:07Z</time>
      </trkpt>
      <trkpt lat="31.21597" lon="-4.11899">
        <ele>743.609</ele>
        <time>2011-04-25T08:53:28Z</time>
      </trkpt>
      <trkpt lat="31.23599" lon="-4.13025">
        <ele>748.363</ele>
        <time>2011-04-25T08:55:01Z</time>
      </trkpt>
      <trkpt lat="31.24146" lon="-4.13242">
        <ele>759.412</ele>
        <time>2011-04-25T08:55:25Z</time>
      </trkpt>
      <trkpt lat="31.25121" lon="-4.13728">
        <ele>759.623</ele>
        <time>2011-04-25T08:56:07Z</time>
      </trkpt>
      <trkpt lat="31.26188" lon="-4.14895">
        <ele>757.137</ele>
        <time>2011-04-25T08:57:05Z</time>
      </trkpt>
      <trkpt lat="31.26785" lon="-4.16263">
        <ele>757.916</ele>
        <time>2011-04-25T08:58:05Z</time>
      </trkpt>
      <trkpt lat="31.28844" lon="-4.17869">
        <ele>766.124</ele>
        <time>2011-04-25T08:59:44Z</time>
      </trkpt>
      <trkpt lat="31.29387" lon="-4.18482">
        <ele>764.39</ele>
        <time>2011-04-25T09:00:15Z</time>
      </trkpt>
      <trkpt lat="31.29332" lon="-4.21702">
        <ele>764.879</ele>
        <time>2011-04-25T09:02:11Z</time>
      </trkpt>
      <trkpt lat="31.29252" lon="-4.22395">
        <ele>759.229</ele>
        <time>2011-04-25T09:02:44Z</time>
      </trkpt>
      <trkpt lat="31.28874" lon="-4.23123">
        <ele>760.63</ele>
        <time>2011-04-25T09:03:40Z</time>
      </trkpt>
      <trkpt lat="31.28814" lon="-4.24169">
        <ele>762.691</ele>
        <time>2011-04-25T09:04:54Z</time>
      </trkpt>
      <trkpt lat="31.2934" lon="-4.24452">
        <ele>761.934</ele>
        <time>2011-04-25T09:05:33Z</time>
      </trkpt>
      <trkpt lat="31.28777" lon="-4.25739">
        <ele>760.155</ele>
        <time>2011-04-25T09:07:29Z</time>
      </trkpt>
      <trkpt lat="31.28596" lon="-4.26411">
        <ele>762.963</ele>
        <time>2011-04-25T09:09:45Z</time>
      </trkpt>
      <trkpt lat="31.28198" lon="-4.26766">
        <ele>762.103</ele>
        <time>2011-04-25T09:11:50Z</time>
      </trkpt>
      <trkpt lat="31.28073" lon="-4.27264">
        <ele>765.244</ele>
        <time>2011-04-25T09:13:25Z</time>
      </trkpt>
      <trkpt lat="31.27795" lon="-4.28161">
        <ele>765.755</ele>
        <time>2011-04-25T09:14:38Z</time>
      </trkpt>
      <trkpt lat="31.28118" lon="-4.28735">
        <ele>769.813</ele>
        <time>2011-04-25T09:15:27Z</time>
      </trkpt>
      <trkpt lat="31.29097" lon="-4.29162">
        <ele>766.962</ele>
        <time>2011-04-25T09:17:42Z</time>
      </trkpt>
      <trkpt lat="31.29564" lon="-4.29056">
        <ele>769.404</ele>
        <time>2011-04-25T09:18:14Z</time>
      </trkpt>
      <trkpt lat="31.29123" lon="-4.29164">
        <ele>770.024</ele>
        <time>2011-04-25T09:29:39Z</time>
      </trkpt>
      <trkpt lat="31.28769" lon="-4.31442">
        <ele>774.521</ele>
        <time>2011-04-25T09:31:38Z</time>
      </trkpt>
      <trkpt lat="31.28733" lon="-4.31978">
        <ele>760.392</ele>
        <time>2011-04-25T09:32:10Z</time>
      </trkpt>
      <trkpt lat="31.27703" lon="-4.33323">
        <ele>767.231</ele>
        <time>2011-04-25T09:33:48Z</time>
      </trkpt>
      <trkpt lat="31.27392" lon="-4.33789">
        <ele>762.582</ele>
        <time>2011-04-25T09:34:11Z</time>
      </trkpt>
      <trkpt lat="31.27491" lon="-4.34797">
        <ele>761.765</ele>
        <time>2011-04-25T09:34:52Z</time>
      </trkpt>
      <trkpt lat="31.27158" lon="-4.35592">
        <ele>766.209</ele>
        <time>2011-04-25T09:35:23Z</time>
      </trkpt>
      <trkpt lat="31.27008" lon="-4.3665">
        <ele>765.935</ele>
        <time>2011-04-25T09:36:00Z</time>
      </trkpt>
      <trkpt lat="31.27153" lon="-4.37333">
        <ele>767.583</ele>
        <time>2011-04-25T09:36:27Z</time>
      </trkpt>
      <trkpt lat="31.26906" lon="-4.38615">
        <ele>777.738</ele>
        <time>2011-04-25T09:37:11Z</time>
      </trkpt>
      <trkpt lat="31.27033" lon="-4.40028">
        <ele>777.407</ele>
        <time>2011-04-25T09:37:57Z</time>
      </trkpt>
      <trkpt lat="31.26962" lon="-4.40938">
        <ele>782.375</ele>
        <time>2011-04-25T09:38:27Z</time>
      </trkpt>
      <trkpt lat="31.26428" lon="-4.43125">
        <ele>786.148</ele>
        <time>2011-04-25T09:39:44Z</time>
      </trkpt>
      <trkpt lat="31.26427" lon="-4.4451">
        <ele>793.268</ele>
        <time>2011-04-25T09:40:28Z</time>
      </trkpt>
      <trkpt lat="31.26201" lon="-4.45681">
        <ele>795.732</ele>
        <time>2011-04-25T09:41:09Z</time>
      </trkpt>
      <trkpt lat="31.26164" lon="-4.4625">
        <ele>804.219</ele>
        <time>2011-04-25T09:41:28Z</time>
      </trkpt>
      <trkpt lat="31.25798" lon="-4.47016">
        <ele>822.528</ele>
        <time>2011-04-25T09:42:01Z</time>
      </trkpt>
      <trkpt lat="31.25215" lon="-4.47473">
        <ele>810.679</ele>
        <time>2011-04-25T09:42:35Z</time>
      </trkpt>
      <trkpt lat="31.24702" lon="-4.48332">
        <ele>801.511</ele>
        <time>2011-04-25T09:43:17Z</time>
      </trkpt>
      <trkpt lat="31.24436" lon="-4.4959">
        <ele>794.512</ele>
        <time>2011-04-25T09:44:04Z</time>
      </trkpt>
      <trkpt lat="31.24584" lon="-4.5018">
        <ele>797.142</ele>
        <time>2011-04-25T09:44:29Z</time>
      </trkpt>
      <trkpt lat="31.24389" lon="-4.50869">
        <ele>825.149</ele>
        <time>2011-04-25T09:45:04Z</time>
      </trkpt>
      <trkpt lat="31.24034" lon="-4.51392">
        <ele>816.62</ele>
        <time>2011-04-25T09:45:31Z</time>
      </trkpt>
      <trkpt lat="31.23859" lon="-4.52451">
        <ele>814.334</ele>
        <time>2011-04-25T09:46:11Z</time>
      </trkpt>
      <trkpt lat="31.24255" lon="-4.53888">
        <ele>834.027</ele>
        <time>2011-04-25T09:47:02Z</time>
      </trkpt>
      <trkpt lat="31.24245" lon="-4.54983">
        <ele>845.794</ele>
        <time>2011-04-25T09:47:41Z</time>
      </trkpt>
      <trkpt lat="31.24325" lon="-4.55646">
        <ele>836.733</ele>
        <time>2011-04-25T09:48:07Z</time>
      </trkpt>
      <trkpt lat="31.24168" lon="-4.56942">
        <ele>837.792</ele>
        <time>2011-04-25T10:01:15Z</time>
      </trkpt>
      <trkpt lat="31.2446" lon="-4.58581">
        <ele>851.981</ele>
        <time>2011-04-25T10:02:25Z</time>
      </trkpt>
      <trkpt lat="31.24915" lon="-4.59534">
        <ele>848.923</ele>
        <time>2011-04-25T10:03:07Z</time>
      </trkpt>
      <trkpt lat="31.24844" lon="-4.60421">
        <ele>854.854</ele>
        <time>2011-04-25T10:03:45Z</time>
      </trkpt>
      <trkpt lat="31.25091" lon="-4.61917">
        <ele>861.864</ele>
        <time>2011-04-25T10:04:40Z</time>
      </trkpt>
      <trkpt lat="31.25343" lon="-4.64115">
        <ele>864.306</ele>
        <time>2011-04-25T10:05:57Z</time>
      </trkpt>
      <trkpt lat="31.25342" lon="-4.65217">
        <ele>873.668</ele>
        <time>2011-04-25T10:06:37Z</time>
      </trkpt>
      <trkpt lat="31.25353" lon="-4.66226">
        <ele>863.779</ele>
        <time>2011-04-25T10:07:14Z</time>
      </trkpt>
      <trkpt lat="31.24925" lon="-4.66676">
        <ele>858.767</ele>
        <time>2011-04-25T10:07:40Z</time>
      </trkpt>
      <trkpt lat="31.24599" lon="-4.67562">
        <ele>853.525</ele>
        <time>2011-04-25T10:08:16Z</time>
      </trkpt>
      <trkpt lat="31.2459" lon="-4.68104">
        <ele>848.09</ele>
        <time>2011-04-25T10:08:38Z</time>
      </trkpt>
      <trkpt lat="31.24024" lon="-4.6963">
        <ele>847.153</ele>
        <time>2011-04-25T10:09:38Z</time>
      </trkpt>
      <trkpt lat="31.22996" lon="-4.73703">
        <ele>824.934</ele>
        <time>2011-04-25T10:13:29Z</time>
      </trkpt>
      <trkpt lat="31.22536" lon="-4.7745">
        <ele>836.308</ele>
        <time>2011-04-25T10:15:48Z</time>
      </trkpt>
      <trkpt lat="31.21992" lon="-4.79678">
        <ele>820.543</ele>
        <time>2011-04-25T10:17:12Z</time>
      </trkpt>
      <trkpt lat="31.21966" lon="-4.81925">
        <ele>816.096</ele>
        <time>2011-04-25T10:19:03Z</time>
      </trkpt>
      <trkpt lat="31.21563" lon="-4.82228">
        <ele>816.041</ele>
        <time>2011-04-25T10:19:41Z</time>
      </trkpt>
      <trkpt lat="31.21022" lon="-4.84412">
        <ele>826.233</ele>
        <time>2011-04-25T10:21:31Z</time>
      </trkpt>
      <trkpt lat="31.20795" lon="-4.85262">
        <ele>835.863</ele>
        <time>2011-04-25T10:22:03Z</time>
      </trkpt>
      <trkpt lat="31.20592" lon="-4.88321">
        <ele>859.809</ele>
        <time>2011-04-25T10:23:54Z</time>
      </trkpt>
      <trkpt lat="31.20183" lon="-4.89972">
        <ele>855.154</ele>
        <time>2011-04-25T10:25:00Z</time>
      </trkpt>
      <trkpt lat="31.20001" lon="-4.91246">
        <ele>849.094</ele>
        <time>2011-04-25T10:25:46Z</time>
      </trkpt>
      <trkpt lat="31.19474" lon="-4.92334">
        <ele>841.111</ele>
        <time>2011-04-25T10:26:31Z</time>
      </trkpt>
      <trkpt lat="31.19039" lon="-4.93788">
        <ele>834.475</ele>
        <time>2011-04-25T10:27:28Z</time>
      </trkpt>
      <trkpt lat="31.18526" lon="-4.95907">
        <ele>845.311</ele>
        <time>2011-04-25T10:28:59Z</time>
      </trkpt>
      <trkpt lat="31.17857" lon="-4.97454">
        <ele>838.352</ele>
        <time>2011-04-25T10:30:10Z</time>
      </trkpt>
      <trkpt lat="31.17698" lon="-4.98204">
        <ele>849.672</ele>
        <time>2011-04-25T10:30:39Z</time>
      </trkpt>
      <trkpt lat="31.17386" lon="-4.98889">
        <ele>857.863</ele>
        <time>2011-04-25T10:31:06Z</time>
      </trkpt>
      <trkpt lat="31.17365" lon="-4.99861">
        <ele>865.099</ele>
        <time>2011-04-25T10:31:44Z</time>
      </trkpt>
      <trkpt lat="31.17369" lon="-5.00869">
        <ele>862.137</ele>
        <time>2011-04-25T10:32:20Z</time>
      </trkpt>
      <trkpt lat="31.16907" lon="-5.01538">
        <ele>842.21</ele>
        <time>2011-04-25T10:32:57Z</time>
      </trkpt>
      <trkpt lat="31.16791" lon="-5.0212">
        <ele>839.24</ele>
        <time>2011-04-25T10:33:35Z</time>
      </trkpt>
      <trkpt lat="31.16251" lon="-5.03069">
        <ele>829.345</ele>
        <time>2011-04-25T10:34:27Z</time>
      </trkpt>
      <trkpt lat="31.15721" lon="-5.04433">
        <ele>832.215</ele>
        <time>2011-04-25T10:35:40Z</time>
      </trkpt>
      <trkpt lat="31.15848" lon="-5.065">
        <ele>856.023</ele>
        <time>2011-04-25T10:37:11Z</time>
      </trkpt>
      <trkpt lat="31.15593" lon="-5.07036">
        <ele>849.753</ele>
        <time>2011-04-25T10:37:38Z</time>
      </trkpt>
      <trkpt lat="31.15525" lon="-5.07557">
        <ele>849.557</ele>
        <time>2011-04-25T10:38:02Z</time>
      </trkpt>
      <trkpt lat="31.15044" lon="-5.08164">
        <ele>852.294</ele>
        <time>2011-04-25T10:38:40Z</time>
      </trkpt>
      <trkpt lat="31.14802" lon="-5.08725">
        <ele>845.264</ele>
        <time>2011-04-25T10:39:21Z</time>
      </trkpt>
      <trkpt lat="31.1439" lon="-5.09867">
        <ele>850.054</ele>
        <time>2011-04-25T10:43:07Z</time>
      </trkpt>
      <trkpt lat="31.14509" lon="-5.1062">
        <ele>880.297</ele>
        <time>2011-04-25T10:43:52Z</time>
      </trkpt>
      <trkpt lat="31.14364" lon="-5.11269">
        <ele>855.609</ele>
        <time>2011-04-25T10:44:29Z</time>
      </trkpt>
      <trkpt lat="31.14026" lon="-5.11791">
        <ele>864.661</ele>
        <time>2011-04-25T10:45:10Z</time>
      </trkpt>
      <trkpt lat="31.13727" lon="-5.12303">
        <ele>872.731</ele>
        <time>2011-04-25T10:45:37Z</time>
      </trkpt>
      <trkpt lat="31.13783" lon="-5.13043">
        <ele>878.905</ele>
        <time>2011-04-25T10:46:12Z</time>
      </trkpt>
      <trkpt lat="31.13518" lon="-5.13881">
        <ele>910.943</ele>
        <time>2011-04-25T10:46:50Z</time>
      </trkpt>
      <trkpt lat="31.12206" lon="-5.14485">
        <ele>880.886</ele>
        <time>2011-04-25T10:48:00Z</time>
      </trkpt>
      <trkpt lat="31.1186" lon="-5.1517">
        <ele>877.587</ele>
        <time>2011-04-25T10:48:34Z</time>
      </trkpt>
      <trkpt lat="31.11784" lon="-5.15805">
        <ele>873.221</ele>
        <time>2011-04-25T10:49:16Z</time>
      </trkpt>
      <trkpt lat="31.11612" lon="-5.1617">
        <ele>878.458</ele>
        <time>2011-04-25T11:36:02Z</time>
      </trkpt>
      <trkpt lat="31.11569" lon="-5.16848">
        <ele>887.172</ele>
        <time>2011-04-25T11:39:42Z</time>
      </trkpt>
      <trkpt lat="31.11243" lon="-5.17236">
        <ele>883.274</ele>
        <time>2011-04-25T11:40:16Z</time>
      </trkpt>
      <trkpt lat="31.10668" lon="-5.17755">
        <ele>897.133</ele>
        <time>2011-04-25T11:41:02Z</time>
      </trkpt>
      <trkpt lat="31.10178" lon="-5.18869">
        <ele>919.481</ele>
        <time>2011-04-25T11:41:55Z</time>
      </trkpt>
      <trkpt lat="31.08974" lon="-5.20952">
        <ele>942.984</ele>
        <time>2011-04-25T11:43:28Z</time>
      </trkpt>
      <trkpt lat="31.08084" lon="-5.21822">
        <ele>954.704</ele>
        <time>2011-04-25T11:44:17Z</time>
      </trkpt>
      <trkpt lat="31.06093" lon="-5.23689">
        <ele>969.903</ele>
        <time>2011-04-25T11:45:57Z</time>
      </trkpt>
      <trkpt lat="31.054" lon="-5.24565">
        <ele>973.579</ele>
        <time>2011-04-25T11:46:38Z</time>
      </trkpt>
      <trkpt lat="31.04591" lon="-5.2556">
        <ele>974.26</ele>
        <time>2011-04-25T11:47:26Z</time>
      </trkpt>
      <trkpt lat="31.03834" lon="-5.26247">
        <ele>951.967</ele>
        <time>2011-04-25T11:48:08Z</time>
      </trkpt>
      <trkpt lat="31.02581" lon="-5.26545">
        <ele>942.936</ele>
        <time>2011-04-25T11:49:09Z</time>
      </trkpt>
      <trkpt lat="31.01038" lon="-5.26978">
        <ele>928.988</ele>
        <time>2011-04-25T11:50:18Z</time>
      </trkpt>
      <trkpt lat="30.99855" lon="-5.26668">
        <ele>906.729</ele>
        <time>2011-04-25T11:51:21Z</time>
      </trkpt>
      <trkpt lat="30.9934" lon="-5.26789">
        <ele>914.664</ele>
        <time>2011-04-25T11:51:54Z</time>
      </trkpt>
      <trkpt lat="30.98397" lon="-5.27147">
        <ele>904.29</ele>
        <time>2011-04-25T11:52:33Z</time>
      </trkpt>
      <trkpt lat="30.9686" lon="-5.28554">
        <ele>893.176</ele>
        <time>2011-04-25T11:54:01Z</time>
      </trkpt>
      <trkpt lat="30.95519" lon="-5.28863">
        <ele>879.717</ele>
        <time>2011-04-25T11:54:59Z</time>
      </trkpt>
      <trkpt lat="30.95203" lon="-5.299">
        <ele>880.677</ele>
        <time>2011-04-25T11:55:48Z</time>
      </trkpt>
      <trkpt lat="30.93855" lon="-5.30677">
        <ele>881.805</ele>
        <time>2011-04-25T11:57:01Z</time>
      </trkpt>
      <trkpt lat="30.93344" lon="-5.31561">
        <ele>907.485</ele>
        <time>2011-04-25T11:57:40Z</time>
      </trkpt>
      <trkpt lat="30.92806" lon="-5.32692">
        <ele>902.72</ele>
        <time>2011-04-25T11:58:25Z</time>
      </trkpt>
      <trkpt lat="30.91594" lon="-5.34127">
        <ele>904.792</ele>
        <time>2011-04-25T11:59:39Z</time>
      </trkpt>
      <trkpt lat="30.91099" lon="-5.34633">
        <ele>896.695</ele>
        <time>2011-04-25T12:00:06Z</time>
      </trkpt>
      <trkpt lat="30.90672" lon="-5.34865">
        <ele>892.839</ele>
        <time>2011-04-25T12:00:25Z</time>
      </trkpt>
      <trkpt lat="30.90217" lon="-5.35862">
        <ele>886.412</ele>
        <time>2011-04-25T12:01:18Z</time>
      </trkpt>
      <trkpt lat="30.8995" lon="-5.36847">
        <ele>885.288</ele>
        <time>2011-04-25T12:02:25Z</time>
      </trkpt>
      <trkpt lat="30.89718" lon="-5.37479">
        <ele>895.437</ele>
        <time>2011-04-25T12:02:54Z</time>
      </trkpt>
      <trkpt lat="30.89483" lon="-5.38539">
        <ele>915.596</ele>
        <time>2011-04-25T12:03:34Z</time>
      </trkpt>
      <trkpt lat="30.88877" lon="-5.3979">
        <ele>916.901</ele>
        <time>2011-04-25T12:04:23Z</time>
      </trkpt>
      <trkpt lat="30.88649" lon="-5.41351">
        <ele>928.922</ele>
        <time>2011-04-25T12:05:19Z</time>
      </trkpt>
      <trkpt lat="30.88725" lon="-5.4279">
        <ele>950.264</ele>
        <time>2011-04-25T12:06:07Z</time>
      </trkpt>
      <trkpt lat="30.87694" lon="-5.44083">
        <ele>950.947</ele>
        <time>2011-04-25T12:07:12Z</time>
      </trkpt>
      <trkpt lat="30.87293" lon="-5.4525">
        <ele>955.438</ele>
        <time>2011-04-25T12:07:56Z</time>
      </trkpt>
      <trkpt lat="30.87425" lon="-5.4619">
        <ele>964.902</ele>
        <time>2011-04-25T12:08:29Z</time>
      </trkpt>
      <trkpt lat="30.87373" lon="-5.46975">
        <ele>972.39</ele>
        <time>2011-04-25T12:08:57Z</time>
      </trkpt>
      <trkpt lat="30.86853" lon="-5.47999">
        <ele>984.395</ele>
        <time>2011-04-25T12:09:37Z</time>
      </trkpt>
      <trkpt lat="30.85951" lon="-5.49903">
        <ele>962.821</ele>
        <time>2011-04-25T12:10:52Z</time>
      </trkpt>
      <trkpt lat="30.85841" lon="-5.50491">
        <ele>961.333</ele>
        <time>2011-04-25T12:11:13Z</time>
      </trkpt>
      <trkpt lat="30.85533" lon="-5.50899">
        <ele>961.488</ele>
        <time>2011-04-25T12:11:32Z</time>
      </trkpt>
      <trkpt lat="30.84359" lon="-5.51132">
        <ele>940.463</ele>
        <time>2011-04-25T12:12:23Z</time>
      </trkpt>
      <trkpt lat="30.83438" lon="-5.50601">
        <ele>928.809</ele>
        <time>2011-04-25T12:13:16Z</time>
      </trkpt>
      <trkpt lat="30.82517" lon="-5.50211">
        <ele>920.982</ele>
        <time>2011-04-25T12:13:58Z</time>
      </trkpt>
      <trkpt lat="30.81742" lon="-5.49755">
        <ele>906.942</ele>
        <time>2011-04-25T12:14:35Z</time>
      </trkpt>
      <trkpt lat="30.81241" lon="-5.49334">
        <ele>901.758</ele>
        <time>2011-04-25T12:15:00Z</time>
      </trkpt>
      <trkpt lat="30.80798" lon="-5.49048">
        <ele>891.373</ele>
        <time>2011-04-25T12:15:22Z</time>
      </trkpt>
      <trkpt lat="30.79916" lon="-5.50625">
        <ele>882.669</ele>
        <time>2011-04-25T12:16:35Z</time>
      </trkpt>
      <trkpt lat="30.79517" lon="-5.51484">
        <ele>870.348</ele>
        <time>2011-04-25T12:17:09Z</time>
      </trkpt>
      <trkpt lat="30.78229" lon="-5.52224">
        <ele>851.726</ele>
        <time>2011-04-25T12:18:15Z</time>
      </trkpt>
      <trkpt lat="30.7799" lon="-5.5302">
        <ele>857.972</ele>
        <time>2011-04-25T12:18:51Z</time>
      </trkpt>
      <trkpt lat="30.78204" lon="-5.53549">
        <ele>858.331</ele>
        <time>2011-04-25T12:19:13Z</time>
      </trkpt>
      <trkpt lat="30.78383" lon="-5.54701">
        <ele>881.393</ele>
        <time>2011-04-25T12:19:59Z</time>
      </trkpt>
      <trkpt lat="30.78373" lon="-5.56053">
        <ele>867.478</ele>
        <time>2011-04-25T12:21:25Z</time>
      </trkpt>
      <trkpt lat="30.78064" lon="-5.56564">
        <ele>868.265</ele>
        <time>2011-04-25T12:22:25Z</time>
      </trkpt>
      <trkpt lat="30.78346" lon="-5.5692">
        <ele>868.017</ele>
        <time>2011-04-25T12:23:01Z</time>
      </trkpt>
      <trkpt lat="30.78852" lon="-5.572">
        <ele>870.668</ele>
        <time>2011-04-25T12:23:36Z</time>
      </trkpt>
      <trkpt lat="30.7967" lon="-5.58121">
        <ele>886.044</ele>
        <time>2011-04-25T12:27:15Z</time>
      </trkpt>
      <trkpt lat="30.80059" lon="-5.59378">
        <ele>886.643</ele>
        <time>2011-04-25T12:28:30Z</time>
      </trkpt>
      <trkpt lat="30.80285" lon="-5.59881">
        <ele>893.155</ele>
        <time>2011-04-25T12:29:00Z</time>
      </trkpt>
      <trkpt lat="30.823" lon="-5.63838">
        <ele>915.899</ele>
        <time>2011-04-25T12:31:59Z</time>
      </trkpt>
      <trkpt lat="30.82197" lon="-5.65255">
        <ele>910.349</ele>
        <time>2011-04-25T12:33:00Z</time>
      </trkpt>
      <trkpt lat="30.82879" lon="-5.65685">
        <ele>911.879</ele>
        <time>2011-04-25T12:34:05Z</time>
      </trkpt>
      <trkpt lat="30.83389" lon="-5.65611">
        <ele>929.553</ele>
        <time>2011-04-25T12:35:47Z</time>
      </trkpt>
      <trkpt lat="30.83894" lon="-5.66137">
        <ele>924.783</ele>
        <time>2011-04-25T12:36:20Z</time>
      </trkpt>
      <trkpt lat="30.84754" lon="-5.6706">
        <ele>932.51</ele>
        <time>2011-04-25T12:37:37Z</time>
      </trkpt>
      <trkpt lat="30.84923" lon="-5.67585">
        <ele>934.626</ele>
        <time>2011-04-25T12:38:02Z</time>
      </trkpt>
      <trkpt lat="30.8529" lon="-5.68201">
        <ele>937.777</ele>
        <time>2011-04-25T12:38:35Z</time>
      </trkpt>
      <trkpt lat="30.85128" lon="-5.68973">
        <ele>944.235</ele>
        <time>2011-04-25T12:39:12Z</time>
      </trkpt>
      <trkpt lat="30.84843" lon="-5.72788">
        <ele>963.246</ele>
        <time>2011-04-25T12:44:10Z</time>
      </trkpt>
      <trkpt lat="30.85208" lon="-5.74838">
        <ele>975.551</ele>
        <time>2011-04-25T12:45:35Z</time>
      </trkpt>
      <trkpt lat="30.85303" lon="-5.79111">
        <ele>990.422</ele>
        <time>2011-04-25T12:48:13Z</time>
      </trkpt>
      <trkpt lat="30.85735" lon="-5.81174">
        <ele>994.535</ele>
        <time>2011-04-25T12:49:35Z</time>
      </trkpt>
      <trkpt lat="30.85965" lon="-5.81672">
        <ele>995.445</ele>
        <time>2011-04-25T12:50:03Z</time>
      </trkpt>
      <trkpt lat="30.85898" lon="-5.82259">
        <ele>1002.983</ele>
        <time>2011-04-25T12:50:33Z</time>
      </trkpt>
      <trkpt lat="30.85929" lon="-5.83003">
        <ele>1012.713</ele>
        <time>2011-04-25T12:51:07Z</time>
      </trkpt>
      <trkpt lat="30.85925" lon="-5.83538">
        <ele>1015.304</ele>
        <time>2011-04-25T12:51:27Z</time>
      </trkpt>
      <trkpt lat="30.86075" lon="-5.84334">
        <ele>1016.639</ele>
        <time>2011-04-25T12:52:00Z</time>
      </trkpt>
      <trkpt lat="30.864" lon="-5.8514">
        <ele>1044.157</ele>
        <time>2011-04-25T12:52:37Z</time>
      </trkpt>
      <trkpt lat="30.8668" lon="-5.85862">
        <ele>1038.574</ele>
        <time>2011-04-25T12:54:02Z</time>
      </trkpt>
      <trkpt lat="30.87158" lon="-5.86412">
        <ele>1067.04</ele>
        <time>2011-04-25T14:05:48Z</time>
      </trkpt>
      <trkpt lat="30.86396" lon="-5.87633">
        <ele>1055.141</ele>
        <time>2011-04-25T14:07:17Z</time>
      </trkpt>
      <trkpt lat="30.86282" lon="-5.8827">
        <ele>1060.204</ele>
        <time>2011-04-25T14:07:45Z</time>
      </trkpt>
      <trkpt lat="30.85847" lon="-5.89586">
        <ele>1071.424</ele>
        <time>2011-04-25T14:08:50Z</time>
      </trkpt>
      <trkpt lat="30.85404" lon="-5.90709">
        <ele>1073.898</ele>
        <time>2011-04-25T14:09:34Z</time>
      </trkpt>
      <trkpt lat="30.85319" lon="-5.91586">
        <ele>1090.204</ele>
        <time>2011-04-25T14:10:09Z</time>
      </trkpt>
      <trkpt lat="30.85176" lon="-5.92163">
        <ele>1099.839</ele>
        <time>2011-04-25T14:10:31Z</time>
      </trkpt>
      <trkpt lat="30.84352" lon="-5.93817">
        <ele>1104.317</ele>
        <time>2011-04-25T14:11:39Z</time>
      </trkpt>
      <trkpt lat="30.83813" lon="-5.94302">
        <ele>1112.333</ele>
        <time>2011-04-25T14:12:10Z</time>
      </trkpt>
      <trkpt lat="30.8324" lon="-5.95548">
        <ele>1123.355</ele>
        <time>2011-04-25T14:12:58Z</time>
      </trkpt>
      <trkpt lat="30.82685" lon="-5.96482">
        <ele>1140.562</ele>
        <time>2011-04-25T14:13:37Z</time>
      </trkpt>
      <trkpt lat="30.82331" lon="-5.97148">
        <ele>1141.934</ele>
        <time>2011-04-25T14:14:05Z</time>
      </trkpt>
      <trkpt lat="30.81624" lon="-5.97841">
        <ele>1150.292</ele>
        <time>2011-04-25T14:14:42Z</time>
      </trkpt>
      <trkpt lat="30.80351" lon="-5.99095">
        <ele>1145.372</ele>
        <time>2011-04-25T14:15:48Z</time>
      </trkpt>
      <trkpt lat="30.79646" lon="-6.00037">
        <ele>1150.612</ele>
        <time>2011-04-25T14:16:31Z</time>
      </trkpt>
      <trkpt lat="30.75609" lon="-6.06188">
        <ele>1062.291</ele>
        <time>2011-04-25T14:20:56Z</time>
      </trkpt>
      <trkpt lat="30.75017" lon="-6.07551">
        <ele>1043.021</ele>
        <time>2011-04-25T14:21:48Z</time>
      </trkpt>
      <trkpt lat="30.74782" lon="-6.08453">
        <ele>1032.338</ele>
        <time>2011-04-25T14:22:20Z</time>
      </trkpt>
      <trkpt lat="30.74134" lon="-6.10993">
        <ele>995.246</ele>
        <time>2011-04-25T14:23:59Z</time>
      </trkpt>
      <trkpt lat="30.73881" lon="-6.11507">
        <ele>983.753</ele>
        <time>2011-04-25T14:24:20Z</time>
      </trkpt>
      <trkpt lat="30.73794" lon="-6.12445">
        <ele>975.336</ele>
        <time>2011-04-25T14:24:53Z</time>
      </trkpt>
      <trkpt lat="30.73261" lon="-6.13469">
        <ele>953.22</ele>
        <time>2011-04-25T14:25:34Z</time>
      </trkpt>
      <trkpt lat="30.72857" lon="-6.13923">
        <ele>951.926</ele>
        <time>2011-04-25T14:25:56Z</time>
      </trkpt>
      <trkpt lat="30.7189" lon="-6.15782">
        <ele>925.035</ele>
        <time>2011-04-25T14:27:10Z</time>
      </trkpt>
      <trkpt lat="30.71166" lon="-6.16849">
        <ele>916.566</ele>
        <time>2011-04-25T14:27:56Z</time>
      </trkpt>
      <trkpt lat="30.70707" lon="-6.17727">
        <ele>923.892</ele>
        <time>2011-04-25T14:28:33Z</time>
      </trkpt>
      <trkpt lat="30.70187" lon="-6.18464">
        <ele>920.068</ele>
        <time>2011-04-25T14:29:08Z</time>
      </trkpt>
      <trkpt lat="30.69177" lon="-6.1928">
        <ele>895.729</ele>
        <time>2011-04-25T14:29:59Z</time>
      </trkpt>
      <trkpt lat="30.68453" lon="-6.19146">
        <ele>877.917</ele>
        <time>2011-04-25T14:30:57Z</time>
      </trkpt>
      <trkpt lat="30.68422" lon="-6.17716">
        <ele>883.815</ele>
        <time>2011-04-25T14:32:19Z</time>
      </trkpt>
      <trkpt lat="30.6808" lon="-6.1693">
        <ele>878.274</ele>
        <time>2011-04-25T14:33:16Z</time>
      </trkpt>
      <trkpt lat="30.67761" lon="-6.16448">
        <ele>880.053</ele>
        <time>2011-04-25T14:33:48Z</time>
      </trkpt>
      <trkpt lat="30.67677" lon="-6.15917">
        <ele>892.861</ele>
        <time>2011-04-25T14:34:29Z</time>
      </trkpt>
      <trkpt lat="30.67542" lon="-6.15417">
        <ele>905.144</ele>
        <time>2011-04-25T14:35:20Z</time>
      </trkpt>
      <trkpt lat="30.67196" lon="-6.14612">
        <ele>880.57</ele>
        <time>2011-04-25T14:36:21Z</time>
      </trkpt>
      <trkpt lat="30.66691" lon="-6.14193">
        <ele>870.409</ele>
        <time>2011-04-25T14:37:14Z</time>
      </trkpt>
      <trkpt lat="30.66059" lon="-6.14398">
        <ele>865.669</ele>
        <time>2011-04-25T14:37:58Z</time>
      </trkpt>
      <trkpt lat="30.65195" lon="-6.14483">
        <ele>876.869</ele>
        <time>2011-04-25T14:39:03Z</time>
      </trkpt>
      <trkpt lat="30.64264" lon="-6.15245">
        <ele>865.587</ele>
        <time>2011-04-25T14:40:19Z</time>
      </trkpt>
      <trkpt lat="30.63534" lon="-6.15755">
        <ele>860.525</ele>
        <time>2011-04-25T14:41:18Z</time>
      </trkpt>
      <trkpt lat="30.62825" lon="-6.16369">
        <ele>871.006</ele>
        <time>2011-04-25T14:43:26Z</time>
      </trkpt>
      <trkpt lat="30.62307" lon="-6.16546">
        <ele>870.452</ele>
        <time>2011-04-25T14:43:49Z</time>
      </trkpt>
      <trkpt lat="30.61741" lon="-6.16572">
        <ele>856.099</ele>
        <time>2011-04-25T14:44:22Z</time>
      </trkpt>
      <trkpt lat="30.60541" lon="-6.16732">
        <ele>854.018</ele>
        <time>2011-04-25T14:45:33Z</time>
      </trkpt>
      <trkpt lat="30.59777" lon="-6.16586">
        <ele>851.328</ele>
        <time>2011-04-25T14:46:21Z</time>
      </trkpt>
      <trkpt lat="30.59296" lon="-6.16104">
        <ele>849.679</ele>
        <time>2011-04-25T14:47:07Z</time>
      </trkpt>
      <trkpt lat="30.59121" lon="-6.15629">
        <ele>853.116</ele>
        <time>2011-04-25T14:47:40Z</time>
      </trkpt>
      <trkpt lat="30.57823" lon="-6.15026">
        <ele>857.899</ele>
        <time>2011-04-25T14:49:40Z</time>
      </trkpt>
      <trkpt lat="30.56881" lon="-6.14297">
        <ele>843.953</ele>
        <time>2011-04-25T14:50:49Z</time>
      </trkpt>
      <trkpt lat="30.56546" lon="-6.13914">
        <ele>850.127</ele>
        <time>2011-04-25T14:51:12Z</time>
      </trkpt>
      <trkpt lat="30.56064" lon="-6.13259">
        <ele>835.356</ele>
        <time>2011-04-25T14:51:54Z</time>
      </trkpt>
      <trkpt lat="30.55361" lon="-6.12707">
        <ele>835.044</ele>
        <time>2011-04-25T14:52:42Z</time>
      </trkpt>
      <trkpt lat="30.54246" lon="-6.12049">
        <ele>831.796</ele>
        <time>2011-04-25T14:53:52Z</time>
      </trkpt>
      <trkpt lat="30.5376" lon="-6.11478">
        <ele>829.024</ele>
        <time>2011-04-25T14:54:28Z</time>
      </trkpt>
      <trkpt lat="30.53" lon="-6.10864">
        <ele>825.246</ele>
        <time>2011-04-25T14:55:19Z</time>
      </trkpt>
      <trkpt lat="30.52452" lon="-6.10629">
        <ele>832.892</ele>
        <time>2011-04-25T14:55:54Z</time>
      </trkpt>
      <trkpt lat="30.51672" lon="-6.10357">
        <ele>819.776</ele>
        <time>2011-04-25T14:56:45Z</time>
      </trkpt>
      <trkpt lat="30.50694" lon="-6.10167">
        <ele>815.751</ele>
        <time>2011-04-25T14:57:58Z</time>
      </trkpt>
      <trkpt lat="30.50159" lon="-6.10212">
        <ele>820.396</ele>
        <time>2011-04-25T14:58:39Z</time>
      </trkpt>
      <trkpt lat="30.49759" lon="-6.09937">
        <ele>819.659</ele>
        <time>2011-04-25T14:59:07Z</time>
      </trkpt>
      <trkpt lat="30.49349" lon="-6.09274">
        <ele>819.887</ele>
        <time>2011-04-25T14:59:48Z</time>
      </trkpt>
      <trkpt lat="30.48698" lon="-6.08552">
        <ele>813.658</ele>
        <time>2011-04-25T15:00:36Z</time>
      </trkpt>
      <trkpt lat="30.48096" lon="-6.08124">
        <ele>820.172</ele>
        <time>2011-04-25T15:01:15Z</time>
      </trkpt>
      <trkpt lat="30.47531" lon="-6.07264">
        <ele>811.77</ele>
        <time>2011-04-25T15:02:00Z</time>
      </trkpt>
      <trkpt lat="30.47413" lon="-6.062">
        <ele>809.475</ele>
        <time>2011-04-25T15:02:49Z</time>
      </trkpt>
      <trkpt lat="30.47862" lon="-6.05484">
        <ele>806.284</ele>
        <time>2011-04-25T15:03:35Z</time>
      </trkpt>
      <trkpt lat="30.47682" lon="-6.04384">
        <ele>811.668</ele>
        <time>2011-04-25T15:04:32Z</time>
      </trkpt>
      <trkpt lat="30.46888" lon="-6.03057">
        <ele>798.528</ele>
        <time>2011-04-25T15:05:46Z</time>
      </trkpt>
      <trkpt lat="30.46327" lon="-6.02464">
        <ele>798.944</ele>
        <time>2011-04-25T15:06:30Z</time>
      </trkpt>
      <trkpt lat="30.45846" lon="-6.01583">
        <ele>799.743</ele>
        <time>2011-04-25T15:07:19Z</time>
      </trkpt>
      <trkpt lat="30.45558" lon="-6.00545">
        <ele>792.084</ele>
        <time>2011-04-25T15:08:06Z</time>
      </trkpt>
      <trkpt lat="30.44667" lon="-5.98772">
        <ele>794.712</ele>
        <time>2011-04-25T15:09:34Z</time>
      </trkpt>
      <trkpt lat="30.44458" lon="-5.97521">
        <ele>780.877</ele>
        <time>2011-04-25T15:10:24Z</time>
      </trkpt>
      <trkpt lat="30.44778" lon="-5.96768">
        <ele>779.643</ele>
        <time>2011-04-25T15:11:02Z</time>
      </trkpt>
      <trkpt lat="30.45161" lon="-5.9622">
        <ele>778.026</ele>
        <time>2011-04-25T15:11:34Z</time>
      </trkpt>
      <trkpt lat="30.45219" lon="-5.95658">
        <ele>782.003</ele>
        <time>2011-04-25T15:12:00Z</time>
      </trkpt>
      <trkpt lat="30.43353" lon="-5.9313">
        <ele>779.249</ele>
        <time>2011-04-25T15:14:17Z</time>
      </trkpt>
      <trkpt lat="30.42526" lon="-5.9219">
        <ele>777.858</ele>
        <time>2011-04-25T15:15:08Z</time>
      </trkpt>
      <trkpt lat="30.42357" lon="-5.91308">
        <ele>770.994</ele>
        <time>2011-04-25T15:15:42Z</time>
      </trkpt>
      <trkpt lat="30.41722" lon="-5.89871">
        <ele>772.376</ele>
        <time>2011-04-25T15:16:54Z</time>
      </trkpt>
      <trkpt lat="30.41618" lon="-5.89267">
        <ele>761.622</ele>
        <time>2011-04-25T15:17:24Z</time>
      </trkpt>
      <trkpt lat="30.41003" lon="-5.87843">
        <ele>764.102</ele>
        <time>2011-04-25T15:18:35Z</time>
      </trkpt>
      <trkpt lat="30.40597" lon="-5.86979">
        <ele>762.968</ele>
        <time>2011-04-25T15:19:22Z</time>
      </trkpt>
      <trkpt lat="30.40094" lon="-5.86682">
        <ele>781.359</ele>
        <time>2011-04-25T15:19:54Z</time>
      </trkpt>
      <trkpt lat="30.39787" lon="-5.86234">
        <ele>768.844</ele>
        <time>2011-04-25T15:27:53Z</time>
      </trkpt>
      <trkpt lat="30.37798" lon="-5.84541">
        <ele>747.967</ele>
        <time>2011-04-25T15:30:20Z</time>
      </trkpt>
      <trkpt lat="30.36753" lon="-5.84337">
        <ele>742.524</ele>
        <time>2011-04-25T15:31:23Z</time>
      </trkpt>
      <trkpt lat="30.35904" lon="-5.84318">
        <ele>747.531</ele>
        <time>2011-04-25T15:32:26Z</time>
      </trkpt>
      <trkpt lat="30.35469" lon="-5.84047">
        <ele>737.174</ele>
        <time>2011-04-25T15:33:02Z</time>
      </trkpt>
      <trkpt lat="30.34472" lon="-5.83794">
        <ele>725.46</ele>
        <time>2011-04-25T15:40:35Z</time>
      </trkpt>
      <trkpt lat="30.33361" lon="-5.83733">
        <ele>728.944</ele>
        <time>2011-04-25T15:42:56Z</time>
      </trkpt>
      <trkpt lat="30.34029" lon="-5.83709">
        <ele>724.306</ele>
        <time>2011-04-25T15:44:16Z</time>
      </trkpt>
      <trkpt lat="30.33433" lon="-5.8372">
        <ele>738.031</ele>
        <time>2011-04-25T15:56:48Z</time>
      </trkpt>
      <trkpt lat="30.32503" lon="-5.83969">
        <ele>739.93</ele>
        <time>2011-04-25T15:58:36Z</time>
      </trkpt>
      <trkpt lat="30.32045" lon="-5.83937">
        <ele>721.181</ele>
        <time>2011-04-25T15:59:32Z</time>
      </trkpt>
      <trkpt lat="30.32405" lon="-5.8402">
        <ele>761.787</ele>
        <time>2011-04-26T08:19:53Z</time>
      </trkpt>
      <trkpt lat="30.32848" lon="-5.83836">
        <ele>761.15</ele>
        <time>2011-04-26T08:26:42Z</time>
      </trkpt>
      <trkpt lat="30.33531" lon="-5.83716">
        <ele>757.577</ele>
        <time>2011-04-26T08:28:04Z</time>
      </trkpt>
      <trkpt lat="30.34399" lon="-5.83785">
        <ele>751.292</ele>
        <time>2011-04-26T08:29:20Z</time>
      </trkpt>
      <trkpt lat="30.35425" lon="-5.84035">
        <ele>752.816</ele>
        <time>2011-04-26T08:31:32Z</time>
      </trkpt>
      <trkpt lat="30.35842" lon="-5.84303">
        <ele>760.143</ele>
        <time>2011-04-26T08:32:21Z</time>
      </trkpt>
      <trkpt lat="30.36823" lon="-5.84343">
        <ele>760.101</ele>
        <time>2011-04-26T08:33:41Z</time>
      </trkpt>
      <trkpt lat="30.37738" lon="-5.84523">
        <ele>763.767</ele>
        <time>2011-04-26T08:34:43Z</time>
      </trkpt>
      <trkpt lat="30.39455" lon="-5.85956">
        <ele>771.032</ele>
        <time>2011-04-26T08:36:54Z</time>
      </trkpt>
      <trkpt lat="30.39984" lon="-5.86486">
        <ele>798.142</ele>
        <time>2011-04-26T08:37:41Z</time>
      </trkpt>
      <trkpt lat="30.406" lon="-5.86983">
        <ele>779.023</ele>
        <time>2011-04-26T08:38:29Z</time>
      </trkpt>
      <trkpt lat="30.41635" lon="-5.89316">
        <ele>775.098</ele>
        <time>2011-04-26T08:40:47Z</time>
      </trkpt>
      <trkpt lat="30.41836" lon="-5.9014">
        <ele>782.7</ele>
        <time>2011-04-26T08:41:31Z</time>
      </trkpt>
      <trkpt lat="30.42278" lon="-5.90937">
        <ele>775.784</ele>
        <time>2011-04-26T08:42:15Z</time>
      </trkpt>
      <trkpt lat="30.42497" lon="-5.92126">
        <ele>783.512</ele>
        <time>2011-04-26T08:43:08Z</time>
      </trkpt>
      <trkpt lat="30.43428" lon="-5.93223">
        <ele>782.897</ele>
        <time>2011-04-26T08:44:14Z</time>
      </trkpt>
      <trkpt lat="30.4417" lon="-5.94237">
        <ele>794.56</ele>
        <time>2011-04-26T08:45:09Z</time>
      </trkpt>
      <trkpt lat="30.44806" lon="-5.95033">
        <ele>795.851</ele>
        <time>2011-04-26T08:45:58Z</time>
      </trkpt>
      <trkpt lat="30.4521" lon="-5.95574">
        <ele>787.04</ele>
        <time>2011-04-26T08:46:31Z</time>
      </trkpt>
      <trkpt lat="30.4515" lon="-5.9624">
        <ele>786.318</ele>
        <time>2011-04-26T08:47:01Z</time>
      </trkpt>
      <trkpt lat="30.44738" lon="-5.96841">
        <ele>786.45</ele>
        <time>2011-04-26T08:47:37Z</time>
      </trkpt>
      <trkpt lat="30.44506" lon="-5.97342">
        <ele>783.88</ele>
        <time>2011-04-26T08:48:04Z</time>
      </trkpt>
      <trkpt lat="30.44714" lon="-5.98908">
        <ele>793.921</ele>
        <time>2011-04-26T08:49:26Z</time>
      </trkpt>
      <trkpt lat="30.45503" lon="-6.00417">
        <ele>790.3</ele>
        <time>2011-04-26T08:51:07Z</time>
      </trkpt>
      <trkpt lat="30.45836" lon="-6.01509">
        <ele>805.785</ele>
        <time>2011-04-26T08:52:03Z</time>
      </trkpt>
      <trkpt lat="30.46019" lon="-6.02164">
        <ele>798.811</ele>
        <time>2011-04-26T08:52:34Z</time>
      </trkpt>
      <trkpt lat="30.46672" lon="-6.02934">
        <ele>806.382</ele>
        <time>2011-04-26T08:53:24Z</time>
      </trkpt>
      <trkpt lat="30.47497" lon="-6.03886">
        <ele>810.857</ele>
        <time>2011-04-26T08:54:24Z</time>
      </trkpt>
      <trkpt lat="30.47845" lon="-6.05556">
        <ele>812.426</ele>
        <time>2011-04-26T08:55:36Z</time>
      </trkpt>
      <trkpt lat="30.47436" lon="-6.06127">
        <ele>807.156</ele>
        <time>2011-04-26T08:56:08Z</time>
      </trkpt>
      <trkpt lat="30.4742" lon="-6.06948">
        <ele>809.904</ele>
        <time>2011-04-26T08:56:47Z</time>
      </trkpt>
      <trkpt lat="30.47657" lon="-6.07455">
        <ele>815.263</ele>
        <time>2011-04-26T08:57:13Z</time>
      </trkpt>
      <trkpt lat="30.48267" lon="-6.08257">
        <ele>820.676</ele>
        <time>2011-04-26T08:57:55Z</time>
      </trkpt>
      <trkpt lat="30.48679" lon="-6.08534">
        <ele>816.188</ele>
        <time>2011-04-26T08:58:20Z</time>
      </trkpt>
      <trkpt lat="30.49474" lon="-6.09402">
        <ele>818.583</ele>
        <time>2011-04-26T08:59:12Z</time>
      </trkpt>
      <trkpt lat="30.4986" lon="-6.10053">
        <ele>820.927</ele>
        <time>2011-04-26T08:59:50Z</time>
      </trkpt>
      <trkpt lat="30.50643" lon="-6.10161">
        <ele>815.935</ele>
        <time>2011-04-26T09:00:43Z</time>
      </trkpt>
      <trkpt lat="30.51682" lon="-6.10359">
        <ele>820.856</ele>
        <time>2011-04-26T09:01:58Z</time>
      </trkpt>
      <trkpt lat="30.52472" lon="-6.10636">
        <ele>832.581</ele>
        <time>2011-04-26T09:02:41Z</time>
      </trkpt>
      <trkpt lat="30.52905" lon="-6.10798">
        <ele>821.897</ele>
        <time>2011-04-26T09:03:03Z</time>
      </trkpt>
      <trkpt lat="30.53867" lon="-6.11602">
        <ele>828.205</ele>
        <time>2011-04-26T09:04:04Z</time>
      </trkpt>
      <trkpt lat="30.54279" lon="-6.12089">
        <ele>827.486</ele>
        <time>2011-04-26T09:04:33Z</time>
      </trkpt>
      <trkpt lat="30.55542" lon="-6.12804">
        <ele>828.681</ele>
        <time>2011-04-26T09:05:43Z</time>
      </trkpt>
      <trkpt lat="30.56075" lon="-6.13269">
        <ele>832.886</ele>
        <time>2011-04-26T09:06:15Z</time>
      </trkpt>
      <trkpt lat="30.565" lon="-6.1385">
        <ele>841.667</ele>
        <time>2011-04-26T09:06:46Z</time>
      </trkpt>
      <trkpt lat="30.56937" lon="-6.14349">
        <ele>838.024</ele>
        <time>2011-04-26T09:07:14Z</time>
      </trkpt>
      <trkpt lat="30.57852" lon="-6.15045">
        <ele>853.4</ele>
        <time>2011-04-26T09:08:11Z</time>
      </trkpt>
      <trkpt lat="30.59069" lon="-6.15583">
        <ele>847.211</ele>
        <time>2011-04-26T09:09:23Z</time>
      </trkpt>
      <trkpt lat="30.59309" lon="-6.16126">
        <ele>845.764</ele>
        <time>2011-04-26T09:10:14Z</time>
      </trkpt>
      <trkpt lat="30.59711" lon="-6.16559">
        <ele>846.238</ele>
        <time>2011-04-26T09:12:03Z</time>
      </trkpt>
      <trkpt lat="30.60464" lon="-6.1673">
        <ele>849.302</ele>
        <time>2011-04-26T09:12:42Z</time>
      </trkpt>
      <trkpt lat="30.6258" lon="-6.16528">
        <ele>854.217</ele>
        <time>2011-04-26T09:19:10Z</time>
      </trkpt>
      <trkpt lat="30.64256" lon="-6.15254">
        <ele>858.516</ele>
        <time>2011-04-26T09:20:47Z</time>
      </trkpt>
      <trkpt lat="30.64646" lon="-6.1484">
        <ele>882.09</ele>
        <time>2011-04-26T09:21:11Z</time>
      </trkpt>
      <trkpt lat="30.65092" lon="-6.14498">
        <ele>870.162</ele>
        <time>2011-04-26T09:21:37Z</time>
      </trkpt>
      <trkpt lat="30.66029" lon="-6.14405">
        <ele>860.439</ele>
        <time>2011-04-26T09:22:31Z</time>
      </trkpt>
      <trkpt lat="30.6666" lon="-6.14192">
        <ele>858.77</ele>
        <time>2011-04-26T09:23:17Z</time>
      </trkpt>
      <trkpt lat="30.67197" lon="-6.14613">
        <ele>871.058</ele>
        <time>2011-04-26T09:25:07Z</time>
      </trkpt>
      <trkpt lat="30.67539" lon="-6.15407">
        <ele>893.154</ele>
        <time>2011-04-26T09:26:05Z</time>
      </trkpt>
      <trkpt lat="30.67651" lon="-6.15867">
        <ele>882.246</ele>
        <time>2011-04-26T09:26:52Z</time>
      </trkpt>
      <trkpt lat="30.67754" lon="-6.16431">
        <ele>869.322</ele>
        <time>2011-04-26T09:27:38Z</time>
      </trkpt>
      <trkpt lat="30.68096" lon="-6.16964">
        <ele>871.164</ele>
        <time>2011-04-26T09:28:06Z</time>
      </trkpt>
      <trkpt lat="30.6841" lon="-6.17658">
        <ele>871.651</ele>
        <time>2011-04-26T09:28:49Z</time>
      </trkpt>
      <trkpt lat="30.68447" lon="-6.19287">
        <ele>870.557</ele>
        <time>2011-04-26T09:30:29Z</time>
      </trkpt>
      <trkpt lat="30.68553" lon="-6.2033">
        <ele>873.469</ele>
        <time>2011-04-26T09:31:13Z</time>
      </trkpt>
      <trkpt lat="30.68749" lon="-6.21206">
        <ele>884.949</ele>
        <time>2011-04-26T09:31:57Z</time>
      </trkpt>
      <trkpt lat="30.68891" lon="-6.21925">
        <ele>887.858</ele>
        <time>2011-04-26T09:32:27Z</time>
      </trkpt>
      <trkpt lat="30.68859" lon="-6.22753">
        <ele>914.926</ele>
        <time>2011-04-26T09:33:11Z</time>
      </trkpt>
      <trkpt lat="30.68991" lon="-6.23487">
        <ele>893.361</ele>
        <time>2011-04-26T09:34:01Z</time>
      </trkpt>
      <trkpt lat="30.69485" lon="-6.23943">
        <ele>880.804</ele>
        <time>2011-04-26T09:34:40Z</time>
      </trkpt>
      <trkpt lat="30.69719" lon="-6.24766">
        <ele>894.347</ele>
        <time>2011-04-26T09:35:22Z</time>
      </trkpt>
      <trkpt lat="30.69388" lon="-6.25908">
        <ele>889.427</ele>
        <time>2011-04-26T09:36:20Z</time>
      </trkpt>
      <trkpt lat="30.68925" lon="-6.26268">
        <ele>896.719</ele>
        <time>2011-04-26T09:36:58Z</time>
      </trkpt>
      <trkpt lat="30.68366" lon="-6.26898">
        <ele>895.317</ele>
        <time>2011-04-26T09:37:36Z</time>
      </trkpt>
      <trkpt lat="30.67878" lon="-6.27201">
        <ele>891.494</ele>
        <time>2011-04-26T09:38:03Z</time>
      </trkpt>
      <trkpt lat="30.67499" lon="-6.27806">
        <ele>896.65</ele>
        <time>2011-04-26T09:38:38Z</time>
      </trkpt>
      <trkpt lat="30.67269" lon="-6.28423">
        <ele>900.575</ele>
        <time>2011-04-26T09:39:06Z</time>
      </trkpt>
      <trkpt lat="30.67466" lon="-6.29454">
        <ele>912.502</ele>
        <time>2011-04-26T09:39:53Z</time>
      </trkpt>
      <trkpt lat="30.67395" lon="-6.30003">
        <ele>927.544</ele>
        <time>2011-04-26T09:40:15Z</time>
      </trkpt>
      <trkpt lat="30.66816" lon="-6.30996">
        <ele>954.96</ele>
        <time>2011-04-26T09:41:01Z</time>
      </trkpt>
      <trkpt lat="30.66586" lon="-6.31971">
        <ele>977.247</ele>
        <time>2011-04-26T09:41:53Z</time>
      </trkpt>
      <trkpt lat="30.66762" lon="-6.3267">
        <ele>954.524</ele>
        <time>2011-04-26T09:42:25Z</time>
      </trkpt>
      <trkpt lat="30.67112" lon="-6.33029">
        <ele>921.586</ele>
        <time>2011-04-26T09:42:54Z</time>
      </trkpt>
      <trkpt lat="30.66955" lon="-6.3359">
        <ele>912.92</ele>
        <time>2011-04-26T09:43:29Z</time>
      </trkpt>
      <trkpt lat="30.6711" lon="-6.34616">
        <ele>913.176</ele>
        <time>2011-04-26T09:44:30Z</time>
      </trkpt>
      <trkpt lat="30.67164" lon="-6.35374">
        <ele>914.556</ele>
        <time>2011-04-26T09:45:24Z</time>
      </trkpt>
      <trkpt lat="30.67207" lon="-6.3612">
        <ele>917.224</ele>
        <time>2011-04-26T09:46:04Z</time>
      </trkpt>
      <trkpt lat="30.67155" lon="-6.37332">
        <ele>916.206</ele>
        <time>2011-04-26T09:47:06Z</time>
      </trkpt>
      <trkpt lat="30.66808" lon="-6.3789">
        <ele>919.458</ele>
        <time>2011-04-26T09:47:43Z</time>
      </trkpt>
      <trkpt lat="30.66863" lon="-6.38843">
        <ele>919.975</ele>
        <time>2011-04-26T09:48:27Z</time>
      </trkpt>
      <trkpt lat="30.66984" lon="-6.40388">
        <ele>920.285</ele>
        <time>2011-04-26T09:49:49Z</time>
      </trkpt>
      <trkpt lat="30.67491" lon="-6.40818">
        <ele>919.336</ele>
        <time>2011-04-26T09:50:31Z</time>
      </trkpt>
      <trkpt lat="30.67863" lon="-6.41477">
        <ele>928.397</ele>
        <time>2011-04-26T09:51:09Z</time>
      </trkpt>
      <trkpt lat="30.67921" lon="-6.4234">
        <ele>932.334</ele>
        <time>2011-04-26T09:51:44Z</time>
      </trkpt>
      <trkpt lat="30.68436" lon="-6.43487">
        <ele>937.696</ele>
        <time>2011-04-26T09:53:01Z</time>
      </trkpt>
      <trkpt lat="30.6863" lon="-6.4426">
        <ele>937.771</ele>
        <time>2011-04-26T09:53:50Z</time>
      </trkpt>
      <trkpt lat="30.69327" lon="-6.44814">
        <ele>942.658</ele>
        <time>2011-04-26T09:54:57Z</time>
      </trkpt>
      <trkpt lat="30.69361" lon="-6.45515">
        <ele>946.144</ele>
        <time>2011-04-26T09:55:56Z</time>
      </trkpt>
      <trkpt lat="30.70019" lon="-6.48002">
        <ele>988.977</ele>
        <time>2011-04-26T09:57:52Z</time>
      </trkpt>
      <trkpt lat="30.71302" lon="-6.50279">
        <ele>1042.705</ele>
        <time>2011-04-26T09:59:35Z</time>
      </trkpt>
      <trkpt lat="30.71399" lon="-6.51206">
        <ele>1087.273</ele>
        <time>2011-04-26T10:00:12Z</time>
      </trkpt>
      <trkpt lat="30.71473" lon="-6.51865">
        <ele>1087.256</ele>
        <time>2011-04-26T10:00:37Z</time>
      </trkpt>
      <trkpt lat="30.71616" lon="-6.53537">
        <ele>1133.934</ele>
        <time>2011-04-26T10:02:10Z</time>
      </trkpt>
      <trkpt lat="30.7214" lon="-6.53741">
        <ele>1156.375</ele>
        <time>2011-04-26T10:02:44Z</time>
      </trkpt>
      <trkpt lat="30.72515" lon="-6.53169">
        <ele>1195.205</ele>
        <time>2011-04-26T10:03:27Z</time>
      </trkpt>
      <trkpt lat="30.72479" lon="-6.54091">
        <ele>1279.656</ele>
        <time>2011-04-26T10:04:49Z</time>
      </trkpt>
      <trkpt lat="30.7255" lon="-6.55377">
        <ele>1360.829</ele>
        <time>2011-04-26T10:06:12Z</time>
      </trkpt>
      <trkpt lat="30.72377" lon="-6.56254">
        <ele>1402.134</ele>
        <time>2011-04-26T10:08:37Z</time>
      </trkpt>
      <trkpt lat="30.71818" lon="-6.56796">
        <ele>1441.607</ele>
        <time>2011-04-26T10:10:19Z</time>
      </trkpt>
      <trkpt lat="30.71048" lon="-6.5793">
        <ele>1534.917</ele>
        <time>2011-04-26T10:24:15Z</time>
      </trkpt>
      <trkpt lat="30.70812" lon="-6.58301">
        <ele>1572.019</ele>
        <time>2011-04-26T10:25:14Z</time>
      </trkpt>
      <trkpt lat="30.71035" lon="-6.58847">
        <ele>1621.991</ele>
        <time>2011-04-26T10:26:18Z</time>
      </trkpt>
      <trkpt lat="30.70585" lon="-6.59188">
        <ele>1642.216</ele>
        <time>2011-04-26T10:27:05Z</time>
      </trkpt>
      <trkpt lat="30.70701" lon="-6.59557">
        <ele>1634.87</ele>
        <time>2011-04-26T10:27:56Z</time>
      </trkpt>
      <trkpt lat="30.71145" lon="-6.5921">
        <ele>1638.931</ele>
        <time>2011-04-26T10:28:33Z</time>
      </trkpt>
      <trkpt lat="30.71273" lon="-6.59815">
        <ele>1650.473</ele>
        <time>2011-04-26T10:29:16Z</time>
      </trkpt>
      <trkpt lat="30.71562" lon="-6.59334">
        <ele>1659.677</ele>
        <time>2011-04-26T10:29:57Z</time>
      </trkpt>
      <trkpt lat="30.71762" lon="-6.59945">
        <ele>1665.001</ele>
        <time>2011-04-26T10:30:32Z</time>
      </trkpt>
      <trkpt lat="30.72381" lon="-6.60365">
        <ele>1667.34</ele>
        <time>2011-04-26T10:31:54Z</time>
      </trkpt>
      <trkpt lat="30.72364" lon="-6.60976">
        <ele>1688.523</ele>
        <time>2011-04-26T10:33:35Z</time>
      </trkpt>
      <trkpt lat="30.72114" lon="-6.61574">
        <ele>1641.413</ele>
        <time>2011-04-26T10:34:20Z</time>
      </trkpt>
      <trkpt lat="30.71813" lon="-6.62069">
        <ele>1618.345</ele>
        <time>2011-04-26T10:35:20Z</time>
      </trkpt>
      <trkpt lat="30.72219" lon="-6.61997">
        <ele>1569.586</ele>
        <time>2011-04-26T10:35:57Z</time>
      </trkpt>
      <trkpt lat="30.73043" lon="-6.62445">
        <ele>1513.083</ele>
        <time>2011-04-26T10:36:44Z</time>
      </trkpt>
      <trkpt lat="30.73325" lon="-6.63581">
        <ele>1519.137</ele>
        <time>2011-04-26T10:37:47Z</time>
      </trkpt>
      <trkpt lat="30.73714" lon="-6.63974">
        <ele>1510.165</ele>
        <time>2011-04-26T10:38:13Z</time>
      </trkpt>
      <trkpt lat="30.73887" lon="-6.64614">
        <ele>1495.773</ele>
        <time>2011-04-26T10:38:42Z</time>
      </trkpt>
      <trkpt lat="30.7375" lon="-6.65164">
        <ele>1490.214</ele>
        <time>2011-04-26T10:39:08Z</time>
      </trkpt>
      <trkpt lat="30.73597" lon="-6.66289">
        <ele>1488.297</ele>
        <time>2011-04-26T10:39:54Z</time>
      </trkpt>
      <trkpt lat="30.74353" lon="-6.67204">
        <ele>1505.136</ele>
        <time>2011-04-26T10:40:45Z</time>
      </trkpt>
      <trkpt lat="30.74964" lon="-6.6734">
        <ele>1531.745</ele>
        <time>2011-04-26T10:41:21Z</time>
      </trkpt>
      <trkpt lat="30.74846" lon="-6.68622">
        <ele>1592.564</ele>
        <time>2011-04-26T10:42:15Z</time>
      </trkpt>
      <trkpt lat="30.7547" lon="-6.69021">
        <ele>1546.865</ele>
        <time>2011-04-26T10:43:17Z</time>
      </trkpt>
      <trkpt lat="30.75938" lon="-6.68968">
        <ele>1510.566</ele>
        <time>2011-04-26T10:43:59Z</time>
      </trkpt>
      <trkpt lat="30.7743" lon="-6.68416">
        <ele>1455.261</ele>
        <time>2011-04-26T10:45:29Z</time>
      </trkpt>
      <trkpt lat="30.78053" lon="-6.68946">
        <ele>1467.921</ele>
        <time>2011-04-26T10:46:02Z</time>
      </trkpt>
      <trkpt lat="30.78586" lon="-6.69769">
        <ele>1423.021</ele>
        <time>2011-04-26T10:46:38Z</time>
      </trkpt>
      <trkpt lat="30.78968" lon="-6.71072">
        <ele>1406.567</ele>
        <time>2011-04-26T10:47:25Z</time>
      </trkpt>
      <trkpt lat="30.78886" lon="-6.71863">
        <ele>1384.225</ele>
        <time>2011-04-26T10:47:58Z</time>
      </trkpt>
      <trkpt lat="30.79697" lon="-6.72548">
        <ele>1352.345</ele>
        <time>2011-04-26T10:48:41Z</time>
      </trkpt>
      <trkpt lat="30.79933" lon="-6.73872">
        <ele>1347.221</ele>
        <time>2011-04-26T10:49:32Z</time>
      </trkpt>
      <trkpt lat="30.79907" lon="-6.7463">
        <ele>1354.183</ele>
        <time>2011-04-26T10:50:03Z</time>
      </trkpt>
      <trkpt lat="30.80369" lon="-6.74907">
        <ele>1343.397</ele>
        <time>2011-04-26T10:50:25Z</time>
      </trkpt>
      <trkpt lat="30.80735" lon="-6.75268">
        <ele>1338.848</ele>
        <time>2011-04-26T10:50:44Z</time>
      </trkpt>
      <trkpt lat="30.81214" lon="-6.75918">
        <ele>1344.336</ele>
        <time>2011-04-26T10:51:14Z</time>
      </trkpt>
      <trkpt lat="30.81803" lon="-6.76644">
        <ele>1296.665</ele>
        <time>2011-04-26T10:51:56Z</time>
      </trkpt>
      <trkpt lat="30.82404" lon="-6.77172">
        <ele>1264.33</ele>
        <time>2011-04-26T10:52:28Z</time>
      </trkpt>
      <trkpt lat="30.82714" lon="-6.77865">
        <ele>1253.606</ele>
        <time>2011-04-26T10:53:03Z</time>
      </trkpt>
      <trkpt lat="30.83119" lon="-6.78431">
        <ele>1239.805</ele>
        <time>2011-04-26T10:53:33Z</time>
      </trkpt>
      <trkpt lat="30.83555" lon="-6.78847">
        <ele>1236.975</ele>
        <time>2011-04-26T10:53:56Z</time>
      </trkpt>
      <trkpt lat="30.84325" lon="-6.80922">
        <ele>1221.545</ele>
        <time>2011-04-26T10:55:13Z</time>
      </trkpt>
      <trkpt lat="30.8484" lon="-6.8194">
        <ele>1186.413</ele>
        <time>2011-04-26T10:56:02Z</time>
      </trkpt>
      <trkpt lat="30.84964" lon="-6.8245">
        <ele>1181.88</ele>
        <time>2011-04-26T10:56:23Z</time>
      </trkpt>
      <trkpt lat="30.85223" lon="-6.8321">
        <ele>1159.534</ele>
        <time>2011-04-26T10:57:00Z</time>
      </trkpt>
      <trkpt lat="30.85669" lon="-6.83716">
        <ele>1153.406</ele>
        <time>2011-04-26T10:57:27Z</time>
      </trkpt>
      <trkpt lat="30.86127" lon="-6.83986">
        <ele>1158.6</ele>
        <time>2011-04-26T10:57:48Z</time>
      </trkpt>
      <trkpt lat="30.86173" lon="-6.84693">
        <ele>1152.659</ele>
        <time>2011-04-26T10:58:23Z</time>
      </trkpt>
      <trkpt lat="30.86493" lon="-6.8575">
        <ele>1164.615</ele>
        <time>2011-04-26T10:59:09Z</time>
      </trkpt>
      <trkpt lat="30.8667" lon="-6.86564">
        <ele>1150.54</ele>
        <time>2011-04-26T10:59:50Z</time>
      </trkpt>
      <trkpt lat="30.86713" lon="-6.87096">
        <ele>1160.68</ele>
        <time>2011-04-26T11:00:15Z</time>
      </trkpt>
      <trkpt lat="30.87468" lon="-6.88391">
        <ele>1179.996</ele>
        <time>2011-04-26T11:01:14Z</time>
      </trkpt>
      <trkpt lat="30.88066" lon="-6.88733">
        <ele>1212.184</ele>
        <time>2011-04-26T11:01:48Z</time>
      </trkpt>
      <trkpt lat="30.88392" lon="-6.89099">
        <ele>1195.297</ele>
        <time>2011-04-26T11:02:14Z</time>
      </trkpt>
      <trkpt lat="30.89366" lon="-6.8975">
        <ele>1167.714</ele>
        <time>2011-04-26T11:03:05Z</time>
      </trkpt>
      <trkpt lat="30.91342" lon="-6.95238">
        <ele>1159.886</ele>
        <time>2011-04-26T11:09:37Z</time>
      </trkpt>
      <trkpt lat="30.91552" lon="-6.96227">
        <ele>1160.993</ele>
        <time>2011-04-26T11:10:27Z</time>
      </trkpt>
      <trkpt lat="30.92083" lon="-6.96898">
        <ele>1161.316</ele>
        <time>2011-04-26T11:11:21Z</time>
      </trkpt>
      <trkpt lat="30.92074" lon="-6.98258">
        <ele>1169.728</ele>
        <time>2011-04-26T11:12:46Z</time>
      </trkpt>
      <trkpt lat="30.92336" lon="-6.98847">
        <ele>1171.673</ele>
        <time>2011-04-26T11:13:26Z</time>
      </trkpt>
      <trkpt lat="30.9295" lon="-6.99462">
        <ele>1182.442</ele>
        <time>2011-04-26T11:14:44Z</time>
      </trkpt>
      <trkpt lat="30.94023" lon="-6.98448">
        <ele>1171.699</ele>
        <time>2011-04-26T11:16:38Z</time>
      </trkpt>
      <trkpt lat="30.94149" lon="-6.98944">
        <ele>1164.855</ele>
        <time>2011-04-26T11:23:10Z</time>
      </trkpt>
      <trkpt lat="30.94416" lon="-7.00369">
        <ele>1168.738</ele>
        <time>2011-04-26T11:24:19Z</time>
      </trkpt>
      <trkpt lat="30.94665" lon="-7.01139">
        <ele>1173.388</ele>
        <time>2011-04-26T11:24:50Z</time>
      </trkpt>
      <trkpt lat="30.94735" lon="-7.02202">
        <ele>1202.198</ele>
        <time>2011-04-26T11:25:28Z</time>
      </trkpt>
      <trkpt lat="30.94847" lon="-7.03544">
        <ele>1213.704</ele>
        <time>2011-04-26T11:26:15Z</time>
      </trkpt>
      <trkpt lat="30.95381" lon="-7.04253">
        <ele>1213.832</ele>
        <time>2011-04-26T11:26:50Z</time>
      </trkpt>
      <trkpt lat="30.96165" lon="-7.04666">
        <ele>1220.217</ele>
        <time>2011-04-26T11:27:29Z</time>
      </trkpt>
      <trkpt lat="30.97094" lon="-7.05836">
        <ele>1229.012</ele>
        <time>2011-04-26T11:28:29Z</time>
      </trkpt>
      <trkpt lat="30.97639" lon="-7.06511">
        <ele>1235.933</ele>
        <time>2011-04-26T11:29:09Z</time>
      </trkpt>
      <trkpt lat="30.97183" lon="-7.07176">
        <ele>1257.306</ele>
        <time>2011-04-26T11:29:43Z</time>
      </trkpt>
      <trkpt lat="30.96894" lon="-7.07551">
        <ele>1270.632</ele>
        <time>2011-04-26T11:30:18Z</time>
      </trkpt>
      <trkpt lat="30.96856" lon="-7.0858">
        <ele>1281.561</ele>
        <time>2011-04-26T11:31:07Z</time>
      </trkpt>
      <trkpt lat="30.97079" lon="-7.09191">
        <ele>1248.414</ele>
        <time>2011-04-26T11:32:03Z</time>
      </trkpt>
      <trkpt lat="30.97569" lon="-7.09414">
        <ele>1227.824</ele>
        <time>2011-04-26T11:32:40Z</time>
      </trkpt>
      <trkpt lat="30.97453" lon="-7.11015">
        <ele>1213.905</ele>
        <time>2011-04-26T11:34:03Z</time>
      </trkpt>
      <trkpt lat="30.98582" lon="-7.13091">
        <ele>1228.396</ele>
        <time>2011-04-26T11:35:43Z</time>
      </trkpt>
      <trkpt lat="30.98879" lon="-7.13636">
        <ele>1228.329</ele>
        <time>2011-04-26T11:36:16Z</time>
      </trkpt>
      <trkpt lat="31.00113" lon="-7.15347">
        <ele>1254.037</ele>
        <time>2011-04-26T11:37:44Z</time>
      </trkpt>
      <trkpt lat="31.01053" lon="-7.1554">
        <ele>1271.361</ele>
        <time>2011-04-26T11:38:24Z</time>
      </trkpt>
      <trkpt lat="31.01636" lon="-7.15669">
        <ele>1270.291</ele>
        <time>2011-04-26T11:38:48Z</time>
      </trkpt>
      <trkpt lat="31.01936" lon="-7.16072">
        <ele>1274.117</ele>
        <time>2011-04-26T11:39:06Z</time>
      </trkpt>
      <trkpt lat="31.02419" lon="-7.17196">
        <ele>1279.499</ele>
        <time>2011-04-26T11:39:58Z</time>
      </trkpt>
      <trkpt lat="31.02713" lon="-7.18802">
        <ele>1291.169</ele>
        <time>2011-04-26T11:42:52Z</time>
      </trkpt>
      <trkpt lat="31.03096" lon="-7.1921">
        <ele>1301.216</ele>
        <time>2011-04-26T11:43:14Z</time>
      </trkpt>
      <trkpt lat="31.03674" lon="-7.19364">
        <ele>1310.423</ele>
        <time>2011-04-26T11:43:39Z</time>
      </trkpt>
      <trkpt lat="31.03997" lon="-7.20034">
        <ele>1316.749</ele>
        <time>2011-04-26T11:44:10Z</time>
      </trkpt>
      <trkpt lat="31.04439" lon="-7.21063">
        <ele>1321.013</ele>
        <time>2011-04-26T11:45:14Z</time>
      </trkpt>
      <trkpt lat="31.04558" lon="-7.22044">
        <ele>1324.826</ele>
        <time>2011-04-26T11:46:18Z</time>
      </trkpt>
      <trkpt lat="31.04779" lon="-7.22928">
        <ele>1344.807</ele>
        <time>2011-04-26T11:47:05Z</time>
      </trkpt>
      <trkpt lat="31.05909" lon="-7.24902">
        <ele>1374.07</ele>
        <time>2011-04-26T11:48:35Z</time>
      </trkpt>
      <trkpt lat="31.06328" lon="-7.25434">
        <ele>1380.025</ele>
        <time>2011-04-26T13:23:24Z</time>
      </trkpt>
      <trkpt lat="31.06832" lon="-7.2565">
        <ele>1389.383</ele>
        <time>2011-04-26T13:23:54Z</time>
      </trkpt>
      <trkpt lat="31.07613" lon="-7.26331">
        <ele>1397.238</ele>
        <time>2011-04-26T13:24:45Z</time>
      </trkpt>
      <trkpt lat="31.07776" lon="-7.27377">
        <ele>1407.004</ele>
        <time>2011-04-26T13:25:40Z</time>
      </trkpt>
      <trkpt lat="31.08098" lon="-7.28139">
        <ele>1425.546</ele>
        <time>2011-04-26T13:26:14Z</time>
      </trkpt>
      <trkpt lat="31.08471" lon="-7.29088">
        <ele>1431.816</ele>
        <time>2011-04-26T13:26:55Z</time>
      </trkpt>
      <trkpt lat="31.09103" lon="-7.298">
        <ele>1449.67</ele>
        <time>2011-04-26T13:27:36Z</time>
      </trkpt>
      <trkpt lat="31.09544" lon="-7.302">
        <ele>1445.428</ele>
        <time>2011-04-26T13:28:01Z</time>
      </trkpt>
      <trkpt lat="31.10282" lon="-7.30139">
        <ele>1464.354</ele>
        <time>2011-04-26T13:28:46Z</time>
      </trkpt>
      <trkpt lat="31.10871" lon="-7.30459">
        <ele>1475.973</ele>
        <time>2011-04-26T13:29:17Z</time>
      </trkpt>
      <trkpt lat="31.11305" lon="-7.31566">
        <ele>1480.577</ele>
        <time>2011-04-26T13:30:09Z</time>
      </trkpt>
      <trkpt lat="31.12042" lon="-7.31904">
        <ele>1500.764</ele>
        <time>2011-04-26T13:30:54Z</time>
      </trkpt>
      <trkpt lat="31.12622" lon="-7.32554">
        <ele>1515.458</ele>
        <time>2011-04-26T13:31:35Z</time>
      </trkpt>
      <trkpt lat="31.12678" lon="-7.33192">
        <ele>1528.466</ele>
        <time>2011-04-26T13:32:09Z</time>
      </trkpt>
      <trkpt lat="31.12888" lon="-7.33888">
        <ele>1523.89</ele>
        <time>2011-04-26T13:32:40Z</time>
      </trkpt>
      <trkpt lat="31.12738" lon="-7.34908">
        <ele>1528.183</ele>
        <time>2011-04-26T13:33:30Z</time>
      </trkpt>
      <trkpt lat="31.12901" lon="-7.36531">
        <ele>1563.246</ele>
        <time>2011-04-26T13:34:48Z</time>
      </trkpt>
      <trkpt lat="31.13339" lon="-7.36981">
        <ele>1588.052</ele>
        <time>2011-04-26T13:36:35Z</time>
      </trkpt>
      <trkpt lat="31.1337" lon="-7.3794">
        <ele>1626.728</ele>
        <time>2011-04-26T13:37:39Z</time>
      </trkpt>
      <trkpt lat="31.13628" lon="-7.38513">
        <ele>1640.9</ele>
        <time>2011-04-26T13:38:09Z</time>
      </trkpt>
      <trkpt lat="31.14076" lon="-7.38914">
        <ele>1618.035</ele>
        <time>2011-04-26T13:38:44Z</time>
      </trkpt>
      <trkpt lat="31.14129" lon="-7.3962">
        <ele>1598.94</ele>
        <time>2011-04-26T13:39:44Z</time>
      </trkpt>
      <trkpt lat="31.14422" lon="-7.40575">
        <ele>1621.144</ele>
        <time>2011-04-26T13:40:28Z</time>
      </trkpt>
      <trkpt lat="31.14549" lon="-7.41669">
        <ele>1624.521</ele>
        <time>2011-04-26T13:41:37Z</time>
      </trkpt>
      <trkpt lat="31.14591" lon="-7.42218">
        <ele>1641.729</ele>
        <time>2011-04-26T13:42:19Z</time>
      </trkpt>
      <trkpt lat="31.1497" lon="-7.43092">
        <ele>1662.84</ele>
        <time>2011-04-26T13:43:21Z</time>
      </trkpt>
      <trkpt lat="31.14923" lon="-7.43817">
        <ele>1669.628</ele>
        <time>2011-04-26T13:44:00Z</time>
      </trkpt>
      <trkpt lat="31.15142" lon="-7.44577">
        <ele>1681.566</ele>
        <time>2011-04-26T13:44:40Z</time>
      </trkpt>
      <trkpt lat="31.15337" lon="-7.45114">
        <ele>1679.23</ele>
        <time>2011-04-26T13:45:07Z</time>
      </trkpt>
      <trkpt lat="31.15421" lon="-7.45744">
        <ele>1693.989</ele>
        <time>2011-04-26T13:45:40Z</time>
      </trkpt>
      <trkpt lat="31.15983" lon="-7.46429">
        <ele>1697.226</ele>
        <time>2011-04-26T13:46:32Z</time>
      </trkpt>
      <trkpt lat="31.16543" lon="-7.46346">
        <ele>1701.417</ele>
        <time>2011-04-26T13:47:22Z</time>
      </trkpt>
      <trkpt lat="31.17037" lon="-7.46595">
        <ele>1716.414</ele>
        <time>2011-04-26T13:49:41Z</time>
      </trkpt>
      <trkpt lat="31.17884" lon="-7.46046">
        <ele>1720.291</ele>
        <time>2011-04-26T13:50:32Z</time>
      </trkpt>
      <trkpt lat="31.18329" lon="-7.45849">
        <ele>1736.705</ele>
        <time>2011-04-26T13:50:57Z</time>
      </trkpt>
      <trkpt lat="31.19429" lon="-7.45468">
        <ele>1757.242</ele>
        <time>2011-04-26T13:51:52Z</time>
      </trkpt>
      <trkpt lat="31.19616" lon="-7.44824">
        <ele>1773.374</ele>
        <time>2011-04-26T13:52:27Z</time>
      </trkpt>
      <trkpt lat="31.20018" lon="-7.44137">
        <ele>1801.789</ele>
        <time>2011-04-26T13:53:56Z</time>
      </trkpt>
      <trkpt lat="31.20761" lon="-7.43887">
        <ele>1816.2</ele>
        <time>2011-04-26T13:55:13Z</time>
      </trkpt>
      <trkpt lat="31.21112" lon="-7.43586">
        <ele>1823.013</ele>
        <time>2011-04-26T13:55:45Z</time>
      </trkpt>
      <trkpt lat="31.21631" lon="-7.43147">
        <ele>1847.303</ele>
        <time>2011-04-26T13:56:18Z</time>
      </trkpt>
      <trkpt lat="31.22008" lon="-7.42855">
        <ele>1852.38</ele>
        <time>2011-04-26T13:56:43Z</time>
      </trkpt>
      <trkpt lat="31.22432" lon="-7.42489">
        <ele>1886.766</ele>
        <time>2011-04-26T13:57:14Z</time>
      </trkpt>
      <trkpt lat="31.22909" lon="-7.42594">
        <ele>1903.798</ele>
        <time>2011-04-26T13:57:51Z</time>
      </trkpt>
      <trkpt lat="31.22904" lon="-7.42173">
        <ele>1927.208</ele>
        <time>2011-04-26T13:58:27Z</time>
      </trkpt>
      <trkpt lat="31.23173" lon="-7.41671">
        <ele>1956.329</ele>
        <time>2011-04-26T13:59:05Z</time>
      </trkpt>
      <trkpt lat="31.23804" lon="-7.41442">
        <ele>1994.888</ele>
        <time>2011-04-26T13:59:45Z</time>
      </trkpt>
      <trkpt lat="31.24712" lon="-7.41096">
        <ele>1978.588</ele>
        <time>2011-04-26T14:00:55Z</time>
      </trkpt>
      <trkpt lat="31.25194" lon="-7.41032">
        <ele>2004.527</ele>
        <time>2011-04-26T14:01:20Z</time>
      </trkpt>
      <trkpt lat="31.26365" lon="-7.41299">
        <ele>2037.687</ele>
        <time>2011-04-26T14:02:20Z</time>
      </trkpt>
      <trkpt lat="31.27082" lon="-7.41301">
        <ele>2079.876</ele>
        <time>2011-04-26T14:03:03Z</time>
      </trkpt>
      <trkpt lat="31.26746" lon="-7.40958">
        <ele>2104.386</ele>
        <time>2011-04-26T14:03:43Z</time>
      </trkpt>
      <trkpt lat="31.26358" lon="-7.40381">
        <ele>2119.599</ele>
        <time>2011-04-26T14:04:25Z</time>
      </trkpt>
      <trkpt lat="31.25883" lon="-7.39843">
        <ele>2149.285</ele>
        <time>2011-04-26T14:05:17Z</time>
      </trkpt>
      <trkpt lat="31.26089" lon="-7.38895">
        <ele>2111.333</ele>
        <time>2011-04-26T14:06:34Z</time>
      </trkpt>
      <trkpt lat="31.2679" lon="-7.38368">
        <ele>2116.423</ele>
        <time>2011-04-26T14:07:54Z</time>
      </trkpt>
      <trkpt lat="31.27007" lon="-7.38088">
        <ele>2149.771</ele>
        <time>2011-04-26T14:08:39Z</time>
      </trkpt>
      <trkpt lat="31.27373" lon="-7.37887">
        <ele>2173.788</ele>
        <time>2011-04-26T14:09:43Z</time>
      </trkpt>
      <trkpt lat="31.27893" lon="-7.37763">
        <ele>2202.597</ele>
        <time>2011-04-26T14:10:34Z</time>
      </trkpt>
      <trkpt lat="31.2823" lon="-7.38025">
        <ele>2199.309</ele>
        <time>2011-04-26T14:11:13Z</time>
      </trkpt>
      <trkpt lat="31.28562" lon="-7.38114">
        <ele>2195.696</ele>
        <time>2011-04-26T14:12:00Z</time>
      </trkpt>
      <trkpt lat="31.2887" lon="-7.38217">
        <ele>2163.13</ele>
        <time>2011-04-26T14:13:36Z</time>
      </trkpt>
      <trkpt lat="31.29882" lon="-7.37158">
        <ele>2105.211</ele>
        <time>2011-04-26T14:14:57Z</time>
      </trkpt>
      <trkpt lat="31.30381" lon="-7.3722">
        <ele>2086.412</ele>
        <time>2011-04-26T14:15:25Z</time>
      </trkpt>
      <trkpt lat="31.31004" lon="-7.37295">
        <ele>2088.748</ele>
        <time>2011-04-26T14:16:21Z</time>
      </trkpt>
      <trkpt lat="31.31361" lon="-7.37411">
        <ele>2062.223</ele>
        <time>2011-04-26T14:17:32Z</time>
      </trkpt>
      <trkpt lat="31.31614" lon="-7.37897">
        <ele>2044.476</ele>
        <time>2011-04-26T14:19:18Z</time>
      </trkpt>
      <trkpt lat="31.31852" lon="-7.37854">
        <ele>2008.621</ele>
        <time>2011-04-26T14:20:00Z</time>
      </trkpt>
      <trkpt lat="31.32031" lon="-7.37764">
        <ele>1981.427</ele>
        <time>2011-04-26T14:20:42Z</time>
      </trkpt>
      <trkpt lat="31.32082" lon="-7.37616">
        <ele>1933.768</ele>
        <time>2011-04-26T14:21:25Z</time>
      </trkpt>
      <trkpt lat="31.32309" lon="-7.37825">
        <ele>1915.624</ele>
        <time>2011-04-26T14:22:00Z</time>
      </trkpt>
      <trkpt lat="31.33009" lon="-7.38174">
        <ele>1833.889</ele>
        <time>2011-04-26T14:32:17Z</time>
      </trkpt>
      <trkpt lat="31.3303" lon="-7.38054">
        <ele>1793.775</ele>
        <time>2011-04-26T14:46:21Z</time>
      </trkpt>
      <trkpt lat="31.32862" lon="-7.37842">
        <ele>1752.184</ele>
        <time>2011-04-26T14:47:33Z</time>
      </trkpt>
      <trkpt lat="31.33242" lon="-7.37906">
        <ele>1722.521</ele>
        <time>2011-04-26T14:48:50Z</time>
      </trkpt>
      <trkpt lat="31.33567" lon="-7.38267">
        <ele>1705.509</ele>
        <time>2011-04-26T14:49:42Z</time>
      </trkpt>
      <trkpt lat="31.337" lon="-7.38835">
        <ele>1691.125</ele>
        <time>2011-04-26T14:50:31Z</time>
      </trkpt>
      <trkpt lat="31.34239" lon="-7.39312">
        <ele>1652.738</ele>
        <time>2011-04-26T14:51:23Z</time>
      </trkpt>
      <trkpt lat="31.34637" lon="-7.3905">
        <ele>1635.99</ele>
        <time>2011-04-26T14:52:10Z</time>
      </trkpt>
      <trkpt lat="31.35307" lon="-7.39211">
        <ele>1618.481</ele>
        <time>2011-04-26T14:53:20Z</time>
      </trkpt>
      <trkpt lat="31.35844" lon="-7.39147">
        <ele>1607.533</ele>
        <time>2011-04-26T14:54:03Z</time>
      </trkpt>
      <trkpt lat="31.36302" lon="-7.39172">
        <ele>1604.092</ele>
        <time>2011-04-26T14:55:00Z</time>
      </trkpt>
      <trkpt lat="31.36695" lon="-7.39226">
        <ele>1584.05</ele>
        <time>2011-04-26T14:55:44Z</time>
      </trkpt>
      <trkpt lat="31.3698" lon="-7.3877">
        <ele>1584.969</ele>
        <time>2011-04-26T14:56:22Z</time>
      </trkpt>
      <trkpt lat="31.36941" lon="-7.39343">
        <ele>1544.105</ele>
        <time>2011-04-26T14:57:15Z</time>
      </trkpt>
      <trkpt lat="31.37169" lon="-7.39845">
        <ele>1526.899</ele>
        <time>2011-04-26T14:58:03Z</time>
      </trkpt>
      <trkpt lat="31.37156" lon="-7.403">
        <ele>1529.509</ele>
        <time>2011-04-26T14:58:54Z</time>
      </trkpt>
      <trkpt lat="31.37113" lon="-7.40819">
        <ele>1502.146</ele>
        <time>2011-04-26T14:59:30Z</time>
      </trkpt>
      <trkpt lat="31.37452" lon="-7.41232">
        <ele>1490.566</ele>
        <time>2011-04-26T15:00:36Z</time>
      </trkpt>
      <trkpt lat="31.38003" lon="-7.4073">
        <ele>1476.688</ele>
        <time>2011-04-26T15:01:22Z</time>
      </trkpt>
      <trkpt lat="31.38463" lon="-7.40899">
        <ele>1461.365</ele>
        <time>2011-04-26T15:02:02Z</time>
      </trkpt>
      <trkpt lat="31.38903" lon="-7.40941">
        <ele>1442.79</ele>
        <time>2011-04-26T15:03:27Z</time>
      </trkpt>
      <trkpt lat="31.39134" lon="-7.40474">
        <ele>1440.659</ele>
        <time>2011-04-26T15:04:37Z</time>
      </trkpt>
      <trkpt lat="31.39347" lon="-7.40108">
        <ele>1419.071</ele>
        <time>2011-04-26T15:05:26Z</time>
      </trkpt>
      <trkpt lat="31.39699" lon="-7.39798">
        <ele>1427.181</ele>
        <time>2011-04-26T15:06:05Z</time>
      </trkpt>
      <trkpt lat="31.40037" lon="-7.39445">
        <ele>1411.061</ele>
        <time>2011-04-26T15:06:59Z</time>
      </trkpt>
      <trkpt lat="31.40532" lon="-7.39588">
        <ele>1400.347</ele>
        <time>2011-04-26T15:07:47Z</time>
      </trkpt>
      <trkpt lat="31.40953" lon="-7.39187">
        <ele>1410.09</ele>
        <time>2011-04-26T15:08:42Z</time>
      </trkpt>
      <trkpt lat="31.4158" lon="-7.39148">
        <ele>1374.822</ele>
        <time>2011-04-26T15:10:50Z</time>
      </trkpt>
      <trkpt lat="31.41366" lon="-7.396">
        <ele>1357.829</ele>
        <time>2011-04-26T15:11:54Z</time>
      </trkpt>
      <trkpt lat="31.41702" lon="-7.40337">
        <ele>1324.698</ele>
        <time>2011-04-26T15:12:54Z</time>
      </trkpt>
      <trkpt lat="31.42193" lon="-7.40594">
        <ele>1314.882</ele>
        <time>2011-04-26T15:13:52Z</time>
      </trkpt>
      <trkpt lat="31.42548" lon="-7.40969">
        <ele>1304.961</ele>
        <time>2011-04-26T15:14:44Z</time>
      </trkpt>
      <trkpt lat="31.42854" lon="-7.40871">
        <ele>1293.301</ele>
        <time>2011-04-26T15:15:42Z</time>
      </trkpt>
      <trkpt lat="31.43386" lon="-7.40854">
        <ele>1272.008</ele>
        <time>2011-04-26T15:16:50Z</time>
      </trkpt>
      <trkpt lat="31.43838" lon="-7.40665">
        <ele>1276.086</ele>
        <time>2011-04-26T15:18:06Z</time>
      </trkpt>
      <trkpt lat="31.44404" lon="-7.39872">
        <ele>1270.422</ele>
        <time>2011-04-26T15:19:30Z</time>
      </trkpt>
      <trkpt lat="31.44803" lon="-7.395">
        <ele>1289.067</ele>
        <time>2011-04-26T15:20:25Z</time>
      </trkpt>
      <trkpt lat="31.45157" lon="-7.39604">
        <ele>1306.172</ele>
        <time>2011-04-26T15:21:16Z</time>
      </trkpt>
      <trkpt lat="31.45516" lon="-7.40147">
        <ele>1350.21</ele>
        <time>2011-04-26T15:22:06Z</time>
      </trkpt>
      <trkpt lat="31.4568" lon="-7.40535">
        <ele>1381.937</ele>
        <time>2011-04-26T15:22:44Z</time>
      </trkpt>
      <trkpt lat="31.46092" lon="-7.40719">
        <ele>1414.474</ele>
        <time>2011-04-26T15:23:38Z</time>
      </trkpt>
      <trkpt lat="31.46732" lon="-7.40062">
        <ele>1459.739</ele>
        <time>2011-04-26T15:24:34Z</time>
      </trkpt>
      <trkpt lat="31.47255" lon="-7.41095">
        <ele>1522.261</ele>
        <time>2011-04-26T15:27:15Z</time>
      </trkpt>
      <trkpt lat="31.47553" lon="-7.4243">
        <ele>1500.3</ele>
        <time>2011-04-26T15:28:26Z</time>
      </trkpt>
      <trkpt lat="31.4734" lon="-7.43292">
        <ele>1441.037</ele>
        <time>2011-04-26T15:29:23Z</time>
      </trkpt>
      <trkpt lat="31.47926" lon="-7.43468">
        <ele>1437.422</ele>
        <time>2011-04-26T15:30:10Z</time>
      </trkpt>
      <trkpt lat="31.48309" lon="-7.4315">
        <ele>1430.153</ele>
        <time>2011-04-26T15:30:49Z</time>
      </trkpt>
      <trkpt lat="31.48955" lon="-7.43721">
        <ele>1457.986</ele>
        <time>2011-04-26T15:31:53Z</time>
      </trkpt>
      <trkpt lat="31.48526" lon="-7.44946">
        <ele>1391.226</ele>
        <time>2011-04-26T15:34:28Z</time>
      </trkpt>
      <trkpt lat="31.49036" lon="-7.4512">
        <ele>1388.598</ele>
        <time>2011-04-26T15:35:27Z</time>
      </trkpt>
      <trkpt lat="31.49453" lon="-7.45408">
        <ele>1306.644</ele>
        <time>2011-04-26T15:35:57Z</time>
      </trkpt>
      <trkpt lat="31.49635" lon="-7.46196">
        <ele>1261.083</ele>
        <time>2011-04-26T15:36:42Z</time>
      </trkpt>
      <trkpt lat="31.50131" lon="-7.46442">
        <ele>1238.925</ele>
        <time>2011-04-26T15:37:19Z</time>
      </trkpt>
      <trkpt lat="31.51063" lon="-7.46835">
        <ele>1168.904</ele>
        <time>2011-04-26T15:38:17Z</time>
      </trkpt>
      <trkpt lat="31.51123" lon="-7.47038">
        <ele>1129.087</ele>
        <time>2011-04-26T15:38:55Z</time>
      </trkpt>
      <trkpt lat="31.51665" lon="-7.47227">
        <ele>1104.03</ele>
        <time>2011-04-26T15:39:35Z</time>
      </trkpt>
      <trkpt lat="31.52364" lon="-7.47348">
        <ele>1068.387</ele>
        <time>2011-04-26T15:40:14Z</time>
      </trkpt>
      <trkpt lat="31.52824" lon="-7.48037">
        <ele>1034.955</ele>
        <time>2011-04-26T15:40:55Z</time>
      </trkpt>
      <trkpt lat="31.53037" lon="-7.48518">
        <ele>1007.277</ele>
        <time>2011-04-26T15:41:21Z</time>
      </trkpt>
      <trkpt lat="31.53381" lon="-7.49131">
        <ele>982.984</ele>
        <time>2011-04-26T15:42:10Z</time>
      </trkpt>
      <trkpt lat="31.53685" lon="-7.49771">
        <ele>960.828</ele>
        <time>2011-04-26T15:42:49Z</time>
      </trkpt>
      <trkpt lat="31.53592" lon="-7.50367">
        <ele>952.607</ele>
        <time>2011-04-26T15:43:24Z</time>
      </trkpt>
      <trkpt lat="31.5364" lon="-7.5099">
        <ele>938.903</ele>
        <time>2011-04-26T15:43:59Z</time>
      </trkpt>
      <trkpt lat="31.5406" lon="-7.51828">
        <ele>954.46</ele>
        <time>2011-04-26T15:44:51Z</time>
      </trkpt>
      <trkpt lat="31.54288" lon="-7.53199">
        <ele>986.72</ele>
        <time>2011-04-26T15:46:01Z</time>
      </trkpt>
      <trkpt lat="31.54445" lon="-7.55519">
        <ele>905.879</ele>
        <time>2011-04-26T15:47:31Z</time>
      </trkpt>
      <trkpt lat="31.54792" lon="-7.56369">
        <ele>870.631</ele>
        <time>2011-04-26T15:48:07Z</time>
      </trkpt>
      <trkpt lat="31.54556" lon="-7.57145">
        <ele>841.807</ele>
        <time>2011-04-26T15:48:46Z</time>
      </trkpt>
      <trkpt lat="31.54946" lon="-7.57728">
        <ele>842.208</ele>
        <time>2011-04-26T15:49:18Z</time>
      </trkpt>
      <trkpt lat="31.55212" lon="-7.58705">
        <ele>834.384</ele>
        <time>2011-04-26T15:49:59Z</time>
      </trkpt>
      <trkpt lat="31.55075" lon="-7.59422">
        <ele>815.346</ele>
        <time>2011-04-26T15:50:27Z</time>
      </trkpt>
      <trkpt lat="31.54813" lon="-7.61081">
        <ele>789.595</ele>
        <time>2011-04-26T15:51:53Z</time>
      </trkpt>
      <trkpt lat="31.54625" lon="-7.61687">
        <ele>780.585</ele>
        <time>2011-04-26T15:52:26Z</time>
      </trkpt>
      <trkpt lat="31.54312" lon="-7.6209">
        <ele>773.04</ele>
        <time>2011-04-26T15:52:58Z</time>
      </trkpt>
      <trkpt lat="31.54377" lon="-7.62955">
        <ele>772.175</ele>
        <time>2011-04-26T15:53:56Z</time>
      </trkpt>
      <trkpt lat="31.54584" lon="-7.63485">
        <ele>762.328</ele>
        <time>2011-04-26T15:54:31Z</time>
      </trkpt>
      <trkpt lat="31.54699" lon="-7.64621">
        <ele>733.776</ele>
        <time>2011-04-26T15:55:45Z</time>
      </trkpt>
      <trkpt lat="31.54276" lon="-7.64928">
        <ele>727.316</ele>
        <time>2011-04-26T15:56:29Z</time>
      </trkpt>
      <trkpt lat="31.54392" lon="-7.65469">
        <ele>725.53</ele>
        <time>2011-04-26T15:57:02Z</time>
      </trkpt>
      <trkpt lat="31.55208" lon="-7.66486">
        <ele>705.316</ele>
        <time>2011-04-26T15:58:27Z</time>
      </trkpt>
      <trkpt lat="31.55406" lon="-7.67725">
        <ele>693.697</ele>
        <time>2011-04-26T15:59:42Z</time>
      </trkpt>
      <trkpt lat="31.5389" lon="-7.68894">
        <ele>669.41</ele>
        <time>2011-04-26T16:14:25Z</time>
      </trkpt>
      <trkpt lat="31.49179" lon="-7.72658">
        <ele>648</ele>
        <time>2011-04-26T16:18:31Z</time>
      </trkpt>
      <trkpt lat="31.48578" lon="-7.73401">
        <ele>667.147</ele>
        <time>2011-04-26T16:19:11Z</time>
      </trkpt>
      <trkpt lat="31.4816" lon="-7.74667">
        <ele>669.136</ele>
        <time>2011-04-26T16:19:59Z</time>
      </trkpt>
      <trkpt lat="31.47627" lon="-7.76496">
        <ele>656.467</ele>
        <time>2011-04-26T16:21:28Z</time>
      </trkpt>
      <trkpt lat="31.46674" lon="-7.76621">
        <ele>679.273</ele>
        <time>2011-04-26T16:22:26Z</time>
      </trkpt>
      <trkpt lat="31.43287" lon="-7.7659">
        <ele>764.344</ele>
        <time>2011-04-26T16:25:07Z</time>
      </trkpt>
      <trkpt lat="31.3995" lon="-7.76698">
        <ele>863.251</ele>
        <time>2011-04-26T16:27:23Z</time>
      </trkpt>
      <trkpt lat="31.38782" lon="-7.76876">
        <ele>867.541</ele>
        <time>2011-04-26T16:28:16Z</time>
      </trkpt>
      <trkpt lat="31.38492" lon="-7.76964">
        <ele>869</ele>
        <time>2011-04-26T16:28:55Z</time>
      </trkpt>
      <trkpt lat="31.37768" lon="-7.77277">
        <ele>855.529</ele>
        <time>2011-04-26T16:29:38Z</time>
      </trkpt>
      <trkpt lat="31.37335" lon="-7.78465">
        <ele>841.565</ele>
        <time>2011-04-26T16:31:38Z</time>
      </trkpt>
      <trkpt lat="31.37362" lon="-7.79092">
        <ele>848.142</ele>
        <time>2011-04-26T16:33:03Z</time>
      </trkpt>
      <trkpt lat="31.37263" lon="-7.79952">
        <ele>846.664</ele>
        <time>2011-04-26T16:34:20Z</time>
      </trkpt>
      <trkpt lat="31.36799" lon="-7.79513">
        <ele>882.972</ele>
        <time>2011-04-26T16:47:01Z</time>
      </trkpt>
      <trkpt lat="31.3658" lon="-7.78652">
        <ele>892.016</ele>
        <time>2011-04-26T16:47:56Z</time>
      </trkpt>
      <trkpt lat="31.36472" lon="-7.77771">
        <ele>889.339</ele>
        <time>2011-04-26T16:48:56Z</time>
      </trkpt>
      <trkpt lat="31.35941" lon="-7.77959">
        <ele>897.386</ele>
        <time>2011-04-26T16:49:36Z</time>
      </trkpt>
      <trkpt lat="31.35815" lon="-7.77506">
        <ele>908.589</ele>
        <time>2011-04-26T16:50:46Z</time>
      </trkpt>
      <trkpt lat="31.355" lon="-7.7678">
        <ele>908.988</ele>
        <time>2011-04-26T16:51:47Z</time>
      </trkpt>
      <trkpt lat="31.35099" lon="-7.76457">
        <ele>908.921</ele>
        <time>2011-04-26T16:52:28Z</time>
      </trkpt>
      <trkpt lat="31.35124" lon="-7.76051">
        <ele>934.961</ele>
        <time>2011-04-26T16:53:14Z</time>
      </trkpt>
      <trkpt lat="31.34583" lon="-7.75916">
        <ele>938.54</ele>
        <time>2011-04-26T16:54:12Z</time>
      </trkpt>
      <trkpt lat="31.34169" lon="-7.75466">
        <ele>933.658</ele>
        <time>2011-04-26T16:55:06Z</time>
      </trkpt>
      <trkpt lat="31.33532" lon="-7.75699">
        <ele>954.26</ele>
        <time>2011-04-26T16:56:04Z</time>
      </trkpt>
      <trkpt lat="31.32385" lon="-7.75887">
        <ele>997.155</ele>
        <time>2011-04-26T16:57:50Z</time>
      </trkpt>
      <trkpt lat="31.32015" lon="-7.75482">
        <ele>1008.517</ele>
        <time>2011-04-26T16:58:41Z</time>
      </trkpt>
      <trkpt lat="31.31593" lon="-7.75255">
        <ele>1009.097</ele>
        <time>2011-04-26T16:59:25Z</time>
      </trkpt>
      <trkpt lat="31.31278" lon="-7.74588">
        <ele>1020.647</ele>
        <time>2011-04-26T17:00:20Z</time>
      </trkpt>
      <trkpt lat="31.30967" lon="-7.73996">
        <ele>1027.376</ele>
        <time>2011-04-26T17:01:34Z</time>
      </trkpt>
      <trkpt lat="31.30522" lon="-7.72989">
        <ele>1055.927</ele>
        <time>2011-04-26T17:03:18Z</time>
      </trkpt>
      <trkpt lat="31.30383" lon="-7.72314">
        <ele>1105.91</ele>
        <time>2011-04-26T17:04:16Z</time>
      </trkpt>
      <trkpt lat="31.29791" lon="-7.71828">
        <ele>1126.714</ele>
        <time>2011-04-26T17:05:32Z</time>
      </trkpt>
      <trkpt lat="31.29379" lon="-7.71467">
        <ele>1126.818</ele>
        <time>2011-04-26T17:06:28Z</time>
      </trkpt>
      <trkpt lat="31.28904" lon="-7.71155">
        <ele>1130.51</ele>
        <time>2011-04-26T17:07:38Z</time>
      </trkpt>
      <trkpt lat="31.28545" lon="-7.70652">
        <ele>1151.954</ele>
        <time>2011-04-26T17:08:41Z</time>
      </trkpt>
      <trkpt lat="31.28543" lon="-7.7065">
        <ele>1155.196</ele>
        <time>2011-04-26T17:22:21Z</time>
      </trkpt>
      <trkpt lat="31.28922" lon="-7.71175">
        <ele>1136.992</ele>
        <time>2011-04-26T17:23:26Z</time>
      </trkpt>
      <trkpt lat="31.29583" lon="-7.71764">
        <ele>1128.291</ele>
        <time>2011-04-26T17:25:40Z</time>
      </trkpt>
      <trkpt lat="31.30089" lon="-7.7221">
        <ele>1113.71</ele>
        <time>2011-04-26T17:27:01Z</time>
      </trkpt>
      <trkpt lat="31.30096" lon="-7.72367">
        <ele>1111.101</ele>
        <time>2011-04-27T07:34:08Z</time>
      </trkpt>
      <trkpt lat="31.30414" lon="-7.72371">
        <ele>1106.469</ele>
        <time>2011-04-27T07:35:03Z</time>
      </trkpt>
      <trkpt lat="31.30522" lon="-7.72992">
        <ele>1061.072</ele>
        <time>2011-04-27T07:36:00Z</time>
      </trkpt>
      <trkpt lat="31.30662" lon="-7.73745">
        <ele>1042.909</ele>
        <time>2011-04-27T07:37:00Z</time>
      </trkpt>
      <trkpt lat="31.3095" lon="-7.74337">
        <ele>1027.878</ele>
        <time>2011-04-27T07:38:00Z</time>
      </trkpt>
      <trkpt lat="31.31362" lon="-7.74675">
        <ele>1039.205</ele>
        <time>2011-04-27T07:38:46Z</time>
      </trkpt>
      <trkpt lat="31.31656" lon="-7.75329">
        <ele>1031.982</ele>
        <time>2011-04-27T07:39:41Z</time>
      </trkpt>
      <trkpt lat="31.31299" lon="-7.74751">
        <ele>1092.307</ele>
        <time>2011-04-27T07:40:34Z</time>
      </trkpt>
      <trkpt lat="31.30929" lon="-7.75156">
        <ele>1097.723</ele>
        <time>2011-04-27T07:41:19Z</time>
      </trkpt>
      <trkpt lat="31.30747" lon="-7.75673">
        <ele>1102.86</ele>
        <time>2011-04-27T07:42:20Z</time>
      </trkpt>
      <trkpt lat="31.30275" lon="-7.76187">
        <ele>1135.776</ele>
        <time>2011-04-27T07:43:14Z</time>
      </trkpt>
      <trkpt lat="31.29899" lon="-7.76805">
        <ele>1167.852</ele>
        <time>2011-04-27T07:44:05Z</time>
      </trkpt>
      <trkpt lat="31.29247" lon="-7.77245">
        <ele>1192.039</ele>
        <time>2011-04-27T07:45:10Z</time>
      </trkpt>
      <trkpt lat="31.28754" lon="-7.7779">
        <ele>1254.763</ele>
        <time>2011-04-27T07:46:26Z</time>
      </trkpt>
      <trkpt lat="31.28542" lon="-7.7839">
        <ele>1294.137</ele>
        <time>2011-04-27T07:47:26Z</time>
      </trkpt>
      <trkpt lat="31.28501" lon="-7.79393">
        <ele>1304.957</ele>
        <time>2011-04-27T07:48:54Z</time>
      </trkpt>
      <trkpt lat="31.28064" lon="-7.80591">
        <ele>1375.432</ele>
        <time>2011-04-27T07:51:28Z</time>
      </trkpt>
      <trkpt lat="31.27735" lon="-7.80961">
        <ele>1411.302</ele>
        <time>2011-04-27T07:52:15Z</time>
      </trkpt>
      <trkpt lat="31.27321" lon="-7.81257">
        <ele>1435.726</ele>
        <time>2011-04-27T07:53:28Z</time>
      </trkpt>
      <trkpt lat="31.26428" lon="-7.82022">
        <ele>1528.051</ele>
        <time>2011-04-27T07:55:08Z</time>
      </trkpt>
      <trkpt lat="31.26547" lon="-7.82552">
        <ele>1591.593</ele>
        <time>2011-04-27T07:56:16Z</time>
      </trkpt>
      <trkpt lat="31.26489" lon="-7.8297">
        <ele>1642.032</ele>
        <time>2011-04-27T07:57:16Z</time>
      </trkpt>
      <trkpt lat="31.26762" lon="-7.82935">
        <ele>1700.147</ele>
        <time>2011-04-27T07:58:46Z</time>
      </trkpt>
      <trkpt lat="31.26527" lon="-7.83447">
        <ele>1732.693</ele>
        <time>2011-04-27T08:01:11Z</time>
      </trkpt>
      <trkpt lat="31.2629" lon="-7.83942">
        <ele>1743.34</ele>
        <time>2011-04-27T08:01:50Z</time>
      </trkpt>
      <trkpt lat="31.26078" lon="-7.83703">
        <ele>1762.499</ele>
        <time>2011-04-27T08:03:13Z</time>
      </trkpt>
      <trkpt lat="31.25872" lon="-7.84287">
        <ele>1791.987</ele>
        <time>2011-04-27T08:04:23Z</time>
      </trkpt>
      <trkpt lat="31.25527" lon="-7.84611">
        <ele>1822.008</ele>
        <time>2011-04-27T08:05:36Z</time>
      </trkpt>
      <trkpt lat="31.25221" lon="-7.85134">
        <ele>1850.949</ele>
        <time>2011-04-27T08:06:48Z</time>
      </trkpt>
      <trkpt lat="31.25024" lon="-7.85495">
        <ele>1851.969</ele>
        <time>2011-04-27T08:08:09Z</time>
      </trkpt>
      <trkpt lat="31.24885" lon="-7.8637">
        <ele>1805.785</ele>
        <time>2011-04-27T08:12:51Z</time>
      </trkpt>
      <trkpt lat="31.24297" lon="-7.86522">
        <ele>1783.451</ele>
        <time>2011-04-27T08:14:54Z</time>
      </trkpt>
      <trkpt lat="31.24316" lon="-7.8673">
        <ele>1786.907</ele>
        <time>2011-04-27T08:16:47Z</time>
      </trkpt>
      <trkpt lat="31.24166" lon="-7.87245">
        <ele>1782.089</ele>
        <time>2011-04-27T08:17:44Z</time>
      </trkpt>
      <trkpt lat="31.24028" lon="-7.87772">
        <ele>1767.153</ele>
        <time>2011-04-27T08:19:02Z</time>
      </trkpt>
      <trkpt lat="31.23434" lon="-7.87992">
        <ele>1745.275</ele>
        <time>2011-04-27T08:22:54Z</time>
      </trkpt>
      <trkpt lat="31.23484" lon="-7.88625">
        <ele>1794.788</ele>
        <time>2011-04-27T08:25:50Z</time>
      </trkpt>
      <trkpt lat="31.237" lon="-7.89047">
        <ele>1810.911</ele>
        <time>2011-04-27T08:27:08Z</time>
      </trkpt>
      <trkpt lat="31.23676" lon="-7.89847">
        <ele>1781.808</ele>
        <time>2011-04-27T08:28:56Z</time>
      </trkpt>
      <trkpt lat="31.23748" lon="-7.90059">
        <ele>1774.015</ele>
        <time>2011-04-27T08:30:04Z</time>
      </trkpt>
      <trkpt lat="31.24216" lon="-7.901">
        <ele>1802.376</ele>
        <time>2011-04-27T08:30:52Z</time>
      </trkpt>
      <trkpt lat="31.24303" lon="-7.90743">
        <ele>1817.373</ele>
        <time>2011-04-27T08:31:59Z</time>
      </trkpt>
      <trkpt lat="31.24327" lon="-7.91427">
        <ele>1822.508</ele>
        <time>2011-04-27T08:33:09Z</time>
      </trkpt>
      <trkpt lat="31.24162" lon="-7.91913">
        <ele>1821.029</ele>
        <time>2011-04-27T08:34:38Z</time>
      </trkpt>
      <trkpt lat="31.23991" lon="-7.92711">
        <ele>1808.796</ele>
        <time>2011-04-27T08:35:58Z</time>
      </trkpt>
      <trkpt lat="31.23419" lon="-7.93351">
        <ele>1752.752</ele>
        <time>2011-04-27T08:37:23Z</time>
      </trkpt>
      <trkpt lat="31.23049" lon="-7.93524">
        <ele>1703.654</ele>
        <time>2011-04-27T08:38:35Z</time>
      </trkpt>
      <trkpt lat="31.22689" lon="-7.93984">
        <ele>1646.921</ele>
        <time>2011-04-27T08:39:59Z</time>
      </trkpt>
      <trkpt lat="31.2235" lon="-7.94363">
        <ele>1595.756</ele>
        <time>2011-04-27T08:41:13Z</time>
      </trkpt>
      <trkpt lat="31.2208" lon="-7.94938">
        <ele>1569.449</ele>
        <time>2011-04-27T08:42:33Z</time>
      </trkpt>
      <trkpt lat="31.22007" lon="-7.94977">
        <ele>1513.878</ele>
        <time>2011-04-27T08:53:13Z</time>
      </trkpt>
      <trkpt lat="31.22261" lon="-7.95981">
        <ele>1436.658</ele>
        <time>2011-04-27T08:54:51Z</time>
      </trkpt>
      <trkpt lat="31.22601" lon="-7.96241">
        <ele>1394.25</ele>
        <time>2011-04-27T08:55:41Z</time>
      </trkpt>
      <trkpt lat="31.22677" lon="-7.96499">
        <ele>1354.008</ele>
        <time>2011-04-27T08:56:43Z</time>
      </trkpt>
      <trkpt lat="31.23401" lon="-7.97129">
        <ele>1279.136</ele>
        <time>2011-04-27T08:58:50Z</time>
      </trkpt>
      <trkpt lat="31.23733" lon="-7.97459">
        <ele>1248.592</ele>
        <time>2011-04-27T08:59:44Z</time>
      </trkpt>
      <trkpt lat="31.2415" lon="-7.97462">
        <ele>1213.19</ele>
        <time>2011-04-27T09:00:56Z</time>
      </trkpt>
      <trkpt lat="31.24482" lon="-7.97686">
        <ele>1192.27</ele>
        <time>2011-04-27T09:02:00Z</time>
      </trkpt>
      <trkpt lat="31.24871" lon="-7.9807">
        <ele>1190.876</ele>
        <time>2011-04-27T09:03:18Z</time>
      </trkpt>
      <trkpt lat="31.25247" lon="-7.97675">
        <ele>1177.62</ele>
        <time>2011-04-27T09:04:13Z</time>
      </trkpt>
      <trkpt lat="31.26243" lon="-7.97153">
        <ele>1155.217</ele>
        <time>2011-04-27T09:05:27Z</time>
      </trkpt>
      <trkpt lat="31.26635" lon="-7.96705">
        <ele>1138.165</ele>
        <time>2011-04-27T09:05:59Z</time>
      </trkpt>
      <trkpt lat="31.27114" lon="-7.96538">
        <ele>1130.419</ele>
        <time>2011-04-27T09:06:25Z</time>
      </trkpt>
      <trkpt lat="31.27731" lon="-7.96258">
        <ele>1114.752</ele>
        <time>2011-04-27T09:06:59Z</time>
      </trkpt>
      <trkpt lat="31.28222" lon="-7.95968">
        <ele>1094.063</ele>
        <time>2011-04-27T09:07:35Z</time>
      </trkpt>
      <trkpt lat="31.29165" lon="-7.96309">
        <ele>1073.157</ele>
        <time>2011-04-27T09:08:35Z</time>
      </trkpt>
      <trkpt lat="31.2933" lon="-7.9672">
        <ele>1085.981</ele>
        <time>2011-04-27T09:09:17Z</time>
      </trkpt>
      <trkpt lat="31.29735" lon="-7.96458">
        <ele>1088.921</ele>
        <time>2011-04-27T09:10:18Z</time>
      </trkpt>
      <trkpt lat="31.30274" lon="-7.96367">
        <ele>1087.533</ele>
        <time>2011-04-27T09:11:37Z</time>
      </trkpt>
      <trkpt lat="31.30888" lon="-7.96345">
        <ele>1104.474</ele>
        <time>2011-04-27T09:12:39Z</time>
      </trkpt>
      <trkpt lat="31.3107" lon="-7.95921">
        <ele>1091.259</ele>
        <time>2011-04-27T09:13:54Z</time>
      </trkpt>
      <trkpt lat="31.31347" lon="-7.96144">
        <ele>1059.146</ele>
        <time>2011-04-27T09:14:54Z</time>
      </trkpt>
      <trkpt lat="31.3134" lon="-7.9591">
        <ele>1011.751</ele>
        <time>2011-04-27T09:16:32Z</time>
      </trkpt>
      <trkpt lat="31.31846" lon="-7.95781">
        <ele>1000.149</ele>
        <time>2011-04-27T09:17:22Z</time>
      </trkpt>
      <trkpt lat="31.32132" lon="-7.95429">
        <ele>988.401</ele>
        <time>2011-04-27T09:18:03Z</time>
      </trkpt>
      <trkpt lat="31.3267" lon="-7.95073">
        <ele>992.937</ele>
        <time>2011-04-27T09:18:53Z</time>
      </trkpt>
      <trkpt lat="31.3335" lon="-7.9492">
        <ele>975.895</ele>
        <time>2011-04-27T09:19:43Z</time>
      </trkpt>
      <trkpt lat="31.33967" lon="-7.94962">
        <ele>969.229</ele>
        <time>2011-04-27T09:20:52Z</time>
      </trkpt>
      <trkpt lat="31.34183" lon="-7.94971">
        <ele>949.027</ele>
        <time>2011-04-27T09:22:16Z</time>
      </trkpt>
      <trkpt lat="31.34611" lon="-7.95122">
        <ele>941.301</ele>
        <time>2011-04-27T09:23:17Z</time>
      </trkpt>
      <trkpt lat="31.35342" lon="-7.95218">
        <ele>933.143</ele>
        <time>2011-04-27T09:24:42Z</time>
      </trkpt>
      <trkpt lat="31.36155" lon="-7.94747">
        <ele>927.181</ele>
        <time>2011-04-27T09:25:41Z</time>
      </trkpt>
      <trkpt lat="31.3684" lon="-7.94656">
        <ele>907.135</ele>
        <time>2011-04-27T09:26:49Z</time>
      </trkpt>
      <trkpt lat="31.37413" lon="-7.94946">
        <ele>884.905</ele>
        <time>2011-04-27T09:27:29Z</time>
      </trkpt>
      <trkpt lat="31.40769" lon="-7.95419">
        <ele>812.815</ele>
        <time>2011-04-27T09:30:26Z</time>
      </trkpt>
      <trkpt lat="31.42519" lon="-7.95984">
        <ele>779.481</ele>
        <time>2011-04-27T09:31:56Z</time>
      </trkpt>
      <trkpt lat="31.42952" lon="-7.96146">
        <ele>768.823</ele>
        <time>2011-04-27T09:32:18Z</time>
      </trkpt>
      <trkpt lat="31.44198" lon="-7.96819">
        <ele>741.899</ele>
        <time>2011-04-27T09:33:16Z</time>
      </trkpt>
      <trkpt lat="31.45491" lon="-7.9795">
        <ele>719.513</ele>
        <time>2011-04-27T09:34:25Z</time>
      </trkpt>
      <trkpt lat="31.45899" lon="-7.9825">
        <ele>706.124</ele>
        <time>2011-04-27T09:34:49Z</time>
      </trkpt>
      <trkpt lat="31.48734" lon="-7.98369">
        <ele>670.555</ele>
        <time>2011-04-27T09:36:55Z</time>
      </trkpt>
      <trkpt lat="31.49952" lon="-7.98403">
        <ele>642.306</ele>
        <time>2011-04-27T09:37:43Z</time>
      </trkpt>
      <trkpt lat="31.52099" lon="-7.99011">
        <ele>610.039</ele>
        <time>2011-04-27T09:39:29Z</time>
      </trkpt>
      <trkpt lat="31.53004" lon="-7.99401">
        <ele>582.911</ele>
        <time>2011-04-27T09:40:17Z</time>
      </trkpt>
      <trkpt lat="31.53882" lon="-7.99931">
        <ele>580.875</ele>
        <time>2011-04-27T09:41:36Z</time>
      </trkpt>
      <trkpt lat="31.56395" lon="-8.01457">
        <ele>540.434</ele>
        <time>2011-04-27T09:43:44Z</time>
      </trkpt>
      <trkpt lat="31.56917" lon="-8.01672">
        <ele>533.252</ele>
        <time>2011-04-27T09:44:09Z</time>
      </trkpt>
      <trkpt lat="31.57548" lon="-8.01712">
        <ele>520.113</ele>
        <time>2011-04-27T09:44:45Z</time>
      </trkpt>
      <trkpt lat="31.60517" lon="-7.99855">
        <ele>498.213</ele>
        <time>2011-04-27T09:48:09Z</time>
      </trkpt>
      <trkpt lat="31.6115" lon="-7.99453">
        <ele>491.219</ele>
        <time>2011-04-27T09:48:51Z</time>
      </trkpt>
      <trkpt lat="31.61552" lon="-7.99592">
        <ele>484.17</ele>
        <time>2011-04-27T09:49:39Z</time>
      </trkpt>
      <trkpt lat="31.62888" lon="-8.00317">
        <ele>470.882</ele>
        <time>2011-04-27T09:52:14Z</time>
      </trkpt>
      <trkpt lat="31.63111" lon="-8.00109">
        <ele>469.695</ele>
        <time>2011-04-27T09:54:15Z</time>
      </trkpt>
      <trkpt lat="31.64752" lon="-8.0123">
        <ele>460.429</ele>
        <time>2011-04-27T09:59:48Z</time>
      </trkpt>
      <trkpt lat="31.65415" lon="-8.01875">
        <ele>444.893</ele>
        <time>2011-04-27T10:01:57Z</time>
      </trkpt>
      <trkpt lat="31.65846" lon="-8.01979">
        <ele>444.975</ele>
        <time>2011-04-27T10:03:04Z</time>
      </trkpt>
      <trkpt lat="31.66593" lon="-8.03455">
        <ele>434.181</ele>
        <time>2011-04-27T10:05:01Z</time>
      </trkpt>
      <trkpt lat="31.66933" lon="-8.03907">
        <ele>420.945</ele>
        <time>2011-04-27T10:06:39Z</time>
      </trkpt>
      <trkpt lat="31.67465" lon="-8.0439">
        <ele>422.705</ele>
        <time>2011-04-27T10:29:08Z</time>
      </trkpt>
      <trkpt lat="31.67915" lon="-8.04805">
        <ele>414.273</ele>
        <time>2011-04-27T10:29:43Z</time>
      </trkpt>
      <trkpt lat="31.70815" lon="-8.06518">
        <ele>387.976</ele>
        <time>2011-04-27T10:39:34Z</time>
      </trkpt>
      <trkpt lat="31.72181" lon="-8.08621">
        <ele>378.439</ele>
        <time>2011-04-27T10:41:40Z</time>
      </trkpt>
      <trkpt lat="31.73517" lon="-8.09857">
        <ele>390.267</ele>
        <time>2011-04-27T10:43:04Z</time>
      </trkpt>
      <trkpt lat="31.76271" lon="-8.11694">
        <ele>386.579</ele>
        <time>2011-04-27T10:46:37Z</time>
      </trkpt>
      <trkpt lat="31.76896" lon="-8.12403">
        <ele>391.808</ele>
        <time>2011-04-27T10:47:26Z</time>
      </trkpt>
      <trkpt lat="31.77343" lon="-8.13058">
        <ele>383.297</ele>
        <time>2011-04-27T10:48:08Z</time>
      </trkpt>
      <trkpt lat="31.77946" lon="-8.12746">
        <ele>402.363</ele>
        <time>2011-04-27T10:49:31Z</time>
      </trkpt>
      <trkpt lat="31.78375" lon="-8.13116">
        <ele>403.127</ele>
        <time>2011-04-27T10:49:59Z</time>
      </trkpt>
      <trkpt lat="31.79167" lon="-8.12277">
        <ele>415.057</ele>
        <time>2011-04-27T10:50:47Z</time>
      </trkpt>
      <trkpt lat="31.79461" lon="-8.116">
        <ele>424.303</ele>
        <time>2011-04-27T10:51:11Z</time>
      </trkpt>
      <trkpt lat="31.79893" lon="-8.10415">
        <ele>430.729</ele>
        <time>2011-04-27T10:51:52Z</time>
      </trkpt>
      <trkpt lat="31.80263" lon="-8.09658">
        <ele>440.673</ele>
        <time>2011-04-27T10:52:20Z</time>
      </trkpt>
      <trkpt lat="31.80649" lon="-8.08874">
        <ele>446.213</ele>
        <time>2011-04-27T10:52:49Z</time>
      </trkpt>
      <trkpt lat="31.81114" lon="-8.07246">
        <ele>454.565</ele>
        <time>2011-04-27T10:53:44Z</time>
      </trkpt>
      <trkpt lat="31.8141" lon="-8.06833">
        <ele>460.091</ele>
        <time>2011-04-27T10:54:01Z</time>
      </trkpt>
      <trkpt lat="31.82129" lon="-8.06122">
        <ele>469.835</ele>
        <time>2011-04-27T10:54:36Z</time>
      </trkpt>
      <trkpt lat="31.82493" lon="-8.05349">
        <ele>477.88</ele>
        <time>2011-04-27T10:55:04Z</time>
      </trkpt>
      <trkpt lat="31.82699" lon="-8.0417">
        <ele>489.809</ele>
        <time>2011-04-27T10:55:42Z</time>
      </trkpt>
      <trkpt lat="31.82974" lon="-8.03635">
        <ele>497.875</ele>
        <time>2011-04-27T10:56:02Z</time>
      </trkpt>
      <trkpt lat="31.83342" lon="-8.03214">
        <ele>507.564</ele>
        <time>2011-04-27T10:56:21Z</time>
      </trkpt>
      <trkpt lat="31.83845" lon="-8.02888">
        <ele>512.024</ele>
        <time>2011-04-27T10:56:42Z</time>
      </trkpt>
      <trkpt lat="31.8514" lon="-8.02507">
        <ele>550.442</ele>
        <time>2011-04-27T10:57:32Z</time>
      </trkpt>
      <trkpt lat="31.85826" lon="-8.02631">
        <ele>572.196</ele>
        <time>2011-04-27T10:57:58Z</time>
      </trkpt>
      <trkpt lat="31.86273" lon="-8.02735">
        <ele>580.472</ele>
        <time>2011-04-27T10:58:14Z</time>
      </trkpt>
      <trkpt lat="31.88151" lon="-8.02097">
        <ele>571.695</ele>
        <time>2011-04-27T10:59:28Z</time>
      </trkpt>
      <trkpt lat="31.90327" lon="-8.02525">
        <ele>527.291</ele>
        <time>2011-04-27T11:00:50Z</time>
      </trkpt>
      <trkpt lat="31.91817" lon="-8.02458">
        <ele>511.3</ele>
        <time>2011-04-27T11:01:44Z</time>
      </trkpt>
      <trkpt lat="31.9393" lon="-8.01671">
        <ele>490.343</ele>
        <time>2011-04-27T11:03:04Z</time>
      </trkpt>
      <trkpt lat="31.967" lon="-8.01564">
        <ele>475.754</ele>
        <time>2011-04-27T11:04:45Z</time>
      </trkpt>
      <trkpt lat="31.98759" lon="-8.00935">
        <ele>466.125</ele>
        <time>2011-04-27T11:06:03Z</time>
      </trkpt>
      <trkpt lat="32.01077" lon="-8.00711">
        <ele>462.183</ele>
        <time>2011-04-27T11:07:28Z</time>
      </trkpt>
      <trkpt lat="32.03847" lon="-7.9989">
        <ele>454.634</ele>
        <time>2011-04-27T11:09:10Z</time>
      </trkpt>
      <trkpt lat="32.06079" lon="-7.99459">
        <ele>456.275</ele>
        <time>2011-04-27T11:10:33Z</time>
      </trkpt>
      <trkpt lat="32.06928" lon="-7.99501">
        <ele>455.14</ele>
        <time>2011-04-27T11:11:03Z</time>
      </trkpt>
      <trkpt lat="32.07945" lon="-7.99736">
        <ele>456.231</ele>
        <time>2011-04-27T11:11:40Z</time>
      </trkpt>
      <trkpt lat="32.09158" lon="-7.99991">
        <ele>450.153</ele>
        <time>2011-04-27T11:12:24Z</time>
      </trkpt>
      <trkpt lat="32.10816" lon="-7.99932">
        <ele>455.843</ele>
        <time>2011-04-27T11:13:22Z</time>
      </trkpt>
      <trkpt lat="32.11729" lon="-8.00044">
        <ele>463.577</ele>
        <time>2011-04-27T11:13:55Z</time>
      </trkpt>
      <trkpt lat="32.13203" lon="-8.00298">
        <ele>467.396</ele>
        <time>2011-04-27T11:14:48Z</time>
      </trkpt>
      <trkpt lat="32.14221" lon="-8.00227">
        <ele>458.7</ele>
        <time>2011-04-27T11:15:25Z</time>
      </trkpt>
      <trkpt lat="32.15388" lon="-7.9984">
        <ele>474.248</ele>
        <time>2011-04-27T11:16:08Z</time>
      </trkpt>
      <trkpt lat="32.16604" lon="-7.99358">
        <ele>468.385</ele>
        <time>2011-04-27T11:16:52Z</time>
      </trkpt>
      <trkpt lat="32.17443" lon="-7.99151">
        <ele>463.436</ele>
        <time>2011-04-27T11:17:21Z</time>
      </trkpt>
      <trkpt lat="32.19748" lon="-7.99087">
        <ele>465.453</ele>
        <time>2011-04-27T11:18:43Z</time>
      </trkpt>
      <trkpt lat="32.20551" lon="-7.98881">
        <ele>468.104</ele>
        <time>2011-04-27T11:19:12Z</time>
      </trkpt>
      <trkpt lat="32.21043" lon="-7.98651">
        <ele>471.84</ele>
        <time>2011-04-27T11:19:31Z</time>
      </trkpt>
      <trkpt lat="32.21997" lon="-7.98181">
        <ele>473.472</ele>
        <time>2011-04-27T11:20:07Z</time>
      </trkpt>
      <trkpt lat="32.2329" lon="-7.98098">
        <ele>475.544</ele>
        <time>2011-04-27T11:20:53Z</time>
      </trkpt>
      <trkpt lat="32.23946" lon="-7.98102">
        <ele>475.547</ele>
        <time>2011-04-27T11:21:17Z</time>
      </trkpt>
      <trkpt lat="32.2445" lon="-7.98">
        <ele>475.369</ele>
        <time>2011-04-27T11:21:35Z</time>
      </trkpt>
      <trkpt lat="32.25986" lon="-7.97205">
        <ele>482.274</ele>
        <time>2011-04-27T11:22:35Z</time>
      </trkpt>
      <trkpt lat="32.27126" lon="-7.96945">
        <ele>481.611</ele>
        <time>2011-04-27T11:23:23Z</time>
      </trkpt>
      <trkpt lat="32.27626" lon="-7.96836">
        <ele>504.782</ele>
        <time>2011-04-27T11:24:21Z</time>
      </trkpt>
      <trkpt lat="32.30017" lon="-7.95956">
        <ele>510.428</ele>
        <time>2011-04-27T11:25:50Z</time>
      </trkpt>
      <trkpt lat="32.3258" lon="-7.95802">
        <ele>516.959</ele>
        <time>2011-04-27T11:27:20Z</time>
      </trkpt>
      <trkpt lat="32.33972" lon="-7.95356">
        <ele>515.36</ele>
        <time>2011-04-27T11:28:09Z</time>
      </trkpt>
      <trkpt lat="32.34876" lon="-7.94973">
        <ele>500.604</ele>
        <time>2011-04-27T11:28:43Z</time>
      </trkpt>
      <trkpt lat="32.3644" lon="-7.93963">
        <ele>509.315</ele>
        <time>2011-04-27T11:29:46Z</time>
      </trkpt>
      <trkpt lat="32.37427" lon="-7.93486">
        <ele>503.364</ele>
        <time>2011-04-27T11:30:23Z</time>
      </trkpt>
      <trkpt lat="32.38541" lon="-7.93432">
        <ele>505.43</ele>
        <time>2011-04-27T11:31:02Z</time>
      </trkpt>
      <trkpt lat="32.40209" lon="-7.93829">
        <ele>524.098</ele>
        <time>2011-04-27T11:32:01Z</time>
      </trkpt>
      <trkpt lat="32.40997" lon="-7.93887">
        <ele>513.317</ele>
        <time>2011-04-27T11:32:28Z</time>
      </trkpt>
      <trkpt lat="32.42611" lon="-7.93159">
        <ele>510.264</ele>
        <time>2011-04-27T11:33:28Z</time>
      </trkpt>
      <trkpt lat="32.44444" lon="-7.93154">
        <ele>528.264</ele>
        <time>2011-04-27T11:34:32Z</time>
      </trkpt>
      <trkpt lat="32.45664" lon="-7.93098">
        <ele>520.34</ele>
        <time>2011-04-27T11:35:14Z</time>
      </trkpt>
      <trkpt lat="32.46449" lon="-7.92875">
        <ele>513.648</ele>
        <time>2011-04-27T11:35:42Z</time>
      </trkpt>
      <trkpt lat="32.47605" lon="-7.92507">
        <ele>497.522</ele>
        <time>2011-04-27T11:36:24Z</time>
      </trkpt>
      <trkpt lat="32.48194" lon="-7.92443">
        <ele>478.895</ele>
        <time>2011-04-27T11:36:45Z</time>
      </trkpt>
      <trkpt lat="32.49619" lon="-7.9191">
        <ele>479.864</ele>
        <time>2011-04-27T11:37:37Z</time>
      </trkpt>
      <trkpt lat="32.51233" lon="-7.91897">
        <ele>484.806</ele>
        <time>2011-04-27T11:38:34Z</time>
      </trkpt>
      <trkpt lat="32.52713" lon="-7.91477">
        <ele>437.172</ele>
        <time>2011-04-27T11:39:27Z</time>
      </trkpt>
      <trkpt lat="32.53397" lon="-7.91022">
        <ele>402.511</ele>
        <time>2011-04-27T11:39:55Z</time>
      </trkpt>
      <trkpt lat="32.54372" lon="-7.90163">
        <ele>361.726</ele>
        <time>2011-04-27T11:40:38Z</time>
      </trkpt>
      <trkpt lat="32.5566" lon="-7.88153">
        <ele>332.242</ele>
        <time>2011-04-27T11:41:52Z</time>
      </trkpt>
      <trkpt lat="32.57056" lon="-7.86311">
        <ele>313.3</ele>
        <time>2011-04-27T11:43:05Z</time>
      </trkpt>
      <trkpt lat="32.58304" lon="-7.83988">
        <ele>302.756</ele>
        <time>2011-04-27T11:44:24Z</time>
      </trkpt>
      <trkpt lat="32.58975" lon="-7.83366">
        <ele>295.195</ele>
        <time>2011-04-27T11:44:54Z</time>
      </trkpt>
      <trkpt lat="32.59882" lon="-7.82849">
        <ele>289.077</ele>
        <time>2011-04-27T11:45:29Z</time>
      </trkpt>
      <trkpt lat="32.60291" lon="-7.82589">
        <ele>281.53</ele>
        <time>2011-04-27T11:45:45Z</time>
      </trkpt>
      <trkpt lat="32.60986" lon="-7.81824">
        <ele>276.371</ele>
        <time>2011-04-27T11:46:17Z</time>
      </trkpt>
      <trkpt lat="32.61519" lon="-7.80811">
        <ele>281.04</ele>
        <time>2011-04-27T11:46:51Z</time>
      </trkpt>
      <trkpt lat="32.61834" lon="-7.80369">
        <ele>274.536</ele>
        <time>2011-04-27T11:47:08Z</time>
      </trkpt>
      <trkpt lat="32.62263" lon="-7.79941">
        <ele>260.606</ele>
        <time>2011-04-27T11:47:27Z</time>
      </trkpt>
      <trkpt lat="32.63283" lon="-7.79364">
        <ele>233.781</ele>
        <time>2011-04-27T11:48:06Z</time>
      </trkpt>
      <trkpt lat="32.63722" lon="-7.78999">
        <ele>220.579</ele>
        <time>2011-04-27T11:48:24Z</time>
      </trkpt>
      <trkpt lat="32.65526" lon="-7.76897">
        <ele>238.925</ele>
        <time>2011-04-27T11:49:49Z</time>
      </trkpt>
      <trkpt lat="32.67053" lon="-7.75465">
        <ele>240.337</ele>
        <time>2011-04-27T11:50:53Z</time>
      </trkpt>
      <trkpt lat="32.68856" lon="-7.74426">
        <ele>259.199</ele>
        <time>2011-04-27T11:52:00Z</time>
      </trkpt>
      <trkpt lat="32.69612" lon="-7.74125">
        <ele>268.357</ele>
        <time>2011-04-27T11:52:27Z</time>
      </trkpt>
      <trkpt lat="32.72505" lon="-7.73751">
        <ele>342.154</ele>
        <time>2011-04-27T11:54:05Z</time>
      </trkpt>
      <trkpt lat="32.73412" lon="-7.73978">
        <ele>370.64</ele>
        <time>2011-04-27T11:54:36Z</time>
      </trkpt>
      <trkpt lat="32.74154" lon="-7.74262">
        <ele>392.129</ele>
        <time>2011-04-27T11:55:02Z</time>
      </trkpt>
      <trkpt lat="32.756" lon="-7.74248">
        <ele>405.859</ele>
        <time>2011-04-27T11:55:49Z</time>
      </trkpt>
      <trkpt lat="32.76275" lon="-7.74093">
        <ele>410.261</ele>
        <time>2011-04-27T11:56:11Z</time>
      </trkpt>
      <trkpt lat="32.76914" lon="-7.73848">
        <ele>412.814</ele>
        <time>2011-04-27T11:56:33Z</time>
      </trkpt>
      <trkpt lat="32.78524" lon="-7.72807">
        <ele>407.756</ele>
        <time>2011-04-27T11:57:33Z</time>
      </trkpt>
      <trkpt lat="32.79691" lon="-7.71919">
        <ele>413.091</ele>
        <time>2011-04-27T11:58:19Z</time>
      </trkpt>
      <trkpt lat="32.81787" lon="-7.70773">
        <ele>410.041</ele>
        <time>2011-04-27T11:59:36Z</time>
      </trkpt>
      <trkpt lat="32.82809" lon="-7.69896">
        <ele>415.453</ele>
        <time>2011-04-27T12:00:18Z</time>
      </trkpt>
      <trkpt lat="32.83471" lon="-7.69454">
        <ele>417.883</ele>
        <time>2011-04-27T12:00:43Z</time>
      </trkpt>
      <trkpt lat="32.85287" lon="-7.68706">
        <ele>427.1</ele>
        <time>2011-04-27T12:01:47Z</time>
      </trkpt>
      <trkpt lat="32.88108" lon="-7.67943">
        <ele>432.283</ele>
        <time>2011-04-27T12:03:22Z</time>
      </trkpt>
      <trkpt lat="32.88779" lon="-7.67588">
        <ele>423.761</ele>
        <time>2011-04-27T12:03:46Z</time>
      </trkpt>
      <trkpt lat="32.8945" lon="-7.66988">
        <ele>418.673</ele>
        <time>2011-04-27T12:04:41Z</time>
      </trkpt>
      <trkpt lat="32.89849" lon="-7.6661">
        <ele>435.403</ele>
        <time>2011-04-27T13:05:08Z</time>
      </trkpt>
      <trkpt lat="32.90196" lon="-7.66244">
        <ele>445.228</ele>
        <time>2011-04-27T13:05:30Z</time>
      </trkpt>
      <trkpt lat="32.91294" lon="-7.65066">
        <ele>452.613</ele>
        <time>2011-04-27T13:06:27Z</time>
      </trkpt>
      <trkpt lat="32.91859" lon="-7.64602">
        <ele>455.508</ele>
        <time>2011-04-27T13:06:52Z</time>
      </trkpt>
      <trkpt lat="32.92419" lon="-7.64346">
        <ele>460.448</ele>
        <time>2011-04-27T13:07:13Z</time>
      </trkpt>
      <trkpt lat="32.9362" lon="-7.63682">
        <ele>461.288</ele>
        <time>2011-04-27T13:07:59Z</time>
      </trkpt>
      <trkpt lat="32.94243" lon="-7.62975">
        <ele>444.029</ele>
        <time>2011-04-27T13:08:29Z</time>
      </trkpt>
      <trkpt lat="32.94847" lon="-7.61818">
        <ele>454.385</ele>
        <time>2011-04-27T13:09:09Z</time>
      </trkpt>
      <trkpt lat="32.95164" lon="-7.61425">
        <ele>466.339</ele>
        <time>2011-04-27T13:09:25Z</time>
      </trkpt>
      <trkpt lat="32.95921" lon="-7.60564">
        <ele>447.858</ele>
        <time>2011-04-27T13:10:01Z</time>
      </trkpt>
      <trkpt lat="32.96526" lon="-7.60089">
        <ele>430.404</ele>
        <time>2011-04-27T13:10:26Z</time>
      </trkpt>
      <trkpt lat="32.97751" lon="-7.59565">
        <ele>438.125</ele>
        <time>2011-04-27T13:11:11Z</time>
      </trkpt>
      <trkpt lat="32.99463" lon="-7.5892">
        <ele>423.209</ele>
        <time>2011-04-27T13:12:13Z</time>
      </trkpt>
      <trkpt lat="33.00002" lon="-7.58861">
        <ele>424.408</ele>
        <time>2011-04-27T13:12:32Z</time>
      </trkpt>
      <trkpt lat="33.00896" lon="-7.58953">
        <ele>435.281</ele>
        <time>2011-04-27T13:13:04Z</time>
      </trkpt>
      <trkpt lat="33.03437" lon="-7.59886">
        <ele>405.899</ele>
        <time>2011-04-27T13:14:36Z</time>
      </trkpt>
      <trkpt lat="33.04834" lon="-7.59866">
        <ele>398.64</ele>
        <time>2011-04-27T13:15:23Z</time>
      </trkpt>
      <trkpt lat="33.05706" lon="-7.59964">
        <ele>365.341</ele>
        <time>2011-04-27T13:15:53Z</time>
      </trkpt>
      <trkpt lat="33.0682" lon="-7.5985">
        <ele>328.032</ele>
        <time>2011-04-27T13:16:31Z</time>
      </trkpt>
      <trkpt lat="33.07271" lon="-7.59694">
        <ele>307.972</ele>
        <time>2011-04-27T13:16:47Z</time>
      </trkpt>
      <trkpt lat="33.08417" lon="-7.58962">
        <ele>294.912</ele>
        <time>2011-04-27T13:17:32Z</time>
      </trkpt>
      <trkpt lat="33.09239" lon="-7.58669">
        <ele>292.351</ele>
        <time>2011-04-27T13:18:01Z</time>
      </trkpt>
      <trkpt lat="33.1009" lon="-7.5838">
        <ele>280.042</ele>
        <time>2011-04-27T13:18:31Z</time>
      </trkpt>
      <trkpt lat="33.13055" lon="-7.57834">
        <ele>271.753</ele>
        <time>2011-04-27T13:20:15Z</time>
      </trkpt>
      <trkpt lat="33.15362" lon="-7.57144">
        <ele>262.031</ele>
        <time>2011-04-27T13:21:36Z</time>
      </trkpt>
      <trkpt lat="33.17044" lon="-7.57075">
        <ele>253.424</ele>
        <time>2011-04-27T13:22:34Z</time>
      </trkpt>
      <trkpt lat="33.18693" lon="-7.57471">
        <ele>249.993</ele>
        <time>2011-04-27T13:23:32Z</time>
      </trkpt>
      <trkpt lat="33.19711" lon="-7.57578">
        <ele>253.118</ele>
        <time>2011-04-27T13:24:07Z</time>
      </trkpt>
      <trkpt lat="33.22458" lon="-7.57409">
        <ele>240.217</ele>
        <time>2011-04-27T13:25:42Z</time>
      </trkpt>
      <trkpt lat="33.23804" lon="-7.5702">
        <ele>234.146</ele>
        <time>2011-04-27T13:29:34Z</time>
      </trkpt>
      <trkpt lat="33.24352" lon="-7.56635">
        <ele>238.487</ele>
        <time>2011-04-27T13:29:56Z</time>
      </trkpt>
      <trkpt lat="33.26996" lon="-7.54914">
        <ele>226.528</ele>
        <time>2011-04-27T13:32:04Z</time>
      </trkpt>
      <trkpt lat="33.27571" lon="-7.54736">
        <ele>227.419</ele>
        <time>2011-04-27T13:32:32Z</time>
      </trkpt>
      <trkpt lat="33.28393" lon="-7.54697">
        <ele>225.326</ele>
        <time>2011-04-27T13:33:14Z</time>
      </trkpt>
      <trkpt lat="33.29051" lon="-7.54936">
        <ele>220.478</ele>
        <time>2011-04-27T13:33:49Z</time>
      </trkpt>
      <trkpt lat="33.29666" lon="-7.55713">
        <ele>225.743</ele>
        <time>2011-04-27T13:34:36Z</time>
      </trkpt>
      <trkpt lat="33.3019" lon="-7.57294">
        <ele>227.569</ele>
        <time>2011-04-27T13:35:28Z</time>
      </trkpt>
      <trkpt lat="33.30531" lon="-7.58274">
        <ele>226.909</ele>
        <time>2011-04-27T13:35:58Z</time>
      </trkpt>
      <trkpt lat="33.31577" lon="-7.60073">
        <ele>217.968</ele>
        <time>2011-04-27T13:37:03Z</time>
      </trkpt>
      <trkpt lat="33.32004" lon="-7.60422">
        <ele>215.969</ele>
        <time>2011-04-27T13:37:21Z</time>
      </trkpt>
      <trkpt lat="33.35506" lon="-7.61741">
        <ele>210.239</ele>
        <time>2011-04-27T13:39:34Z</time>
      </trkpt>
      <trkpt lat="33.36428" lon="-7.61996">
        <ele>201.306</ele>
        <time>2011-04-27T13:40:11Z</time>
      </trkpt>
      <trkpt lat="33.38082" lon="-7.62195">
        <ele>198.119</ele>
        <time>2011-04-27T13:42:49Z</time>
      </trkpt>
      <trkpt lat="33.38741" lon="-7.61991">
        <ele>193.144</ele>
        <time>2011-04-27T13:43:21Z</time>
      </trkpt>
      <trkpt lat="33.39419" lon="-7.62046">
        <ele>197.358</ele>
        <time>2011-04-27T13:43:51Z</time>
      </trkpt>
      <trkpt lat="33.39878" lon="-7.62124">
        <ele>195.746</ele>
        <time>2011-04-27T13:44:09Z</time>
      </trkpt>
      <trkpt lat="33.40566" lon="-7.6242">
        <ele>193.907</ele>
        <time>2011-04-27T13:44:38Z</time>
      </trkpt>
      <trkpt lat="33.41149" lon="-7.62617">
        <ele>187.28</ele>
        <time>2011-04-27T13:45:02Z</time>
      </trkpt>
      <trkpt lat="33.4304" lon="-7.62794">
        <ele>177.999</ele>
        <time>2011-04-27T13:46:17Z</time>
      </trkpt>
      <trkpt lat="33.45247" lon="-7.63364">
        <ele>143.721</ele>
        <time>2011-04-27T13:47:48Z</time>
      </trkpt>
      <trkpt lat="33.47495" lon="-7.63341">
        <ele>127.245</ele>
        <time>2011-04-27T13:49:19Z</time>
      </trkpt>
      <trkpt lat="33.49193" lon="-7.63003">
        <ele>140.5</ele>
        <time>2011-04-27T13:50:32Z</time>
      </trkpt>
      <trkpt lat="33.50071" lon="-7.62805">
        <ele>135.489</ele>
        <time>2011-04-27T13:51:13Z</time>
      </trkpt>
      <trkpt lat="33.50704" lon="-7.62932">
        <ele>134.11</ele>
        <time>2011-04-27T13:51:39Z</time>
      </trkpt>
      <trkpt lat="33.51617" lon="-7.63157">
        <ele>91.048</ele>
        <time>2011-04-27T13:52:30Z</time>
      </trkpt>
      <trkpt lat="33.53289" lon="-7.63803">
        <ele>100.034</ele>
        <time>2011-04-27T13:54:17Z</time>
      </trkpt>
      <trkpt lat="33.5403" lon="-7.64059">
        <ele>63.37</ele>
        <time>2011-04-27T13:56:06Z</time>
      </trkpt>
      <trkpt lat="33.54511" lon="-7.64228">
        <ele>76.728</ele>
        <time>2011-04-27T14:08:02Z</time>
      </trkpt>
      <trkpt lat="33.55008" lon="-7.64382">
        <ele>63.606</ele>
        <time>2011-04-27T14:08:37Z</time>
      </trkpt>
      <trkpt lat="33.56073" lon="-7.64456">
        <ele>50.17</ele>
        <time>2011-04-27T14:11:02Z</time>
      </trkpt>
      <trkpt lat="33.56953" lon="-7.64383">
        <ele>43.835</ele>
        <time>2011-04-27T14:13:51Z</time>
      </trkpt>
      <trkpt lat="33.57848" lon="-7.63657">
        <ele>33.241</ele>
        <time>2011-04-27T14:16:43Z</time>
      </trkpt>
      <trkpt lat="33.5889" lon="-7.62654">
        <ele>29.1</ele>
        <time>2011-04-27T14:23:04Z</time>
      </trkpt>
      <trkpt lat="33.59113" lon="-7.62178">
        <ele>24.019</ele>
        <time>2011-04-27T14:24:36Z</time>
      </trkpt>
      <trkpt lat="33.59583" lon="-7.61814">
        <ele>15.814</ele>
        <time>2011-04-27T14:26:15Z</time>
      </trkpt>
      <trkpt lat="33.59928" lon="-7.61386">
        <ele>10.65</ele>
        <time>2011-04-27T14:28:46Z</time>
      </trkpt>
      <trkpt lat="33.59677" lon="-7.61463">
        <ele>16.894</ele>
        <time>2011-04-27T14:33:28Z</time>
      </trkpt>
      <trkpt lat="33.59587" lon="-7.60961">
        <ele>23.712</ele>
        <time>2011-04-28T08:35:14Z</time>
      </trkpt>
      <trkpt lat="33.59595" lon="-7.60016">
        <ele>7.962</ele>
        <time>2011-04-28T08:38:56Z</time>
      </trkpt>
      <trkpt lat="33.59779" lon="-7.59352">
        <ele>9.271</ele>
        <time>2011-04-28T08:40:11Z</time>
      </trkpt>
      <trkpt lat="33.59831" lon="-7.58034">
        <ele>21.835</ele>
        <time>2011-04-28T08:41:54Z</time>
      </trkpt>
      <trkpt lat="33.60008" lon="-7.56347">
        <ele>22.775</ele>
        <time>2011-04-28T08:44:09Z</time>
      </trkpt>
      <trkpt lat="33.60412" lon="-7.54524">
        <ele>17.808</ele>
        <time>2011-04-28T08:46:15Z</time>
      </trkpt>
      <trkpt lat="33.60461" lon="-7.5366">
        <ele>24.996</ele>
        <time>2011-04-28T08:47:47Z</time>
      </trkpt>
      <trkpt lat="33.60229" lon="-7.52454">
        <ele>47.068</ele>
        <time>2011-04-28T08:49:23Z</time>
      </trkpt>
      <trkpt lat="33.60128" lon="-7.51525">
        <ele>58.794</ele>
        <time>2011-04-28T08:50:24Z</time>
      </trkpt>
      <trkpt lat="33.59767" lon="-7.495">
        <ele>75.202</ele>
        <time>2011-04-28T08:53:07Z</time>
      </trkpt>
      <trkpt lat="33.59767" lon="-7.48826">
        <ele>83.237</ele>
        <time>2011-04-28T08:53:48Z</time>
      </trkpt>
      <trkpt lat="33.59907" lon="-7.47854">
        <ele>96.534</ele>
        <time>2011-04-28T08:54:44Z</time>
      </trkpt>
      <trkpt lat="33.59955" lon="-7.46899">
        <ele>87.386</ele>
        <time>2011-04-28T08:55:46Z</time>
      </trkpt>
      <trkpt lat="33.60994" lon="-7.46469">
        <ele>84.588</ele>
        <time>2011-04-28T08:56:49Z</time>
      </trkpt>
      <trkpt lat="33.62088" lon="-7.4568">
        <ele>70.729</ele>
        <time>2011-04-28T08:58:13Z</time>
      </trkpt>
      <trkpt lat="33.62789" lon="-7.452">
        <ele>44.033</ele>
        <time>2011-04-28T08:59:13Z</time>
      </trkpt>
      <trkpt lat="33.63335" lon="-7.45185">
        <ele>36.837</ele>
        <time>2011-04-28T09:00:42Z</time>
      </trkpt>
      <trkpt lat="33.63594" lon="-7.4459">
        <ele>32.89</ele>
        <time>2011-04-28T09:02:20Z</time>
      </trkpt>
      <trkpt lat="33.64014" lon="-7.43797">
        <ele>42.123</ele>
        <time>2011-04-28T09:03:25Z</time>
      </trkpt>
      <trkpt lat="33.64063" lon="-7.43236">
        <ele>41.908</ele>
        <time>2011-04-28T09:03:55Z</time>
      </trkpt>
      <trkpt lat="33.64473" lon="-7.42131">
        <ele>53.594</ele>
        <time>2011-04-28T09:04:55Z</time>
      </trkpt>
      <trkpt lat="33.64901" lon="-7.41587">
        <ele>50.423</ele>
        <time>2011-04-28T09:05:30Z</time>
      </trkpt>
      <trkpt lat="33.65157" lon="-7.4065">
        <ele>52.813</ele>
        <time>2011-04-28T09:06:12Z</time>
      </trkpt>
      <trkpt lat="33.65409" lon="-7.40138">
        <ele>45.839</ele>
        <time>2011-04-28T09:06:37Z</time>
      </trkpt>
      <trkpt lat="33.65778" lon="-7.39838">
        <ele>19.531</ele>
        <time>2011-04-28T09:07:17Z</time>
      </trkpt>
      <trkpt lat="33.65429" lon="-7.39467">
        <ele>43.623</ele>
        <time>2011-04-28T09:07:46Z</time>
      </trkpt>
      <trkpt lat="33.65996" lon="-7.38131">
        <ele>65.141</ele>
        <time>2011-04-28T09:08:45Z</time>
      </trkpt>
      <trkpt lat="33.66285" lon="-7.36663">
        <ele>77.566</ele>
        <time>2011-04-28T09:09:48Z</time>
      </trkpt>
      <trkpt lat="33.66477" lon="-7.35705">
        <ele>75.749</ele>
        <time>2011-04-28T09:10:35Z</time>
      </trkpt>
      <trkpt lat="33.67352" lon="-7.35205">
        <ele>76.921</ele>
        <time>2011-04-28T09:11:36Z</time>
      </trkpt>
      <trkpt lat="33.67973" lon="-7.34897">
        <ele>68.2</ele>
        <time>2011-04-28T09:12:12Z</time>
      </trkpt>
      <trkpt lat="33.68617" lon="-7.3346">
        <ele>73.464</ele>
        <time>2011-04-28T09:13:54Z</time>
      </trkpt>
      <trkpt lat="33.69093" lon="-7.33212">
        <ele>50.205</ele>
        <time>2011-04-28T09:14:20Z</time>
      </trkpt>
      <trkpt lat="33.69445" lon="-7.32858">
        <ele>28.756</ele>
        <time>2011-04-28T09:14:43Z</time>
      </trkpt>
      <trkpt lat="33.69835" lon="-7.32475">
        <ele>38.764</ele>
        <time>2011-04-28T09:15:31Z</time>
      </trkpt>
      <trkpt lat="33.6993" lon="-7.31956">
        <ele>62.608</ele>
        <time>2011-04-28T09:15:58Z</time>
      </trkpt>
      <trkpt lat="33.71909" lon="-7.26116">
        <ele>93.926</ele>
        <time>2011-04-28T09:20:24Z</time>
      </trkpt>
      <trkpt lat="33.72433" lon="-7.2527">
        <ele>84.647</ele>
        <time>2011-04-28T09:21:08Z</time>
      </trkpt>
      <trkpt lat="33.7264" lon="-7.24528">
        <ele>95.04</ele>
        <time>2011-04-28T09:21:39Z</time>
      </trkpt>
      <trkpt lat="33.74769" lon="-7.22189">
        <ele>75.722</ele>
        <time>2011-04-28T09:23:36Z</time>
      </trkpt>
      <trkpt lat="33.75724" lon="-7.21785">
        <ele>67.26</ele>
        <time>2011-04-28T09:24:19Z</time>
      </trkpt>
      <trkpt lat="33.76166" lon="-7.21298">
        <ele>56.708</ele>
        <time>2011-04-28T09:24:56Z</time>
      </trkpt>
      <trkpt lat="33.77826" lon="-7.18213">
        <ele>48.602</ele>
        <time>2011-04-28T09:27:49Z</time>
      </trkpt>
      <trkpt lat="33.78169" lon="-7.17827">
        <ele>45.106</ele>
        <time>2011-04-28T09:28:09Z</time>
      </trkpt>
      <trkpt lat="33.79347" lon="-7.15064">
        <ele>30.795</ele>
        <time>2011-04-28T09:31:48Z</time>
      </trkpt>
      <trkpt lat="33.79766" lon="-7.14546">
        <ele>36.556</ele>
        <time>2011-04-28T09:32:27Z</time>
      </trkpt>
      <trkpt lat="33.80924" lon="-7.12402">
        <ele>36.801</ele>
        <time>2011-04-28T09:34:23Z</time>
      </trkpt>
      <trkpt lat="33.81337" lon="-7.11167">
        <ele>38.22</ele>
        <time>2011-04-28T09:35:29Z</time>
      </trkpt>
      <trkpt lat="33.81897" lon="-7.10382">
        <ele>57.185</ele>
        <time>2011-04-28T09:38:04Z</time>
      </trkpt>
      <trkpt lat="33.8202" lon="-7.09858">
        <ele>55.337</ele>
        <time>2011-04-28T09:38:25Z</time>
      </trkpt>
      <trkpt lat="33.83518" lon="-7.06234">
        <ele>69.366</ele>
        <time>2011-04-28T09:41:06Z</time>
      </trkpt>
      <trkpt lat="33.84615" lon="-7.04483">
        <ele>49.405</ele>
        <time>2011-04-28T09:43:14Z</time>
      </trkpt>
      <trkpt lat="33.85139" lon="-7.03895">
        <ele>45.314</ele>
        <time>2011-04-28T09:44:33Z</time>
      </trkpt>
      <trkpt lat="33.86532" lon="-7.01019">
        <ele>51.725</ele>
        <time>2011-04-28T09:48:20Z</time>
      </trkpt>
      <trkpt lat="33.86697" lon="-7.00371">
        <ele>57.11</ele>
        <time>2011-04-28T09:48:50Z</time>
      </trkpt>
      <trkpt lat="33.87286" lon="-6.99724">
        <ele>44.395</ele>
        <time>2011-04-28T09:49:32Z</time>
      </trkpt>
      <trkpt lat="33.87551" lon="-6.98807">
        <ele>49.537</ele>
        <time>2011-04-28T09:50:52Z</time>
      </trkpt>
      <trkpt lat="33.88831" lon="-6.97414">
        <ele>36.627</ele>
        <time>2011-04-28T09:52:44Z</time>
      </trkpt>
      <trkpt lat="33.88939" lon="-6.96631">
        <ele>43.856</ele>
        <time>2011-04-28T09:53:36Z</time>
      </trkpt>
      <trkpt lat="33.89412" lon="-6.95972">
        <ele>43.223</ele>
        <time>2011-04-28T09:54:41Z</time>
      </trkpt>
      <trkpt lat="33.89962" lon="-6.94648">
        <ele>60.395</ele>
        <time>2011-04-28T09:55:57Z</time>
      </trkpt>
      <trkpt lat="33.90398" lon="-6.93956">
        <ele>61.996</ele>
        <time>2011-04-28T09:56:40Z</time>
      </trkpt>
      <trkpt lat="33.90664" lon="-6.93684">
        <ele>64.139</ele>
        <time>2011-04-28T10:05:53Z</time>
      </trkpt>
      <trkpt lat="33.91804" lon="-6.92485">
        <ele>61.869</ele>
        <time>2011-04-28T10:08:25Z</time>
      </trkpt>
      <trkpt lat="33.92292" lon="-6.93042">
        <ele>56.724</ele>
        <time>2011-04-28T10:09:40Z</time>
      </trkpt>
      <trkpt lat="33.92615" lon="-6.93426">
        <ele>27.804</ele>
        <time>2011-04-28T10:10:37Z</time>
      </trkpt>
      <trkpt lat="33.93094" lon="-6.92933">
        <ele>31.207</ele>
        <time>2011-04-28T10:12:04Z</time>
      </trkpt>
      <trkpt lat="33.93416" lon="-6.94183">
        <ele>23.809</ele>
        <time>2011-04-28T10:14:04Z</time>
      </trkpt>
      <trkpt lat="33.93931" lon="-6.93834">
        <ele>14.512</ele>
        <time>2011-04-28T10:15:09Z</time>
      </trkpt>
      <trkpt lat="33.94678" lon="-6.93286">
        <ele>6.949</ele>
        <time>2011-04-28T10:17:26Z</time>
      </trkpt>
      <trkpt lat="33.94843" lon="-6.9286">
        <ele>27.76</ele>
        <time>2011-04-28T10:19:38Z</time>
      </trkpt>
      <trkpt lat="33.95681" lon="-6.92066">
        <ele>16.895</ele>
        <time>2011-04-28T10:20:29Z</time>
      </trkpt>
      <trkpt lat="33.9615" lon="-6.91747">
        <ele>10.424</ele>
        <time>2011-04-28T10:21:25Z</time>
      </trkpt>
      <trkpt lat="33.96581" lon="-6.91251">
        <ele>20.705</ele>
        <time>2011-04-28T10:29:40Z</time>
      </trkpt>
      <trkpt lat="33.96929" lon="-6.90909">
        <ele>19.872</ele>
        <time>2011-04-28T10:30:06Z</time>
      </trkpt>
      <trkpt lat="33.97254" lon="-6.90261">
        <ele>23.526</ele>
        <time>2011-04-28T10:30:43Z</time>
      </trkpt>
      <trkpt lat="33.97686" lon="-6.89835">
        <ele>24.483</ele>
        <time>2011-04-28T10:31:14Z</time>
      </trkpt>
      <trkpt lat="33.98316" lon="-6.89385">
        <ele>14.688</ele>
        <time>2011-04-28T10:32:07Z</time>
      </trkpt>
      <trkpt lat="33.98658" lon="-6.88966">
        <ele>20.454</ele>
        <time>2011-04-28T10:32:42Z</time>
      </trkpt>
      <trkpt lat="33.99277" lon="-6.88376">
        <ele>15.083</ele>
        <time>2011-04-28T10:33:57Z</time>
      </trkpt>
      <trkpt lat="34.0066" lon="-6.86876">
        <ele>22.028</ele>
        <time>2011-04-28T10:35:57Z</time>
      </trkpt>
      <trkpt lat="34.01129" lon="-6.86532">
        <ele>18.961</ele>
        <time>2011-04-28T10:37:03Z</time>
      </trkpt>
      <trkpt lat="34.01471" lon="-6.86197">
        <ele>16.763</ele>
        <time>2011-04-28T10:37:38Z</time>
      </trkpt>
      <trkpt lat="34.01865" lon="-6.85668">
        <ele>16.025</ele>
        <time>2011-04-28T10:38:23Z</time>
      </trkpt>
      <trkpt lat="34.02166" lon="-6.85338">
        <ele>16.824</ele>
        <time>2011-04-28T10:39:12Z</time>
      </trkpt>
      <trkpt lat="34.02649" lon="-6.84879">
        <ele>11.241</ele>
        <time>2011-04-28T10:40:08Z</time>
      </trkpt>
      <trkpt lat="34.02725" lon="-6.84285">
        <ele>23.562</ele>
        <time>2011-04-28T10:41:09Z</time>
      </trkpt>
      <trkpt lat="34.02242" lon="-6.84061">
        <ele>14.455</ele>
        <time>2011-04-28T10:42:30Z</time>
      </trkpt>
      <trkpt lat="34.02666" lon="-6.84221">
        <ele>21.723</ele>
        <time>2011-04-28T10:43:46Z</time>
      </trkpt>
      <trkpt lat="34.02998" lon="-6.83651">
        <ele>18.742</ele>
        <time>2011-04-28T10:45:03Z</time>
      </trkpt>
      <trkpt lat="34.0271" lon="-6.82982">
        <ele>2.621</ele>
        <time>2011-04-28T10:46:14Z</time>
      </trkpt>
      <trkpt lat="34.02567" lon="-6.82233">
        <ele>2.035</ele>
        <time>2011-04-28T10:47:21Z</time>
      </trkpt>
      <trkpt lat="34.03208" lon="-6.82034">
        <ele>3.534</ele>
        <time>2011-04-28T10:48:51Z</time>
      </trkpt>
      <trkpt lat="34.03605" lon="-6.81361">
        <ele>20.674</ele>
        <time>2011-04-28T10:50:42Z</time>
      </trkpt>
      <trkpt lat="34.04035" lon="-6.80991">
        <ele>23.597</ele>
        <time>2011-04-28T10:52:35Z</time>
      </trkpt>
      <trkpt lat="34.04077" lon="-6.81619">
        <ele>14.191</ele>
        <time>2011-04-28T10:54:33Z</time>
      </trkpt>
      <trkpt lat="34.04513" lon="-6.81788">
        <ele>18.342</ele>
        <time>2011-04-28T10:55:31Z</time>
      </trkpt>
      <trkpt lat="34.05378" lon="-6.81012">
        <ele>16.586</ele>
        <time>2011-04-28T10:57:07Z</time>
      </trkpt>
      <trkpt lat="34.07843" lon="-6.77963">
        <ele>29.753</ele>
        <time>2011-04-28T11:01:54Z</time>
      </trkpt>
      <trkpt lat="34.09571" lon="-6.7628">
        <ele>31.933</ele>
        <time>2011-04-28T11:03:56Z</time>
      </trkpt>
      <trkpt lat="34.10447" lon="-6.75628">
        <ele>19.916</ele>
        <time>2011-04-28T11:04:47Z</time>
      </trkpt>
      <trkpt lat="34.11258" lon="-6.74801">
        <ele>22.764</ele>
        <time>2011-04-28T11:05:40Z</time>
      </trkpt>
      <trkpt lat="34.13686" lon="-6.72781">
        <ele>22.093</ele>
        <time>2011-04-28T11:10:43Z</time>
      </trkpt>
      <trkpt lat="34.14827" lon="-6.71923">
        <ele>18.373</ele>
        <time>2011-04-28T11:11:50Z</time>
      </trkpt>
      <trkpt lat="34.16118" lon="-6.70841">
        <ele>9.428</ele>
        <time>2011-04-28T11:13:20Z</time>
      </trkpt>
      <trkpt lat="34.16765" lon="-6.70128">
        <ele>14.548</ele>
        <time>2011-04-28T11:14:16Z</time>
      </trkpt>
      <trkpt lat="34.17627" lon="-6.69421">
        <ele>9.203</ele>
        <time>2011-04-28T11:15:13Z</time>
      </trkpt>
      <trkpt lat="34.20325" lon="-6.67638">
        <ele>5.561</ele>
        <time>2011-04-28T11:18:31Z</time>
      </trkpt>
      <trkpt lat="34.20746" lon="-6.67223">
        <ele>6.868</ele>
        <time>2011-04-28T11:19:10Z</time>
      </trkpt>
      <trkpt lat="34.21849" lon="-6.66467">
        <ele>16.14</ele>
        <time>2011-04-28T11:20:33Z</time>
      </trkpt>
      <trkpt lat="34.22302" lon="-6.6589">
        <ele>20.639</ele>
        <time>2011-04-28T11:21:13Z</time>
      </trkpt>
      <trkpt lat="34.22951" lon="-6.64597">
        <ele>42.024</ele>
        <time>2011-04-28T11:22:12Z</time>
      </trkpt>
      <trkpt lat="34.23682" lon="-6.6302">
        <ele>43.96</ele>
        <time>2011-04-28T11:23:20Z</time>
      </trkpt>
      <trkpt lat="34.24666" lon="-6.61948">
        <ele>29.027</ele>
        <time>2011-04-28T11:24:25Z</time>
      </trkpt>
      <trkpt lat="34.24974" lon="-6.60565">
        <ele>9.637</ele>
        <time>2011-04-28T11:26:06Z</time>
      </trkpt>
      <trkpt lat="34.25548" lon="-6.59691">
        <ele>5.636</ele>
        <time>2011-04-28T11:27:53Z</time>
      </trkpt>
      <trkpt lat="34.26258" lon="-6.57708">
        <ele>13.415</ele>
        <time>2011-04-28T11:33:33Z</time>
      </trkpt>
      <trkpt lat="34.26369" lon="-6.56901">
        <ele>20.111</ele>
        <time>2011-04-28T11:39:03Z</time>
      </trkpt>
      <trkpt lat="34.26619" lon="-6.56343">
        <ele>17.081</ele>
        <time>2011-04-28T11:40:34Z</time>
      </trkpt>
      <trkpt lat="34.27099" lon="-6.55961">
        <ele>8.883</ele>
        <time>2011-04-28T11:41:49Z</time>
      </trkpt>
      <trkpt lat="34.27627" lon="-6.55422">
        <ele>5.528</ele>
        <time>2011-04-28T11:42:52Z</time>
      </trkpt>
      <trkpt lat="34.28262" lon="-6.53458">
        <ele>10.763</ele>
        <time>2011-04-28T12:28:19Z</time>
      </trkpt>
      <trkpt lat="34.28113" lon="-6.53825">
        <ele>10.619</ele>
        <time>2011-04-28T12:32:30Z</time>
      </trkpt>
      <trkpt lat="34.27613" lon="-6.55446">
        <ele>9.406</ele>
        <time>2011-04-28T12:34:20Z</time>
      </trkpt>
      <trkpt lat="34.27046" lon="-6.56004">
        <ele>9.235</ele>
        <time>2011-04-28T12:35:21Z</time>
      </trkpt>
      <trkpt lat="34.26621" lon="-6.56321">
        <ele>16.693</ele>
        <time>2011-04-28T12:37:05Z</time>
      </trkpt>
      <trkpt lat="34.26194" lon="-6.57862">
        <ele>13.192</ele>
        <time>2011-04-28T12:41:46Z</time>
      </trkpt>
      <trkpt lat="34.25374" lon="-6.57349">
        <ele>19.483</ele>
        <time>2011-04-28T12:44:12Z</time>
      </trkpt>
      <trkpt lat="34.24561" lon="-6.57315">
        <ele>39.193</ele>
        <time>2011-04-28T12:45:14Z</time>
      </trkpt>
      <trkpt lat="34.2293" lon="-6.57072">
        <ele>42.875</ele>
        <time>2011-04-28T12:47:07Z</time>
      </trkpt>
      <trkpt lat="34.23024" lon="-6.56601">
        <ele>46.928</ele>
        <time>2011-04-28T12:48:04Z</time>
      </trkpt>
      <trkpt lat="34.22536" lon="-6.54991">
        <ele>54.24</ele>
        <time>2011-04-28T12:48:57Z</time>
      </trkpt>
      <trkpt lat="34.22344" lon="-6.54377">
        <ele>53.786</ele>
        <time>2011-04-28T12:49:24Z</time>
      </trkpt>
      <trkpt lat="34.22322" lon="-6.53598">
        <ele>48.951</ele>
        <time>2011-04-28T12:49:56Z</time>
      </trkpt>
      <trkpt lat="34.22909" lon="-6.52383">
        <ele>29.155</ele>
        <time>2011-04-28T12:50:53Z</time>
      </trkpt>
      <trkpt lat="34.23393" lon="-6.51993">
        <ele>31.681</ele>
        <time>2011-04-28T12:51:18Z</time>
      </trkpt>
      <trkpt lat="34.2498" lon="-6.51631">
        <ele>28.36</ele>
        <time>2011-04-28T12:52:17Z</time>
      </trkpt>
      <trkpt lat="34.27554" lon="-6.50638">
        <ele>29.252</ele>
        <time>2011-04-28T12:53:52Z</time>
      </trkpt>
      <trkpt lat="34.28385" lon="-6.50339">
        <ele>22.237</ele>
        <time>2011-04-28T12:54:23Z</time>
      </trkpt>
      <trkpt lat="34.29276" lon="-6.50212">
        <ele>18.853</ele>
        <time>2011-04-28T12:54:55Z</time>
      </trkpt>
      <trkpt lat="34.29915" lon="-6.50399">
        <ele>29.685</ele>
        <time>2011-04-28T12:55:19Z</time>
      </trkpt>
      <trkpt lat="34.30956" lon="-6.5099">
        <ele>15.694</ele>
        <time>2011-04-28T12:57:21Z</time>
      </trkpt>
      <trkpt lat="34.31515" lon="-6.51198">
        <ele>22.871</ele>
        <time>2011-04-28T12:57:45Z</time>
      </trkpt>
      <trkpt lat="34.34325" lon="-6.50862">
        <ele>19.376</ele>
        <time>2011-04-28T12:59:24Z</time>
      </trkpt>
      <trkpt lat="34.36468" lon="-6.5186">
        <ele>16.564</ele>
        <time>2011-04-28T13:00:45Z</time>
      </trkpt>
      <trkpt lat="34.37046" lon="-6.52011">
        <ele>16.195</ele>
        <time>2011-04-28T13:01:06Z</time>
      </trkpt>
      <trkpt lat="34.38941" lon="-6.51458">
        <ele>15.21</ele>
        <time>2011-04-28T13:02:13Z</time>
      </trkpt>
      <trkpt lat="34.39436" lon="-6.5154">
        <ele>16.017</ele>
        <time>2011-04-28T13:02:31Z</time>
      </trkpt>
      <trkpt lat="34.40222" lon="-6.52071">
        <ele>19.34</ele>
        <time>2011-04-28T13:03:03Z</time>
      </trkpt>
      <trkpt lat="34.40849" lon="-6.52362">
        <ele>15.867</ele>
        <time>2011-04-28T13:03:27Z</time>
      </trkpt>
      <trkpt lat="34.41387" lon="-6.52361">
        <ele>15.891</ele>
        <time>2011-04-28T13:03:46Z</time>
      </trkpt>
      <trkpt lat="34.42334" lon="-6.51959">
        <ele>30.019</ele>
        <time>2011-04-28T13:04:20Z</time>
      </trkpt>
      <trkpt lat="34.43867" lon="-6.50943">
        <ele>28.508</ele>
        <time>2011-04-28T13:05:21Z</time>
      </trkpt>
      <trkpt lat="34.45413" lon="-6.50151">
        <ele>28.894</ele>
        <time>2011-04-28T13:06:21Z</time>
      </trkpt>
      <trkpt lat="34.47132" lon="-6.49691">
        <ele>22.963</ele>
        <time>2011-04-28T13:07:21Z</time>
      </trkpt>
      <trkpt lat="34.477" lon="-6.49139">
        <ele>26.157</ele>
        <time>2011-04-28T13:07:46Z</time>
      </trkpt>
      <trkpt lat="34.48452" lon="-6.48683">
        <ele>24.328</ele>
        <time>2011-04-28T13:08:15Z</time>
      </trkpt>
      <trkpt lat="34.49782" lon="-6.48281">
        <ele>27.332</ele>
        <time>2011-04-28T13:09:03Z</time>
      </trkpt>
      <trkpt lat="34.50958" lon="-6.47678">
        <ele>28.492</ele>
        <time>2011-04-28T13:09:46Z</time>
      </trkpt>
      <trkpt lat="34.51532" lon="-6.47309">
        <ele>26.868</ele>
        <time>2011-04-28T13:10:08Z</time>
      </trkpt>
      <trkpt lat="34.53212" lon="-6.46632">
        <ele>17.329</ele>
        <time>2011-04-28T13:11:08Z</time>
      </trkpt>
      <trkpt lat="34.54096" lon="-6.46145">
        <ele>20.102</ele>
        <time>2011-04-28T13:11:41Z</time>
      </trkpt>
      <trkpt lat="34.55279" lon="-6.45875">
        <ele>15.506</ele>
        <time>2011-04-28T13:12:22Z</time>
      </trkpt>
      <trkpt lat="34.56331" lon="-6.45489">
        <ele>23.606</ele>
        <time>2011-04-28T13:12:59Z</time>
      </trkpt>
      <trkpt lat="34.56821" lon="-6.45343">
        <ele>20.013</ele>
        <time>2011-04-28T13:13:16Z</time>
      </trkpt>
      <trkpt lat="34.58132" lon="-6.44651">
        <ele>30.818</ele>
        <time>2011-04-28T13:14:04Z</time>
      </trkpt>
      <trkpt lat="34.58975" lon="-6.44315">
        <ele>27.009</ele>
        <time>2011-04-28T13:14:34Z</time>
      </trkpt>
      <trkpt lat="34.60484" lon="-6.43384">
        <ele>25.799</ele>
        <time>2011-04-28T13:15:30Z</time>
      </trkpt>
      <trkpt lat="34.61538" lon="-6.42911">
        <ele>22.128</ele>
        <time>2011-04-28T13:16:08Z</time>
      </trkpt>
      <trkpt lat="34.62726" lon="-6.41971">
        <ele>23.433</ele>
        <time>2011-04-28T13:16:56Z</time>
      </trkpt>
      <trkpt lat="34.6326" lon="-6.41352">
        <ele>25.232</ele>
        <time>2011-04-28T13:17:21Z</time>
      </trkpt>
      <trkpt lat="34.64428" lon="-6.40717">
        <ele>23.659</ele>
        <time>2011-04-28T13:18:05Z</time>
      </trkpt>
      <trkpt lat="34.66664" lon="-6.38938">
        <ele>30.53</ele>
        <time>2011-04-28T13:19:34Z</time>
      </trkpt>
      <trkpt lat="34.67769" lon="-6.38658">
        <ele>26.495</ele>
        <time>2011-04-28T13:20:12Z</time>
      </trkpt>
      <trkpt lat="34.69536" lon="-6.38129">
        <ele>36.602</ele>
        <time>2011-04-28T13:21:13Z</time>
      </trkpt>
      <trkpt lat="34.70459" lon="-6.37711">
        <ele>38.363</ele>
        <time>2011-04-28T13:21:45Z</time>
      </trkpt>
      <trkpt lat="34.71925" lon="-6.37035">
        <ele>32.484</ele>
        <time>2011-04-28T13:22:36Z</time>
      </trkpt>
      <trkpt lat="34.73197" lon="-6.363">
        <ele>39.112</ele>
        <time>2011-04-28T13:23:24Z</time>
      </trkpt>
      <trkpt lat="34.74882" lon="-6.34914">
        <ele>33.557</ele>
        <time>2011-04-28T13:24:33Z</time>
      </trkpt>
      <trkpt lat="34.75801" lon="-6.34059">
        <ele>24.041</ele>
        <time>2011-04-28T13:25:11Z</time>
      </trkpt>
      <trkpt lat="34.76942" lon="-6.32209">
        <ele>21.891</ele>
        <time>2011-04-28T13:26:14Z</time>
      </trkpt>
      <trkpt lat="34.78201" lon="-6.3122">
        <ele>28.256</ele>
        <time>2011-04-28T13:27:05Z</time>
      </trkpt>
      <trkpt lat="34.78909" lon="-6.3046">
        <ele>28.09</ele>
        <time>2011-04-28T13:27:37Z</time>
      </trkpt>
      <trkpt lat="34.79342" lon="-6.29837">
        <ele>31.925</ele>
        <time>2011-04-28T13:27:59Z</time>
      </trkpt>
      <trkpt lat="34.79758" lon="-6.28043">
        <ele>21.71</ele>
        <time>2011-04-28T13:28:49Z</time>
      </trkpt>
      <trkpt lat="34.80078" lon="-6.26999">
        <ele>23.772</ele>
        <time>2011-04-28T13:29:19Z</time>
      </trkpt>
      <trkpt lat="34.80399" lon="-6.26037">
        <ele>16.603</ele>
        <time>2011-04-28T13:29:47Z</time>
      </trkpt>
      <trkpt lat="34.80798" lon="-6.25335">
        <ele>24.884</ele>
        <time>2011-04-28T13:30:10Z</time>
      </trkpt>
      <trkpt lat="34.81426" lon="-6.24416">
        <ele>22.587</ele>
        <time>2011-04-28T13:30:42Z</time>
      </trkpt>
      <trkpt lat="34.8235" lon="-6.23707">
        <ele>17.994</ele>
        <time>2011-04-28T13:31:18Z</time>
      </trkpt>
      <trkpt lat="34.83107" lon="-6.23335">
        <ele>30.702</ele>
        <time>2011-04-28T13:31:45Z</time>
      </trkpt>
      <trkpt lat="34.8352" lon="-6.23024">
        <ele>33.284</ele>
        <time>2011-04-28T13:32:01Z</time>
      </trkpt>
      <trkpt lat="34.86342" lon="-6.22058">
        <ele>13.479</ele>
        <time>2011-04-28T13:33:40Z</time>
      </trkpt>
      <trkpt lat="34.87708" lon="-6.21352">
        <ele>29.682</ele>
        <time>2011-04-28T13:34:29Z</time>
      </trkpt>
      <trkpt lat="34.88342" lon="-6.21115">
        <ele>32.17</ele>
        <time>2011-04-28T13:34:51Z</time>
      </trkpt>
      <trkpt lat="34.9037" lon="-6.20808">
        <ele>47.876</ele>
        <time>2011-04-28T13:35:59Z</time>
      </trkpt>
      <trkpt lat="34.91953" lon="-6.20376">
        <ele>62.225</ele>
        <time>2011-04-28T13:36:52Z</time>
      </trkpt>
      <trkpt lat="34.93379" lon="-6.20233">
        <ele>88.048</ele>
        <time>2011-04-28T13:37:39Z</time>
      </trkpt>
      <trkpt lat="34.98838" lon="-6.19876">
        <ele>44.923</ele>
        <time>2011-04-28T13:40:37Z</time>
      </trkpt>
      <trkpt lat="35.01078" lon="-6.18921">
        <ele>59.874</ele>
        <time>2011-04-28T13:41:54Z</time>
      </trkpt>
      <trkpt lat="35.03096" lon="-6.18481">
        <ele>72.156</ele>
        <time>2011-04-28T13:43:01Z</time>
      </trkpt>
      <trkpt lat="35.03881" lon="-6.18225">
        <ele>88.462</ele>
        <time>2011-04-28T13:43:27Z</time>
      </trkpt>
      <trkpt lat="35.05515" lon="-6.17212">
        <ele>80.733</ele>
        <time>2011-04-28T13:44:27Z</time>
      </trkpt>
      <trkpt lat="35.06487" lon="-6.16709">
        <ele>69.851</ele>
        <time>2011-04-28T13:45:01Z</time>
      </trkpt>
      <trkpt lat="35.07514" lon="-6.15944">
        <ele>65.336</ele>
        <time>2011-04-28T13:45:40Z</time>
      </trkpt>
      <trkpt lat="35.09091" lon="-6.14958">
        <ele>55.547</ele>
        <time>2011-04-28T13:46:38Z</time>
      </trkpt>
      <trkpt lat="35.09961" lon="-6.14501">
        <ele>43.985</ele>
        <time>2011-04-28T13:47:09Z</time>
      </trkpt>
      <trkpt lat="35.10886" lon="-6.14265">
        <ele>38.647</ele>
        <time>2011-04-28T13:47:40Z</time>
      </trkpt>
      <trkpt lat="35.11705" lon="-6.14246">
        <ele>37.071</ele>
        <time>2011-04-28T13:48:07Z</time>
      </trkpt>
      <trkpt lat="35.13334" lon="-6.14685">
        <ele>30.978</ele>
        <time>2011-04-28T13:49:02Z</time>
      </trkpt>
      <trkpt lat="35.14193" lon="-6.14488">
        <ele>24.688</ele>
        <time>2011-04-28T13:49:31Z</time>
      </trkpt>
      <trkpt lat="35.14653" lon="-6.14128">
        <ele>27.458</ele>
        <time>2011-04-28T13:49:50Z</time>
      </trkpt>
      <trkpt lat="35.1509" lon="-6.13551">
        <ele>27.296</ele>
        <time>2011-04-28T13:50:12Z</time>
      </trkpt>
      <trkpt lat="35.15571" lon="-6.13043">
        <ele>40.569</ele>
        <time>2011-04-28T13:50:33Z</time>
      </trkpt>
      <trkpt lat="35.16198" lon="-6.12681">
        <ele>55.457</ele>
        <time>2011-04-28T13:50:56Z</time>
      </trkpt>
      <trkpt lat="35.16901" lon="-6.12249">
        <ele>38.511</ele>
        <time>2011-04-28T13:51:42Z</time>
      </trkpt>
      <trkpt lat="35.17239" lon="-6.11887">
        <ele>44.633</ele>
        <time>2011-04-28T14:21:37Z</time>
      </trkpt>
      <trkpt lat="35.17606" lon="-6.11299">
        <ele>25.467</ele>
        <time>2011-04-28T14:22:01Z</time>
      </trkpt>
      <trkpt lat="35.1791" lon="-6.1001">
        <ele>17.964</ele>
        <time>2011-04-28T14:22:41Z</time>
      </trkpt>
      <trkpt lat="35.19367" lon="-6.07717">
        <ele>26.623</ele>
        <time>2011-04-28T14:24:04Z</time>
      </trkpt>
      <trkpt lat="35.19824" lon="-6.07162">
        <ele>42.853</ele>
        <time>2011-04-28T14:24:27Z</time>
      </trkpt>
      <trkpt lat="35.20347" lon="-6.06969">
        <ele>73.821</ele>
        <time>2011-04-28T14:24:47Z</time>
      </trkpt>
      <trkpt lat="35.20783" lon="-6.06718">
        <ele>94.727</ele>
        <time>2011-04-28T14:25:04Z</time>
      </trkpt>
      <trkpt lat="35.21452" lon="-6.06164">
        <ele>113</ele>
        <time>2011-04-28T14:25:32Z</time>
      </trkpt>
      <trkpt lat="35.22683" lon="-6.06343">
        <ele>128.777</ele>
        <time>2011-04-28T14:26:16Z</time>
      </trkpt>
      <trkpt lat="35.23598" lon="-6.06902">
        <ele>150.943</ele>
        <time>2011-04-28T14:26:52Z</time>
      </trkpt>
      <trkpt lat="35.24626" lon="-6.07101">
        <ele>178.044</ele>
        <time>2011-04-28T14:27:28Z</time>
      </trkpt>
      <trkpt lat="35.25758" lon="-6.07342">
        <ele>185.784</ele>
        <time>2011-04-28T14:28:07Z</time>
      </trkpt>
      <trkpt lat="35.26913" lon="-6.06873">
        <ele>196.231</ele>
        <time>2011-04-28T14:28:48Z</time>
      </trkpt>
      <trkpt lat="35.2774" lon="-6.0669">
        <ele>199.767</ele>
        <time>2011-04-28T14:29:17Z</time>
      </trkpt>
      <trkpt lat="35.28416" lon="-6.05908">
        <ele>205.047</ele>
        <time>2011-04-28T14:29:49Z</time>
      </trkpt>
      <trkpt lat="35.28459" lon="-6.04728">
        <ele>203.706</ele>
        <time>2011-04-28T14:30:22Z</time>
      </trkpt>
      <trkpt lat="35.28967" lon="-6.03633">
        <ele>199.129</ele>
        <time>2011-04-28T14:30:57Z</time>
      </trkpt>
      <trkpt lat="35.29583" lon="-6.02955">
        <ele>188.731</ele>
        <time>2011-04-28T14:31:25Z</time>
      </trkpt>
      <trkpt lat="35.30365" lon="-6.02494">
        <ele>151.246</ele>
        <time>2011-04-28T14:31:54Z</time>
      </trkpt>
      <trkpt lat="35.30912" lon="-6.01806">
        <ele>132.652</ele>
        <time>2011-04-28T14:32:22Z</time>
      </trkpt>
      <trkpt lat="35.317" lon="-6.01285">
        <ele>135.659</ele>
        <time>2011-04-28T14:32:52Z</time>
      </trkpt>
      <trkpt lat="35.33493" lon="-6.0131">
        <ele>124.184</ele>
        <time>2011-04-28T14:33:52Z</time>
      </trkpt>
      <trkpt lat="35.33951" lon="-6.01347">
        <ele>120.868</ele>
        <time>2011-04-28T14:34:07Z</time>
      </trkpt>
      <trkpt lat="35.34441" lon="-6.01384">
        <ele>107.053</ele>
        <time>2011-04-28T14:34:23Z</time>
      </trkpt>
      <trkpt lat="35.36127" lon="-6.01746">
        <ele>109.721</ele>
        <time>2011-04-28T14:35:21Z</time>
      </trkpt>
      <trkpt lat="35.36734" lon="-6.0179">
        <ele>117.535</ele>
        <time>2011-04-28T14:35:41Z</time>
      </trkpt>
      <trkpt lat="35.38782" lon="-6.02351">
        <ele>72.914</ele>
        <time>2011-04-28T14:36:51Z</time>
      </trkpt>
      <trkpt lat="35.40345" lon="-6.02065">
        <ele>60.333</ele>
        <time>2011-04-28T14:37:45Z</time>
      </trkpt>
      <trkpt lat="35.42935" lon="-6.02711">
        <ele>70.749</ele>
        <time>2011-04-28T14:39:14Z</time>
      </trkpt>
      <trkpt lat="35.43511" lon="-6.02684">
        <ele>83.749</ele>
        <time>2011-04-28T14:39:33Z</time>
      </trkpt>
      <trkpt lat="35.45077" lon="-6.02162">
        <ele>68.336</ele>
        <time>2011-04-28T14:40:26Z</time>
      </trkpt>
      <trkpt lat="35.4559" lon="-6.01881">
        <ele>44.766</ele>
        <time>2011-04-28T14:40:44Z</time>
      </trkpt>
      <trkpt lat="35.46123" lon="-6.01381">
        <ele>24.486</ele>
        <time>2011-04-28T14:41:06Z</time>
      </trkpt>
      <trkpt lat="35.46986" lon="-6.00243">
        <ele>52.296</ele>
        <time>2011-04-28T14:41:48Z</time>
      </trkpt>
      <trkpt lat="35.47378" lon="-5.99766">
        <ele>40.84</ele>
        <time>2011-04-28T14:42:06Z</time>
      </trkpt>
      <trkpt lat="35.48782" lon="-5.99055">
        <ele>20.058</ele>
        <time>2011-04-28T14:42:57Z</time>
      </trkpt>
      <trkpt lat="35.50082" lon="-5.98694">
        <ele>17.191</ele>
        <time>2011-04-28T14:43:41Z</time>
      </trkpt>
      <trkpt lat="35.51442" lon="-5.98958">
        <ele>49.578</ele>
        <time>2011-04-28T14:44:26Z</time>
      </trkpt>
      <trkpt lat="35.52492" lon="-5.99152">
        <ele>32.373</ele>
        <time>2011-04-28T14:45:00Z</time>
      </trkpt>
      <trkpt lat="35.53283" lon="-5.9897">
        <ele>16.035</ele>
        <time>2011-04-28T14:45:26Z</time>
      </trkpt>
      <trkpt lat="35.56038" lon="-5.9761">
        <ele>13.516</ele>
        <time>2011-04-28T14:47:03Z</time>
      </trkpt>
      <trkpt lat="35.575" lon="-5.9618">
        <ele>52.035</ele>
        <time>2011-04-28T14:48:03Z</time>
      </trkpt>
      <trkpt lat="35.58182" lon="-5.9566">
        <ele>56.104</ele>
        <time>2011-04-28T14:48:30Z</time>
      </trkpt>
      <trkpt lat="35.58721" lon="-5.95705">
        <ele>37.983</ele>
        <time>2011-04-28T14:48:48Z</time>
      </trkpt>
      <trkpt lat="35.59289" lon="-5.961">
        <ele>20.174</ele>
        <time>2011-04-28T14:49:10Z</time>
      </trkpt>
      <trkpt lat="35.60289" lon="-5.9623">
        <ele>28.754</ele>
        <time>2011-04-28T14:49:44Z</time>
      </trkpt>
      <trkpt lat="35.61952" lon="-5.95985">
        <ele>55.664</ele>
        <time>2011-04-28T14:50:37Z</time>
      </trkpt>
      <trkpt lat="35.62705" lon="-5.95972">
        <ele>42.754</ele>
        <time>2011-04-28T14:51:01Z</time>
      </trkpt>
      <trkpt lat="35.63602" lon="-5.96082">
        <ele>15.63</ele>
        <time>2011-04-28T14:51:31Z</time>
      </trkpt>
      <trkpt lat="35.64924" lon="-5.95775">
        <ele>18.325</ele>
        <time>2011-04-28T14:52:15Z</time>
      </trkpt>
      <trkpt lat="35.6537" lon="-5.95483">
        <ele>20.87</ele>
        <time>2011-04-28T14:52:31Z</time>
      </trkpt>
      <trkpt lat="35.6625" lon="-5.94569">
        <ele>38.306</ele>
        <time>2011-04-28T14:53:09Z</time>
      </trkpt>
      <trkpt lat="35.67355" lon="-5.93449">
        <ele>25.218</ele>
        <time>2011-04-28T14:53:59Z</time>
      </trkpt>
      <trkpt lat="35.68179" lon="-5.92118">
        <ele>11.433</ele>
        <time>2011-04-28T14:57:47Z</time>
      </trkpt>
      <trkpt lat="35.68973" lon="-5.91675">
        <ele>19.238</ele>
        <time>2011-04-28T14:58:37Z</time>
      </trkpt>
      <trkpt lat="35.69884" lon="-5.91613">
        <ele>16.02</ele>
        <time>2011-04-28T14:59:24Z</time>
      </trkpt>
      <trkpt lat="35.71188" lon="-5.90398">
        <ele>25.364</ele>
        <time>2011-04-28T15:01:07Z</time>
      </trkpt>
      <trkpt lat="35.71814" lon="-5.90403">
        <ele>14.929</ele>
        <time>2011-04-28T15:01:53Z</time>
      </trkpt>
      <trkpt lat="35.72416" lon="-5.89631">
        <ele>13.35</ele>
        <time>2011-04-28T15:02:48Z</time>
      </trkpt>
      <trkpt lat="35.73797" lon="-5.85467">
        <ele>58.994</ele>
        <time>2011-04-28T15:07:25Z</time>
      </trkpt>
      <trkpt lat="35.74022" lon="-5.84746">
        <ele>57.692</ele>
        <time>2011-04-28T15:08:15Z</time>
      </trkpt>
      <trkpt lat="35.74915" lon="-5.83999">
        <ele>46.623</ele>
        <time>2011-04-28T15:09:52Z</time>
      </trkpt>
      <trkpt lat="35.75126" lon="-5.83418">
        <ele>49.822</ele>
        <time>2011-04-28T15:10:29Z</time>
      </trkpt>
      <trkpt lat="35.75876" lon="-5.82876">
        <ele>19.705</ele>
        <time>2011-04-28T15:12:18Z</time>
      </trkpt>
      <trkpt lat="35.75975" lon="-5.8209">
        <ele>21.013</ele>
        <time>2011-04-28T15:13:19Z</time>
      </trkpt>
      <trkpt lat="35.76347" lon="-5.81673">
        <ele>12.143</ele>
        <time>2011-04-28T15:14:19Z</time>
      </trkpt>
      <trkpt lat="35.76645" lon="-5.80902">
        <ele>7.854</ele>
        <time>2011-04-28T15:17:36Z</time>
      </trkpt>
      <trkpt lat="35.76984" lon="-5.80301">
        <ele>1.693</ele>
        <time>2011-04-28T15:18:59Z</time>
      </trkpt>
      <trkpt lat="35.77753" lon="-5.7992">
        <ele>1.443</ele>
        <time>2011-04-28T15:22:18Z</time>
      </trkpt>
      <trkpt lat="35.77583" lon="-5.79396">
        <ele>2.166</ele>
        <time>2011-04-28T15:23:01Z</time>
      </trkpt>
      <trkpt lat="35.77543" lon="-5.78897">
        <ele>4.125</ele>
        <time>2011-04-28T15:23:53Z</time>
      </trkpt>
      <trkpt lat="35.77243" lon="-5.78576">
        <ele>3.402</ele>
        <time>2011-04-28T15:27:05Z</time>
      </trkpt>
      <trkpt lat="35.77217" lon="-5.78305">
        <ele>0.72</ele>
        <time>2011-04-28T15:28:11Z</time>
      </trkpt>
    </trkseg>
  </trk>
</gpx>